<?xml version="1.0" encoding="UTF-8" standalone="no" ?>
<gpx xmlns="http://www.topografix.com/GPX/1/1" xmlns:xsi="http://www.w3.org/2001/XMLSchema-instance" xsi:schemaLocation="http://www.topografix.com/GPX/1/1 http://www.topografix.com/GPX/1/1/gpx.xsd" version="1.1" creator="VisuGPX - https://www.visugpx.com">
  <metadata>
    <name>Devoirs de vacances avec les pas cotons</name>
    <desc><![CDATA[Les marcheurs des pas cotons autour de Bussières.]]></desc>
  </metadata>
  <trk>
    <name><![CDATA[20180813135801-PU68S]]></name>
    <trkseg>
      <trkpt lat="45.83692" lon="4.26711">
        <ele>590</ele>
        <time>2018-08-13T06:01:35Z</time>
      </trkpt>
      <trkpt lat="45.83688" lon="4.26706">
        <ele>590</ele>
        <time>2018-08-13T06:01:48Z</time>
      </trkpt>
      <trkpt lat="45.83689" lon="4.26704">
        <ele>590</ele>
        <time>2018-08-13T06:01:54Z</time>
      </trkpt>
      <trkpt lat="45.83693" lon="4.26691">
        <ele>589</ele>
        <time>2018-08-13T06:01:59Z</time>
      </trkpt>
      <trkpt lat="45.83695" lon="4.26683">
        <ele>589</ele>
        <time>2018-08-13T06:02:05Z</time>
      </trkpt>
      <trkpt lat="45.83695" lon="4.26683">
        <ele>589</ele>
        <time>2018-08-13T06:02:11Z</time>
      </trkpt>
      <trkpt lat="45.83699" lon="4.26672">
        <ele>589</ele>
        <time>2018-08-13T06:02:16Z</time>
      </trkpt>
      <trkpt lat="45.83699" lon="4.26672">
        <ele>589</ele>
        <time>2018-08-13T06:02:22Z</time>
      </trkpt>
      <trkpt lat="45.83701" lon="4.26655">
        <ele>584</ele>
        <time>2018-08-13T06:02:28Z</time>
      </trkpt>
      <trkpt lat="45.83699" lon="4.26647">
        <ele>584</ele>
        <time>2018-08-13T06:02:34Z</time>
      </trkpt>
      <trkpt lat="45.83695" lon="4.26638">
        <ele>584</ele>
        <time>2018-08-13T06:02:40Z</time>
      </trkpt>
      <trkpt lat="45.83693" lon="4.2663">
        <ele>583</ele>
        <time>2018-08-13T06:02:46Z</time>
      </trkpt>
      <trkpt lat="45.83694" lon="4.26623">
        <ele>583</ele>
        <time>2018-08-13T06:02:51Z</time>
      </trkpt>
      <trkpt lat="45.837" lon="4.26619">
        <ele>583</ele>
        <time>2018-08-13T06:02:57Z</time>
      </trkpt>
      <trkpt lat="45.83706" lon="4.26614">
        <ele>582</ele>
        <time>2018-08-13T06:03:02Z</time>
      </trkpt>
      <trkpt lat="45.83711" lon="4.2661">
        <ele>582</ele>
        <time>2018-08-13T06:03:08Z</time>
      </trkpt>
      <trkpt lat="45.83716" lon="4.26607">
        <ele>582</ele>
        <time>2018-08-13T06:03:13Z</time>
      </trkpt>
      <trkpt lat="45.83721" lon="4.26602">
        <ele>582</ele>
        <time>2018-08-13T06:03:19Z</time>
      </trkpt>
      <trkpt lat="45.83725" lon="4.26599">
        <ele>582</ele>
        <time>2018-08-13T06:03:24Z</time>
      </trkpt>
      <trkpt lat="45.83729" lon="4.26598">
        <ele>581</ele>
        <time>2018-08-13T06:03:30Z</time>
      </trkpt>
      <trkpt lat="45.83735" lon="4.26591">
        <ele>581</ele>
        <time>2018-08-13T06:03:36Z</time>
      </trkpt>
      <trkpt lat="45.83739" lon="4.26585">
        <ele>580</ele>
        <time>2018-08-13T06:03:41Z</time>
      </trkpt>
      <trkpt lat="45.83742" lon="4.26581">
        <ele>577</ele>
        <time>2018-08-13T06:03:46Z</time>
      </trkpt>
      <trkpt lat="45.8374" lon="4.26574">
        <ele>576</ele>
        <time>2018-08-13T06:03:52Z</time>
      </trkpt>
      <trkpt lat="45.83739" lon="4.26566">
        <ele>575</ele>
        <time>2018-08-13T06:03:57Z</time>
      </trkpt>
      <trkpt lat="45.8374" lon="4.26558">
        <ele>575</ele>
        <time>2018-08-13T06:04:03Z</time>
      </trkpt>
      <trkpt lat="45.83738" lon="4.26551">
        <ele>574</ele>
        <time>2018-08-13T06:04:08Z</time>
      </trkpt>
      <trkpt lat="45.83735" lon="4.26544">
        <ele>573</ele>
        <time>2018-08-13T06:04:14Z</time>
      </trkpt>
      <trkpt lat="45.83736" lon="4.26537">
        <ele>572</ele>
        <time>2018-08-13T06:04:19Z</time>
      </trkpt>
      <trkpt lat="45.83744" lon="4.26532">
        <ele>572</ele>
        <time>2018-08-13T06:04:25Z</time>
      </trkpt>
      <trkpt lat="45.8375" lon="4.26533">
        <ele>572</ele>
        <time>2018-08-13T06:04:30Z</time>
      </trkpt>
      <trkpt lat="45.83756" lon="4.26534">
        <ele>569</ele>
        <time>2018-08-13T06:04:36Z</time>
      </trkpt>
      <trkpt lat="45.83763" lon="4.26535">
        <ele>569</ele>
        <time>2018-08-13T06:04:42Z</time>
      </trkpt>
      <trkpt lat="45.8377" lon="4.26538">
        <ele>569</ele>
        <time>2018-08-13T06:04:48Z</time>
      </trkpt>
      <trkpt lat="45.83774" lon="4.26542">
        <ele>569</ele>
        <time>2018-08-13T06:04:54Z</time>
      </trkpt>
      <trkpt lat="45.8378" lon="4.26545">
        <ele>569</ele>
        <time>2018-08-13T06:04:59Z</time>
      </trkpt>
      <trkpt lat="45.83786" lon="4.26548">
        <ele>569</ele>
        <time>2018-08-13T06:05:05Z</time>
      </trkpt>
      <trkpt lat="45.83792" lon="4.26549">
        <ele>569</ele>
        <time>2018-08-13T06:05:11Z</time>
      </trkpt>
      <trkpt lat="45.838" lon="4.26555">
        <ele>569</ele>
        <time>2018-08-13T06:05:17Z</time>
      </trkpt>
      <trkpt lat="45.83804" lon="4.26558">
        <ele>569</ele>
        <time>2018-08-13T06:05:22Z</time>
      </trkpt>
      <trkpt lat="45.8381" lon="4.26561">
        <ele>568</ele>
        <time>2018-08-13T06:05:28Z</time>
      </trkpt>
      <trkpt lat="45.83817" lon="4.2657">
        <ele>568</ele>
        <time>2018-08-13T06:05:34Z</time>
      </trkpt>
      <trkpt lat="45.83822" lon="4.26574">
        <ele>568</ele>
        <time>2018-08-13T06:05:40Z</time>
      </trkpt>
      <trkpt lat="45.83828" lon="4.26578">
        <ele>567</ele>
        <time>2018-08-13T06:05:46Z</time>
      </trkpt>
      <trkpt lat="45.83834" lon="4.26582">
        <ele>567</ele>
        <time>2018-08-13T06:05:51Z</time>
      </trkpt>
      <trkpt lat="45.83841" lon="4.26582">
        <ele>567</ele>
        <time>2018-08-13T06:05:57Z</time>
      </trkpt>
      <trkpt lat="45.83845" lon="4.26581">
        <ele>567</ele>
        <time>2018-08-13T06:06:02Z</time>
      </trkpt>
      <trkpt lat="45.83849" lon="4.26578">
        <ele>567</ele>
        <time>2018-08-13T06:06:07Z</time>
      </trkpt>
      <trkpt lat="45.83855" lon="4.26576">
        <ele>567</ele>
        <time>2018-08-13T06:06:12Z</time>
      </trkpt>
      <trkpt lat="45.83862" lon="4.26575">
        <ele>567</ele>
        <time>2018-08-13T06:06:18Z</time>
      </trkpt>
      <trkpt lat="45.83869" lon="4.26574">
        <ele>567</ele>
        <time>2018-08-13T06:06:24Z</time>
      </trkpt>
      <trkpt lat="45.83874" lon="4.26573">
        <ele>567</ele>
        <time>2018-08-13T06:06:29Z</time>
      </trkpt>
      <trkpt lat="45.8388" lon="4.26573">
        <ele>567</ele>
        <time>2018-08-13T06:06:35Z</time>
      </trkpt>
      <trkpt lat="45.83884" lon="4.26572">
        <ele>567</ele>
        <time>2018-08-13T06:06:40Z</time>
      </trkpt>
      <trkpt lat="45.83882" lon="4.26567">
        <ele>567</ele>
        <time>2018-08-13T06:06:46Z</time>
      </trkpt>
      <trkpt lat="45.83878" lon="4.26562">
        <ele>567</ele>
        <time>2018-08-13T06:06:52Z</time>
      </trkpt>
      <trkpt lat="45.83875" lon="4.26554">
        <ele>567</ele>
        <time>2018-08-13T06:06:57Z</time>
      </trkpt>
      <trkpt lat="45.8387" lon="4.26545">
        <ele>566</ele>
        <time>2018-08-13T06:07:02Z</time>
      </trkpt>
      <trkpt lat="45.83865" lon="4.26538">
        <ele>566</ele>
        <time>2018-08-13T06:07:08Z</time>
      </trkpt>
      <trkpt lat="45.83861" lon="4.26531">
        <ele>566</ele>
        <time>2018-08-13T06:07:13Z</time>
      </trkpt>
      <trkpt lat="45.83858" lon="4.26527">
        <ele>566</ele>
        <time>2018-08-13T06:07:19Z</time>
      </trkpt>
      <trkpt lat="45.83855" lon="4.26522">
        <ele>565</ele>
        <time>2018-08-13T06:07:24Z</time>
      </trkpt>
      <trkpt lat="45.83849" lon="4.26516">
        <ele>565</ele>
        <time>2018-08-13T06:07:29Z</time>
      </trkpt>
      <trkpt lat="45.83843" lon="4.26511">
        <ele>564</ele>
        <time>2018-08-13T06:07:35Z</time>
      </trkpt>
      <trkpt lat="45.8384" lon="4.26504">
        <ele>563</ele>
        <time>2018-08-13T06:07:40Z</time>
      </trkpt>
      <trkpt lat="45.83835" lon="4.26495">
        <ele>563</ele>
        <time>2018-08-13T06:07:46Z</time>
      </trkpt>
      <trkpt lat="45.83832" lon="4.26487">
        <ele>562</ele>
        <time>2018-08-13T06:07:51Z</time>
      </trkpt>
      <trkpt lat="45.83833" lon="4.26475">
        <ele>563</ele>
        <time>2018-08-13T06:07:57Z</time>
      </trkpt>
      <trkpt lat="45.83834" lon="4.26467">
        <ele>566</ele>
        <time>2018-08-13T06:08:02Z</time>
      </trkpt>
      <trkpt lat="45.83835" lon="4.26456">
        <ele>566</ele>
        <time>2018-08-13T06:08:08Z</time>
      </trkpt>
      <trkpt lat="45.83835" lon="4.26448">
        <ele>566</ele>
        <time>2018-08-13T06:08:13Z</time>
      </trkpt>
      <trkpt lat="45.83836" lon="4.26443">
        <ele>566</ele>
        <time>2018-08-13T06:08:18Z</time>
      </trkpt>
      <trkpt lat="45.83837" lon="4.2643">
        <ele>566</ele>
        <time>2018-08-13T06:08:24Z</time>
      </trkpt>
      <trkpt lat="45.83839" lon="4.2642">
        <ele>566</ele>
        <time>2018-08-13T06:08:30Z</time>
      </trkpt>
      <trkpt lat="45.83839" lon="4.26414">
        <ele>567</ele>
        <time>2018-08-13T06:08:35Z</time>
      </trkpt>
      <trkpt lat="45.8384" lon="4.26401">
        <ele>569</ele>
        <time>2018-08-13T06:08:41Z</time>
      </trkpt>
      <trkpt lat="45.83841" lon="4.26392">
        <ele>570</ele>
        <time>2018-08-13T06:08:46Z</time>
      </trkpt>
      <trkpt lat="45.83842" lon="4.26385">
        <ele>570</ele>
        <time>2018-08-13T06:08:51Z</time>
      </trkpt>
      <trkpt lat="45.83843" lon="4.26375">
        <ele>571</ele>
        <time>2018-08-13T06:08:57Z</time>
      </trkpt>
      <trkpt lat="45.83844" lon="4.26366">
        <ele>571</ele>
        <time>2018-08-13T06:09:02Z</time>
      </trkpt>
      <trkpt lat="45.83843" lon="4.26358">
        <ele>571</ele>
        <time>2018-08-13T06:09:08Z</time>
      </trkpt>
      <trkpt lat="45.8384" lon="4.26347">
        <ele>571</ele>
        <time>2018-08-13T06:09:14Z</time>
      </trkpt>
      <trkpt lat="45.83839" lon="4.26337">
        <ele>571</ele>
        <time>2018-08-13T06:09:20Z</time>
      </trkpt>
      <trkpt lat="45.8384" lon="4.26327">
        <ele>572</ele>
        <time>2018-08-13T06:09:26Z</time>
      </trkpt>
      <trkpt lat="45.83842" lon="4.26316">
        <ele>574</ele>
        <time>2018-08-13T06:09:32Z</time>
      </trkpt>
      <trkpt lat="45.83845" lon="4.26304">
        <ele>575</ele>
        <time>2018-08-13T06:09:38Z</time>
      </trkpt>
      <trkpt lat="45.83847" lon="4.26298">
        <ele>575</ele>
        <time>2018-08-13T06:09:43Z</time>
      </trkpt>
      <trkpt lat="45.8385" lon="4.26291">
        <ele>575</ele>
        <time>2018-08-13T06:09:48Z</time>
      </trkpt>
      <trkpt lat="45.83855" lon="4.2628">
        <ele>576</ele>
        <time>2018-08-13T06:09:54Z</time>
      </trkpt>
      <trkpt lat="45.83859" lon="4.26272">
        <ele>576</ele>
        <time>2018-08-13T06:10:00Z</time>
      </trkpt>
      <trkpt lat="45.83864" lon="4.26261">
        <ele>576</ele>
        <time>2018-08-13T06:10:06Z</time>
      </trkpt>
      <trkpt lat="45.83867" lon="4.26251">
        <ele>577</ele>
        <time>2018-08-13T06:10:12Z</time>
      </trkpt>
      <trkpt lat="45.83871" lon="4.2624">
        <ele>580</ele>
        <time>2018-08-13T06:10:18Z</time>
      </trkpt>
      <trkpt lat="45.8387" lon="4.26233">
        <ele>580</ele>
        <time>2018-08-13T06:10:24Z</time>
      </trkpt>
      <trkpt lat="45.8387" lon="4.26223">
        <ele>580</ele>
        <time>2018-08-13T06:10:30Z</time>
      </trkpt>
      <trkpt lat="45.83868" lon="4.26216">
        <ele>580</ele>
        <time>2018-08-13T06:10:36Z</time>
      </trkpt>
      <trkpt lat="45.83868" lon="4.26206">
        <ele>580</ele>
        <time>2018-08-13T06:10:41Z</time>
      </trkpt>
      <trkpt lat="45.83865" lon="4.26197">
        <ele>581</ele>
        <time>2018-08-13T06:10:46Z</time>
      </trkpt>
      <trkpt lat="45.83863" lon="4.2619">
        <ele>581</ele>
        <time>2018-08-13T06:10:51Z</time>
      </trkpt>
      <trkpt lat="45.83859" lon="4.2618">
        <ele>581</ele>
        <time>2018-08-13T06:10:57Z</time>
      </trkpt>
      <trkpt lat="45.83857" lon="4.26173">
        <ele>581</ele>
        <time>2018-08-13T06:11:02Z</time>
      </trkpt>
      <trkpt lat="45.83856" lon="4.26168">
        <ele>581</ele>
        <time>2018-08-13T06:11:08Z</time>
      </trkpt>
      <trkpt lat="45.83854" lon="4.26158">
        <ele>584</ele>
        <time>2018-08-13T06:11:14Z</time>
      </trkpt>
      <trkpt lat="45.83853" lon="4.26152">
        <ele>584</ele>
        <time>2018-08-13T06:11:19Z</time>
      </trkpt>
      <trkpt lat="45.8385" lon="4.26147">
        <ele>584</ele>
        <time>2018-08-13T06:11:24Z</time>
      </trkpt>
      <trkpt lat="45.83846" lon="4.2614">
        <ele>585</ele>
        <time>2018-08-13T06:11:29Z</time>
      </trkpt>
      <trkpt lat="45.83843" lon="4.26132">
        <ele>585</ele>
        <time>2018-08-13T06:11:35Z</time>
      </trkpt>
      <trkpt lat="45.8384" lon="4.26126">
        <ele>585</ele>
        <time>2018-08-13T06:11:41Z</time>
      </trkpt>
      <trkpt lat="45.83836" lon="4.26119">
        <ele>585</ele>
        <time>2018-08-13T06:11:47Z</time>
      </trkpt>
      <trkpt lat="45.83834" lon="4.26113">
        <ele>586</ele>
        <time>2018-08-13T06:11:52Z</time>
      </trkpt>
      <trkpt lat="45.83831" lon="4.26104">
        <ele>583</ele>
        <time>2018-08-13T06:11:58Z</time>
      </trkpt>
      <trkpt lat="45.83827" lon="4.26095">
        <ele>584</ele>
        <time>2018-08-13T06:12:04Z</time>
      </trkpt>
      <trkpt lat="45.83823" lon="4.26087">
        <ele>584</ele>
        <time>2018-08-13T06:12:10Z</time>
      </trkpt>
      <trkpt lat="45.83822" lon="4.2608">
        <ele>586</ele>
        <time>2018-08-13T06:12:15Z</time>
      </trkpt>
      <trkpt lat="45.83819" lon="4.26074">
        <ele>587</ele>
        <time>2018-08-13T06:12:20Z</time>
      </trkpt>
      <trkpt lat="45.83817" lon="4.26068">
        <ele>587</ele>
        <time>2018-08-13T06:12:26Z</time>
      </trkpt>
      <trkpt lat="45.83813" lon="4.26061">
        <ele>588</ele>
        <time>2018-08-13T06:12:32Z</time>
      </trkpt>
      <trkpt lat="45.83809" lon="4.26053">
        <ele>588</ele>
        <time>2018-08-13T06:12:38Z</time>
      </trkpt>
      <trkpt lat="45.83807" lon="4.26047">
        <ele>589</ele>
        <time>2018-08-13T06:12:44Z</time>
      </trkpt>
      <trkpt lat="45.83805" lon="4.26038">
        <ele>589</ele>
        <time>2018-08-13T06:12:50Z</time>
      </trkpt>
      <trkpt lat="45.83804" lon="4.2603">
        <ele>590</ele>
        <time>2018-08-13T06:12:55Z</time>
      </trkpt>
      <trkpt lat="45.83803" lon="4.26021">
        <ele>590</ele>
        <time>2018-08-13T06:13:01Z</time>
      </trkpt>
      <trkpt lat="45.83801" lon="4.26015">
        <ele>590</ele>
        <time>2018-08-13T06:13:06Z</time>
      </trkpt>
      <trkpt lat="45.83799" lon="4.26005">
        <ele>590</ele>
        <time>2018-08-13T06:13:12Z</time>
      </trkpt>
      <trkpt lat="45.83798" lon="4.25999">
        <ele>592</ele>
        <time>2018-08-13T06:13:18Z</time>
      </trkpt>
      <trkpt lat="45.83798" lon="4.25993">
        <ele>592</ele>
        <time>2018-08-13T06:13:24Z</time>
      </trkpt>
      <trkpt lat="45.83797" lon="4.25989">
        <ele>592</ele>
        <time>2018-08-13T06:13:30Z</time>
      </trkpt>
      <trkpt lat="45.83798" lon="4.25987">
        <ele>592</ele>
        <time>2018-08-13T06:13:36Z</time>
      </trkpt>
      <trkpt lat="45.83799" lon="4.25987">
        <ele>592</ele>
        <time>2018-08-13T06:13:42Z</time>
      </trkpt>
      <trkpt lat="45.83799" lon="4.25987">
        <ele>592</ele>
        <time>2018-08-13T06:13:48Z</time>
      </trkpt>
      <trkpt lat="45.83798" lon="4.25989">
        <ele>592</ele>
        <time>2018-08-13T06:13:54Z</time>
      </trkpt>
      <trkpt lat="45.83797" lon="4.25992">
        <ele>592</ele>
        <time>2018-08-13T06:13:59Z</time>
      </trkpt>
      <trkpt lat="45.83797" lon="4.25989">
        <ele>592</ele>
        <time>2018-08-13T06:14:05Z</time>
      </trkpt>
      <trkpt lat="45.83797" lon="4.25989">
        <ele>592</ele>
        <time>2018-08-13T06:14:11Z</time>
      </trkpt>
      <trkpt lat="45.83797" lon="4.25993">
        <ele>592</ele>
        <time>2018-08-13T06:14:16Z</time>
      </trkpt>
      <trkpt lat="45.83798" lon="4.25994">
        <ele>592</ele>
        <time>2018-08-13T06:14:22Z</time>
      </trkpt>
      <trkpt lat="45.83799" lon="4.25994">
        <ele>592</ele>
        <time>2018-08-13T06:14:28Z</time>
      </trkpt>
      <trkpt lat="45.83797" lon="4.25994">
        <ele>592</ele>
        <time>2018-08-13T06:14:34Z</time>
      </trkpt>
      <trkpt lat="45.83796" lon="4.25992">
        <ele>592</ele>
        <time>2018-08-13T06:14:40Z</time>
      </trkpt>
      <trkpt lat="45.83797" lon="4.25992">
        <ele>592</ele>
        <time>2018-08-13T06:14:46Z</time>
      </trkpt>
      <trkpt lat="45.83797" lon="4.25991">
        <ele>592</ele>
        <time>2018-08-13T06:14:52Z</time>
      </trkpt>
      <trkpt lat="45.83795" lon="4.2599">
        <ele>592</ele>
        <time>2018-08-13T06:14:58Z</time>
      </trkpt>
      <trkpt lat="45.8379" lon="4.2599">
        <ele>591</ele>
        <time>2018-08-13T06:15:04Z</time>
      </trkpt>
      <trkpt lat="45.83783" lon="4.25987">
        <ele>591</ele>
        <time>2018-08-13T06:15:10Z</time>
      </trkpt>
      <trkpt lat="45.83777" lon="4.25984">
        <ele>591</ele>
        <time>2018-08-13T06:15:15Z</time>
      </trkpt>
      <trkpt lat="45.83771" lon="4.25979">
        <ele>591</ele>
        <time>2018-08-13T06:15:21Z</time>
      </trkpt>
      <trkpt lat="45.83766" lon="4.25977">
        <ele>591</ele>
        <time>2018-08-13T06:15:27Z</time>
      </trkpt>
      <trkpt lat="45.83759" lon="4.25973">
        <ele>591</ele>
        <time>2018-08-13T06:15:33Z</time>
      </trkpt>
      <trkpt lat="45.83755" lon="4.25969">
        <ele>591</ele>
        <time>2018-08-13T06:15:38Z</time>
      </trkpt>
      <trkpt lat="45.83751" lon="4.25967">
        <ele>591</ele>
        <time>2018-08-13T06:15:44Z</time>
      </trkpt>
      <trkpt lat="45.83744" lon="4.25963">
        <ele>589</ele>
        <time>2018-08-13T06:15:49Z</time>
      </trkpt>
      <trkpt lat="45.83738" lon="4.25957">
        <ele>588</ele>
        <time>2018-08-13T06:15:55Z</time>
      </trkpt>
      <trkpt lat="45.83732" lon="4.25953">
        <ele>588</ele>
        <time>2018-08-13T06:16:00Z</time>
      </trkpt>
      <trkpt lat="45.83727" lon="4.25949">
        <ele>588</ele>
        <time>2018-08-13T06:16:06Z</time>
      </trkpt>
      <trkpt lat="45.83722" lon="4.25944">
        <ele>588</ele>
        <time>2018-08-13T06:16:12Z</time>
      </trkpt>
      <trkpt lat="45.83717" lon="4.25942">
        <ele>588</ele>
        <time>2018-08-13T06:16:17Z</time>
      </trkpt>
      <trkpt lat="45.83713" lon="4.25937">
        <ele>588</ele>
        <time>2018-08-13T06:16:23Z</time>
      </trkpt>
      <trkpt lat="45.83708" lon="4.25935">
        <ele>587</ele>
        <time>2018-08-13T06:16:28Z</time>
      </trkpt>
      <trkpt lat="45.83701" lon="4.25931">
        <ele>587</ele>
        <time>2018-08-13T06:16:34Z</time>
      </trkpt>
      <trkpt lat="45.83694" lon="4.25927">
        <ele>587</ele>
        <time>2018-08-13T06:16:40Z</time>
      </trkpt>
      <trkpt lat="45.83689" lon="4.25923">
        <ele>587</ele>
        <time>2018-08-13T06:16:45Z</time>
      </trkpt>
      <trkpt lat="45.83684" lon="4.2592">
        <ele>586</ele>
        <time>2018-08-13T06:16:51Z</time>
      </trkpt>
      <trkpt lat="45.83679" lon="4.25916">
        <ele>584</ele>
        <time>2018-08-13T06:16:56Z</time>
      </trkpt>
      <trkpt lat="45.83674" lon="4.25912">
        <ele>584</ele>
        <time>2018-08-13T06:17:01Z</time>
      </trkpt>
      <trkpt lat="45.83667" lon="4.25909">
        <ele>584</ele>
        <time>2018-08-13T06:17:07Z</time>
      </trkpt>
      <trkpt lat="45.8366" lon="4.25905">
        <ele>583</ele>
        <time>2018-08-13T06:17:12Z</time>
      </trkpt>
      <trkpt lat="45.83656" lon="4.25902">
        <ele>583</ele>
        <time>2018-08-13T06:17:18Z</time>
      </trkpt>
      <trkpt lat="45.83649" lon="4.25897">
        <ele>582</ele>
        <time>2018-08-13T06:17:24Z</time>
      </trkpt>
      <trkpt lat="45.83642" lon="4.25892">
        <ele>581</ele>
        <time>2018-08-13T06:17:30Z</time>
      </trkpt>
      <trkpt lat="45.83638" lon="4.25889">
        <ele>581</ele>
        <time>2018-08-13T06:17:36Z</time>
      </trkpt>
      <trkpt lat="45.83633" lon="4.25886">
        <ele>581</ele>
        <time>2018-08-13T06:17:42Z</time>
      </trkpt>
      <trkpt lat="45.83627" lon="4.25884">
        <ele>581</ele>
        <time>2018-08-13T06:17:47Z</time>
      </trkpt>
      <trkpt lat="45.83621" lon="4.2588">
        <ele>581</ele>
        <time>2018-08-13T06:17:53Z</time>
      </trkpt>
      <trkpt lat="45.83615" lon="4.25877">
        <ele>581</ele>
        <time>2018-08-13T06:17:58Z</time>
      </trkpt>
      <trkpt lat="45.8361" lon="4.25873">
        <ele>580</ele>
        <time>2018-08-13T06:18:04Z</time>
      </trkpt>
      <trkpt lat="45.83605" lon="4.25869">
        <ele>580</ele>
        <time>2018-08-13T06:18:09Z</time>
      </trkpt>
      <trkpt lat="45.83597" lon="4.25865">
        <ele>580</ele>
        <time>2018-08-13T06:18:15Z</time>
      </trkpt>
      <trkpt lat="45.83593" lon="4.25862">
        <ele>580</ele>
        <time>2018-08-13T06:18:20Z</time>
      </trkpt>
      <trkpt lat="45.83585" lon="4.25858">
        <ele>580</ele>
        <time>2018-08-13T06:18:26Z</time>
      </trkpt>
      <trkpt lat="45.8358" lon="4.25854">
        <ele>578</ele>
        <time>2018-08-13T06:18:32Z</time>
      </trkpt>
      <trkpt lat="45.83575" lon="4.25851">
        <ele>578</ele>
        <time>2018-08-13T06:18:37Z</time>
      </trkpt>
      <trkpt lat="45.83568" lon="4.25848">
        <ele>578</ele>
        <time>2018-08-13T06:18:43Z</time>
      </trkpt>
      <trkpt lat="45.83563" lon="4.25845">
        <ele>577</ele>
        <time>2018-08-13T06:18:50Z</time>
      </trkpt>
      <trkpt lat="45.83557" lon="4.25839">
        <ele>577</ele>
        <time>2018-08-13T06:18:55Z</time>
      </trkpt>
      <trkpt lat="45.83551" lon="4.25836">
        <ele>577</ele>
        <time>2018-08-13T06:19:01Z</time>
      </trkpt>
      <trkpt lat="45.83545" lon="4.25834">
        <ele>577</ele>
        <time>2018-08-13T06:19:06Z</time>
      </trkpt>
      <trkpt lat="45.8354" lon="4.2583">
        <ele>574</ele>
        <time>2018-08-13T06:19:11Z</time>
      </trkpt>
      <trkpt lat="45.83534" lon="4.25824">
        <ele>574</ele>
        <time>2018-08-13T06:19:17Z</time>
      </trkpt>
      <trkpt lat="45.8353" lon="4.25821">
        <ele>574</ele>
        <time>2018-08-13T06:19:23Z</time>
      </trkpt>
      <trkpt lat="45.83524" lon="4.25819">
        <ele>574</ele>
        <time>2018-08-13T06:19:28Z</time>
      </trkpt>
      <trkpt lat="45.83516" lon="4.25814">
        <ele>573</ele>
        <time>2018-08-13T06:19:34Z</time>
      </trkpt>
      <trkpt lat="45.83511" lon="4.25811">
        <ele>573</ele>
        <time>2018-08-13T06:19:40Z</time>
      </trkpt>
      <trkpt lat="45.83504" lon="4.25806">
        <ele>573</ele>
        <time>2018-08-13T06:19:46Z</time>
      </trkpt>
      <trkpt lat="45.83499" lon="4.25804">
        <ele>572</ele>
        <time>2018-08-13T06:19:51Z</time>
      </trkpt>
      <trkpt lat="45.83493" lon="4.258">
        <ele>571</ele>
        <time>2018-08-13T06:19:57Z</time>
      </trkpt>
      <trkpt lat="45.83487" lon="4.25796">
        <ele>571</ele>
        <time>2018-08-13T06:20:03Z</time>
      </trkpt>
      <trkpt lat="45.8348" lon="4.25788">
        <ele>571</ele>
        <time>2018-08-13T06:20:09Z</time>
      </trkpt>
      <trkpt lat="45.83474" lon="4.25784">
        <ele>571</ele>
        <time>2018-08-13T06:20:15Z</time>
      </trkpt>
      <trkpt lat="45.83469" lon="4.25781">
        <ele>571</ele>
        <time>2018-08-13T06:20:20Z</time>
      </trkpt>
      <trkpt lat="45.83465" lon="4.2578">
        <ele>571</ele>
        <time>2018-08-13T06:20:26Z</time>
      </trkpt>
      <trkpt lat="45.83461" lon="4.25775">
        <ele>571</ele>
        <time>2018-08-13T06:20:32Z</time>
      </trkpt>
      <trkpt lat="45.83458" lon="4.25772">
        <ele>570</ele>
        <time>2018-08-13T06:20:37Z</time>
      </trkpt>
      <trkpt lat="45.83458" lon="4.25772">
        <ele>570</ele>
        <time>2018-08-13T06:20:43Z</time>
      </trkpt>
      <trkpt lat="45.83457" lon="4.25772">
        <ele>570</ele>
        <time>2018-08-13T06:20:48Z</time>
      </trkpt>
      <trkpt lat="45.83457" lon="4.25772">
        <ele>570</ele>
        <time>2018-08-13T06:20:54Z</time>
      </trkpt>
      <trkpt lat="45.83457" lon="4.25772">
        <ele>570</ele>
        <time>2018-08-13T06:21:00Z</time>
      </trkpt>
      <trkpt lat="45.83457" lon="4.25772">
        <ele>570</ele>
        <time>2018-08-13T06:21:06Z</time>
      </trkpt>
      <trkpt lat="45.83456" lon="4.25772">
        <ele>570</ele>
        <time>2018-08-13T06:21:12Z</time>
      </trkpt>
      <trkpt lat="45.83455" lon="4.25773">
        <ele>570</ele>
        <time>2018-08-13T06:21:18Z</time>
      </trkpt>
      <trkpt lat="45.83455" lon="4.25774">
        <ele>570</ele>
        <time>2018-08-13T06:21:24Z</time>
      </trkpt>
      <trkpt lat="45.83455" lon="4.25774">
        <ele>570</ele>
        <time>2018-08-13T06:21:29Z</time>
      </trkpt>
      <trkpt lat="45.83454" lon="4.25774">
        <ele>570</ele>
        <time>2018-08-13T06:21:35Z</time>
      </trkpt>
      <trkpt lat="45.83452" lon="4.25772">
        <ele>570</ele>
        <time>2018-08-13T06:21:40Z</time>
      </trkpt>
      <trkpt lat="45.83449" lon="4.25766">
        <ele>570</ele>
        <time>2018-08-13T06:21:45Z</time>
      </trkpt>
      <trkpt lat="45.83444" lon="4.25761">
        <ele>570</ele>
        <time>2018-08-13T06:21:51Z</time>
      </trkpt>
      <trkpt lat="45.8344" lon="4.25755">
        <ele>570</ele>
        <time>2018-08-13T06:21:56Z</time>
      </trkpt>
      <trkpt lat="45.83436" lon="4.25748">
        <ele>569</ele>
        <time>2018-08-13T06:22:02Z</time>
      </trkpt>
      <trkpt lat="45.83432" lon="4.25743">
        <ele>569</ele>
        <time>2018-08-13T06:22:08Z</time>
      </trkpt>
      <trkpt lat="45.83427" lon="4.25736">
        <ele>569</ele>
        <time>2018-08-13T06:22:14Z</time>
      </trkpt>
      <trkpt lat="45.83423" lon="4.2573">
        <ele>568</ele>
        <time>2018-08-13T06:22:19Z</time>
      </trkpt>
      <trkpt lat="45.83418" lon="4.25722">
        <ele>568</ele>
        <time>2018-08-13T06:22:25Z</time>
      </trkpt>
      <trkpt lat="45.83412" lon="4.25716">
        <ele>568</ele>
        <time>2018-08-13T06:22:31Z</time>
      </trkpt>
      <trkpt lat="45.83407" lon="4.25709">
        <ele>567</ele>
        <time>2018-08-13T06:22:37Z</time>
      </trkpt>
      <trkpt lat="45.83401" lon="4.25702">
        <ele>567</ele>
        <time>2018-08-13T06:22:42Z</time>
      </trkpt>
      <trkpt lat="45.83395" lon="4.25697">
        <ele>567</ele>
        <time>2018-08-13T06:22:47Z</time>
      </trkpt>
      <trkpt lat="45.83389" lon="4.2569">
        <ele>567</ele>
        <time>2018-08-13T06:22:53Z</time>
      </trkpt>
      <trkpt lat="45.83383" lon="4.25683">
        <ele>567</ele>
        <time>2018-08-13T06:22:59Z</time>
      </trkpt>
      <trkpt lat="45.83378" lon="4.25676">
        <ele>567</ele>
        <time>2018-08-13T06:23:04Z</time>
      </trkpt>
      <trkpt lat="45.83372" lon="4.2567">
        <ele>567</ele>
        <time>2018-08-13T06:23:10Z</time>
      </trkpt>
      <trkpt lat="45.83367" lon="4.25664">
        <ele>563</ele>
        <time>2018-08-13T06:23:16Z</time>
      </trkpt>
      <trkpt lat="45.83361" lon="4.2566">
        <ele>563</ele>
        <time>2018-08-13T06:23:22Z</time>
      </trkpt>
      <trkpt lat="45.83356" lon="4.25655">
        <ele>563</ele>
        <time>2018-08-13T06:23:27Z</time>
      </trkpt>
      <trkpt lat="45.8335" lon="4.25649">
        <ele>563</ele>
        <time>2018-08-13T06:23:33Z</time>
      </trkpt>
      <trkpt lat="45.83345" lon="4.25641">
        <ele>562</ele>
        <time>2018-08-13T06:23:39Z</time>
      </trkpt>
      <trkpt lat="45.8334" lon="4.25637">
        <ele>562</ele>
        <time>2018-08-13T06:23:45Z</time>
      </trkpt>
      <trkpt lat="45.83334" lon="4.25631">
        <ele>562</ele>
        <time>2018-08-13T06:23:50Z</time>
      </trkpt>
      <trkpt lat="45.83328" lon="4.25626">
        <ele>564</ele>
        <time>2018-08-13T06:23:56Z</time>
      </trkpt>
      <trkpt lat="45.83324" lon="4.25619">
        <ele>564</ele>
        <time>2018-08-13T06:24:01Z</time>
      </trkpt>
      <trkpt lat="45.83319" lon="4.25611">
        <ele>563</ele>
        <time>2018-08-13T06:24:07Z</time>
      </trkpt>
      <trkpt lat="45.83314" lon="4.256">
        <ele>563</ele>
        <time>2018-08-13T06:24:13Z</time>
      </trkpt>
      <trkpt lat="45.83311" lon="4.25593">
        <ele>563</ele>
        <time>2018-08-13T06:24:18Z</time>
      </trkpt>
      <trkpt lat="45.83306" lon="4.25582">
        <ele>559</ele>
        <time>2018-08-13T06:24:23Z</time>
      </trkpt>
      <trkpt lat="45.83303" lon="4.25571">
        <ele>559</ele>
        <time>2018-08-13T06:24:29Z</time>
      </trkpt>
      <trkpt lat="45.833" lon="4.25563">
        <ele>559</ele>
        <time>2018-08-13T06:24:34Z</time>
      </trkpt>
      <trkpt lat="45.83297" lon="4.25555">
        <ele>559</ele>
        <time>2018-08-13T06:24:40Z</time>
      </trkpt>
      <trkpt lat="45.83296" lon="4.25552">
        <ele>559</ele>
        <time>2018-08-13T06:24:46Z</time>
      </trkpt>
      <trkpt lat="45.83294" lon="4.25545">
        <ele>559</ele>
        <time>2018-08-13T06:24:51Z</time>
      </trkpt>
      <trkpt lat="45.83291" lon="4.25537">
        <ele>559</ele>
        <time>2018-08-13T06:24:57Z</time>
      </trkpt>
      <trkpt lat="45.83285" lon="4.25527">
        <ele>558</ele>
        <time>2018-08-13T06:25:03Z</time>
      </trkpt>
      <trkpt lat="45.83281" lon="4.25522">
        <ele>558</ele>
        <time>2018-08-13T06:25:09Z</time>
      </trkpt>
      <trkpt lat="45.83275" lon="4.25514">
        <ele>559</ele>
        <time>2018-08-13T06:25:15Z</time>
      </trkpt>
      <trkpt lat="45.83271" lon="4.25506">
        <ele>559</ele>
        <time>2018-08-13T06:25:20Z</time>
      </trkpt>
      <trkpt lat="45.83267" lon="4.25497">
        <ele>555</ele>
        <time>2018-08-13T06:25:26Z</time>
      </trkpt>
      <trkpt lat="45.83262" lon="4.2549">
        <ele>555</ele>
        <time>2018-08-13T06:25:32Z</time>
      </trkpt>
      <trkpt lat="45.83257" lon="4.25482">
        <ele>555</ele>
        <time>2018-08-13T06:25:38Z</time>
      </trkpt>
      <trkpt lat="45.83254" lon="4.25476">
        <ele>554</ele>
        <time>2018-08-13T06:25:43Z</time>
      </trkpt>
      <trkpt lat="45.83248" lon="4.25468">
        <ele>556</ele>
        <time>2018-08-13T06:25:49Z</time>
      </trkpt>
      <trkpt lat="45.83244" lon="4.2546">
        <ele>555</ele>
        <time>2018-08-13T06:25:55Z</time>
      </trkpt>
      <trkpt lat="45.83239" lon="4.25453">
        <ele>555</ele>
        <time>2018-08-13T06:26:00Z</time>
      </trkpt>
      <trkpt lat="45.83235" lon="4.25446">
        <ele>555</ele>
        <time>2018-08-13T06:26:06Z</time>
      </trkpt>
      <trkpt lat="45.8323" lon="4.25442">
        <ele>554</ele>
        <time>2018-08-13T06:26:11Z</time>
      </trkpt>
      <trkpt lat="45.83224" lon="4.25435">
        <ele>554</ele>
        <time>2018-08-13T06:26:17Z</time>
      </trkpt>
      <trkpt lat="45.83215" lon="4.25432">
        <ele>554</ele>
        <time>2018-08-13T06:26:23Z</time>
      </trkpt>
      <trkpt lat="45.83208" lon="4.25425">
        <ele>554</ele>
        <time>2018-08-13T06:26:29Z</time>
      </trkpt>
      <trkpt lat="45.83202" lon="4.2542">
        <ele>555</ele>
        <time>2018-08-13T06:26:35Z</time>
      </trkpt>
      <trkpt lat="45.83195" lon="4.25416">
        <ele>551</ele>
        <time>2018-08-13T06:26:40Z</time>
      </trkpt>
      <trkpt lat="45.83187" lon="4.25412">
        <ele>551</ele>
        <time>2018-08-13T06:26:46Z</time>
      </trkpt>
      <trkpt lat="45.8318" lon="4.25409">
        <ele>552</ele>
        <time>2018-08-13T06:26:52Z</time>
      </trkpt>
      <trkpt lat="45.83174" lon="4.25406">
        <ele>552</ele>
        <time>2018-08-13T06:26:57Z</time>
      </trkpt>
      <trkpt lat="45.83165" lon="4.25402">
        <ele>553</ele>
        <time>2018-08-13T06:27:03Z</time>
      </trkpt>
      <trkpt lat="45.83159" lon="4.25398">
        <ele>552</ele>
        <time>2018-08-13T06:27:08Z</time>
      </trkpt>
      <trkpt lat="45.83152" lon="4.25395">
        <ele>552</ele>
        <time>2018-08-13T06:27:13Z</time>
      </trkpt>
      <trkpt lat="45.83148" lon="4.25393">
        <ele>552</ele>
        <time>2018-08-13T06:27:19Z</time>
      </trkpt>
      <trkpt lat="45.83142" lon="4.2539">
        <ele>552</ele>
        <time>2018-08-13T06:27:25Z</time>
      </trkpt>
      <trkpt lat="45.83137" lon="4.25388">
        <ele>551</ele>
        <time>2018-08-13T06:27:30Z</time>
      </trkpt>
      <trkpt lat="45.83134" lon="4.25385">
        <ele>551</ele>
        <time>2018-08-13T06:27:36Z</time>
      </trkpt>
      <trkpt lat="45.83128" lon="4.25379">
        <ele>551</ele>
        <time>2018-08-13T06:27:42Z</time>
      </trkpt>
      <trkpt lat="45.83122" lon="4.25373">
        <ele>551</ele>
        <time>2018-08-13T06:27:48Z</time>
      </trkpt>
      <trkpt lat="45.83118" lon="4.2537">
        <ele>551</ele>
        <time>2018-08-13T06:27:53Z</time>
      </trkpt>
      <trkpt lat="45.83112" lon="4.25364">
        <ele>551</ele>
        <time>2018-08-13T06:27:59Z</time>
      </trkpt>
      <trkpt lat="45.83105" lon="4.25359">
        <ele>550</ele>
        <time>2018-08-13T06:28:05Z</time>
      </trkpt>
      <trkpt lat="45.831" lon="4.25356">
        <ele>550</ele>
        <time>2018-08-13T06:28:10Z</time>
      </trkpt>
      <trkpt lat="45.83095" lon="4.25351">
        <ele>550</ele>
        <time>2018-08-13T06:28:16Z</time>
      </trkpt>
      <trkpt lat="45.83088" lon="4.25343">
        <ele>550</ele>
        <time>2018-08-13T06:28:22Z</time>
      </trkpt>
      <trkpt lat="45.83084" lon="4.25339">
        <ele>549</ele>
        <time>2018-08-13T06:28:28Z</time>
      </trkpt>
      <trkpt lat="45.83078" lon="4.25333">
        <ele>549</ele>
        <time>2018-08-13T06:28:34Z</time>
      </trkpt>
      <trkpt lat="45.83074" lon="4.25331">
        <ele>548</ele>
        <time>2018-08-13T06:28:40Z</time>
      </trkpt>
      <trkpt lat="45.83071" lon="4.25329">
        <ele>548</ele>
        <time>2018-08-13T06:28:45Z</time>
      </trkpt>
      <trkpt lat="45.83066" lon="4.25325">
        <ele>548</ele>
        <time>2018-08-13T06:28:51Z</time>
      </trkpt>
      <trkpt lat="45.83059" lon="4.25322">
        <ele>548</ele>
        <time>2018-08-13T06:28:57Z</time>
      </trkpt>
      <trkpt lat="45.83054" lon="4.25319">
        <ele>547</ele>
        <time>2018-08-13T06:29:02Z</time>
      </trkpt>
      <trkpt lat="45.83047" lon="4.25314">
        <ele>547</ele>
        <time>2018-08-13T06:29:08Z</time>
      </trkpt>
      <trkpt lat="45.83041" lon="4.2531">
        <ele>547</ele>
        <time>2018-08-13T06:29:14Z</time>
      </trkpt>
      <trkpt lat="45.83036" lon="4.25306">
        <ele>547</ele>
        <time>2018-08-13T06:29:19Z</time>
      </trkpt>
      <trkpt lat="45.8303" lon="4.25301">
        <ele>547</ele>
        <time>2018-08-13T06:29:25Z</time>
      </trkpt>
      <trkpt lat="45.83024" lon="4.25296">
        <ele>547</ele>
        <time>2018-08-13T06:29:30Z</time>
      </trkpt>
      <trkpt lat="45.83018" lon="4.25291">
        <ele>547</ele>
        <time>2018-08-13T06:29:36Z</time>
      </trkpt>
      <trkpt lat="45.83011" lon="4.25286">
        <ele>546</ele>
        <time>2018-08-13T06:29:42Z</time>
      </trkpt>
      <trkpt lat="45.83007" lon="4.25281">
        <ele>546</ele>
        <time>2018-08-13T06:29:47Z</time>
      </trkpt>
      <trkpt lat="45.83001" lon="4.25276">
        <ele>546</ele>
        <time>2018-08-13T06:29:52Z</time>
      </trkpt>
      <trkpt lat="45.82995" lon="4.25271">
        <ele>544</ele>
        <time>2018-08-13T06:29:58Z</time>
      </trkpt>
      <trkpt lat="45.82992" lon="4.25269">
        <ele>544</ele>
        <time>2018-08-13T06:30:03Z</time>
      </trkpt>
      <trkpt lat="45.82984" lon="4.25265">
        <ele>543</ele>
        <time>2018-08-13T06:30:09Z</time>
      </trkpt>
      <trkpt lat="45.82978" lon="4.25262">
        <ele>543</ele>
        <time>2018-08-13T06:30:14Z</time>
      </trkpt>
      <trkpt lat="45.8297" lon="4.25258">
        <ele>543</ele>
        <time>2018-08-13T06:30:20Z</time>
      </trkpt>
      <trkpt lat="45.82963" lon="4.25256">
        <ele>542</ele>
        <time>2018-08-13T06:30:26Z</time>
      </trkpt>
      <trkpt lat="45.82956" lon="4.25256">
        <ele>542</ele>
        <time>2018-08-13T06:30:31Z</time>
      </trkpt>
      <trkpt lat="45.82951" lon="4.25258">
        <ele>541</ele>
        <time>2018-08-13T06:30:36Z</time>
      </trkpt>
      <trkpt lat="45.82945" lon="4.25258">
        <ele>541</ele>
        <time>2018-08-13T06:30:42Z</time>
      </trkpt>
      <trkpt lat="45.82939" lon="4.25259">
        <ele>541</ele>
        <time>2018-08-13T06:30:48Z</time>
      </trkpt>
      <trkpt lat="45.82931" lon="4.25259">
        <ele>540</ele>
        <time>2018-08-13T06:30:54Z</time>
      </trkpt>
      <trkpt lat="45.82926" lon="4.25259">
        <ele>540</ele>
        <time>2018-08-13T06:30:59Z</time>
      </trkpt>
      <trkpt lat="45.8292" lon="4.25256">
        <ele>539</ele>
        <time>2018-08-13T06:31:05Z</time>
      </trkpt>
      <trkpt lat="45.82915" lon="4.25251">
        <ele>538</ele>
        <time>2018-08-13T06:31:11Z</time>
      </trkpt>
      <trkpt lat="45.82909" lon="4.25247">
        <ele>537</ele>
        <time>2018-08-13T06:31:16Z</time>
      </trkpt>
      <trkpt lat="45.82904" lon="4.2524">
        <ele>537</ele>
        <time>2018-08-13T06:31:22Z</time>
      </trkpt>
      <trkpt lat="45.829" lon="4.25237">
        <ele>537</ele>
        <time>2018-08-13T06:31:27Z</time>
      </trkpt>
      <trkpt lat="45.82896" lon="4.25232">
        <ele>536</ele>
        <time>2018-08-13T06:31:32Z</time>
      </trkpt>
      <trkpt lat="45.8289" lon="4.25225">
        <ele>536</ele>
        <time>2018-08-13T06:31:37Z</time>
      </trkpt>
      <trkpt lat="45.82885" lon="4.25218">
        <ele>536</ele>
        <time>2018-08-13T06:31:42Z</time>
      </trkpt>
      <trkpt lat="45.8288" lon="4.25213">
        <ele>536</ele>
        <time>2018-08-13T06:31:48Z</time>
      </trkpt>
      <trkpt lat="45.82874" lon="4.25209">
        <ele>535</ele>
        <time>2018-08-13T06:31:54Z</time>
      </trkpt>
      <trkpt lat="45.82869" lon="4.25204">
        <ele>535</ele>
        <time>2018-08-13T06:32:00Z</time>
      </trkpt>
      <trkpt lat="45.82864" lon="4.25201">
        <ele>535</ele>
        <time>2018-08-13T06:32:06Z</time>
      </trkpt>
      <trkpt lat="45.82859" lon="4.25198">
        <ele>535</ele>
        <time>2018-08-13T06:32:11Z</time>
      </trkpt>
      <trkpt lat="45.8285" lon="4.25195">
        <ele>535</ele>
        <time>2018-08-13T06:32:17Z</time>
      </trkpt>
      <trkpt lat="45.82842" lon="4.25191">
        <ele>535</ele>
        <time>2018-08-13T06:32:23Z</time>
      </trkpt>
      <trkpt lat="45.82836" lon="4.25188">
        <ele>535</ele>
        <time>2018-08-13T06:32:28Z</time>
      </trkpt>
      <trkpt lat="45.82831" lon="4.25184">
        <ele>532</ele>
        <time>2018-08-13T06:32:34Z</time>
      </trkpt>
      <trkpt lat="45.82826" lon="4.25183">
        <ele>532</ele>
        <time>2018-08-13T06:32:39Z</time>
      </trkpt>
      <trkpt lat="45.82819" lon="4.2518">
        <ele>531</ele>
        <time>2018-08-13T06:32:44Z</time>
      </trkpt>
      <trkpt lat="45.82811" lon="4.25177">
        <ele>531</ele>
        <time>2018-08-13T06:32:51Z</time>
      </trkpt>
      <trkpt lat="45.82805" lon="4.25175">
        <ele>530</ele>
        <time>2018-08-13T06:32:56Z</time>
      </trkpt>
      <trkpt lat="45.82797" lon="4.25172">
        <ele>530</ele>
        <time>2018-08-13T06:33:02Z</time>
      </trkpt>
      <trkpt lat="45.82791" lon="4.25168">
        <ele>529</ele>
        <time>2018-08-13T06:33:07Z</time>
      </trkpt>
      <trkpt lat="45.82785" lon="4.25165">
        <ele>529</ele>
        <time>2018-08-13T06:33:13Z</time>
      </trkpt>
      <trkpt lat="45.82779" lon="4.25163">
        <ele>529</ele>
        <time>2018-08-13T06:33:19Z</time>
      </trkpt>
      <trkpt lat="45.82776" lon="4.25161">
        <ele>528</ele>
        <time>2018-08-13T06:33:24Z</time>
      </trkpt>
      <trkpt lat="45.82772" lon="4.25155">
        <ele>528</ele>
        <time>2018-08-13T06:33:30Z</time>
      </trkpt>
      <trkpt lat="45.82767" lon="4.25152">
        <ele>528</ele>
        <time>2018-08-13T06:33:35Z</time>
      </trkpt>
      <trkpt lat="45.82763" lon="4.2515">
        <ele>528</ele>
        <time>2018-08-13T06:33:40Z</time>
      </trkpt>
      <trkpt lat="45.82757" lon="4.25146">
        <ele>528</ele>
        <time>2018-08-13T06:33:45Z</time>
      </trkpt>
      <trkpt lat="45.82752" lon="4.25139">
        <ele>528</ele>
        <time>2018-08-13T06:33:51Z</time>
      </trkpt>
      <trkpt lat="45.82747" lon="4.25133">
        <ele>524</ele>
        <time>2018-08-13T06:33:56Z</time>
      </trkpt>
      <trkpt lat="45.82742" lon="4.25129">
        <ele>524</ele>
        <time>2018-08-13T06:34:01Z</time>
      </trkpt>
      <trkpt lat="45.82736" lon="4.25125">
        <ele>524</ele>
        <time>2018-08-13T06:34:07Z</time>
      </trkpt>
      <trkpt lat="45.8273" lon="4.25118">
        <ele>524</ele>
        <time>2018-08-13T06:34:13Z</time>
      </trkpt>
      <trkpt lat="45.82726" lon="4.25113">
        <ele>524</ele>
        <time>2018-08-13T06:34:18Z</time>
      </trkpt>
      <trkpt lat="45.82723" lon="4.25109">
        <ele>524</ele>
        <time>2018-08-13T06:34:24Z</time>
      </trkpt>
      <trkpt lat="45.8272" lon="4.25102">
        <ele>524</ele>
        <time>2018-08-13T06:34:30Z</time>
      </trkpt>
      <trkpt lat="45.82716" lon="4.25098">
        <ele>523</ele>
        <time>2018-08-13T06:34:36Z</time>
      </trkpt>
      <trkpt lat="45.82709" lon="4.25091">
        <ele>523</ele>
        <time>2018-08-13T06:34:41Z</time>
      </trkpt>
      <trkpt lat="45.82703" lon="4.25084">
        <ele>523</ele>
        <time>2018-08-13T06:34:47Z</time>
      </trkpt>
      <trkpt lat="45.82697" lon="4.25078">
        <ele>523</ele>
        <time>2018-08-13T06:34:53Z</time>
      </trkpt>
      <trkpt lat="45.82692" lon="4.25073">
        <ele>522</ele>
        <time>2018-08-13T06:34:59Z</time>
      </trkpt>
      <trkpt lat="45.82689" lon="4.25065">
        <ele>522</ele>
        <time>2018-08-13T06:35:04Z</time>
      </trkpt>
      <trkpt lat="45.82683" lon="4.25054">
        <ele>522</ele>
        <time>2018-08-13T06:35:10Z</time>
      </trkpt>
      <trkpt lat="45.8268" lon="4.25047">
        <ele>522</ele>
        <time>2018-08-13T06:35:15Z</time>
      </trkpt>
      <trkpt lat="45.82677" lon="4.2504">
        <ele>522</ele>
        <time>2018-08-13T06:35:21Z</time>
      </trkpt>
      <trkpt lat="45.82672" lon="4.25031">
        <ele>522</ele>
        <time>2018-08-13T06:35:26Z</time>
      </trkpt>
      <trkpt lat="45.82669" lon="4.25024">
        <ele>522</ele>
        <time>2018-08-13T06:35:32Z</time>
      </trkpt>
      <trkpt lat="45.82663" lon="4.25016">
        <ele>521</ele>
        <time>2018-08-13T06:35:38Z</time>
      </trkpt>
      <trkpt lat="45.82657" lon="4.2501">
        <ele>521</ele>
        <time>2018-08-13T06:35:44Z</time>
      </trkpt>
      <trkpt lat="45.82653" lon="4.25005">
        <ele>521</ele>
        <time>2018-08-13T06:35:49Z</time>
      </trkpt>
      <trkpt lat="45.82649" lon="4.25">
        <ele>521</ele>
        <time>2018-08-13T06:35:55Z</time>
      </trkpt>
      <trkpt lat="45.82646" lon="4.24995">
        <ele>521</ele>
        <time>2018-08-13T06:36:00Z</time>
      </trkpt>
      <trkpt lat="45.82644" lon="4.24988">
        <ele>521</ele>
        <time>2018-08-13T06:36:06Z</time>
      </trkpt>
      <trkpt lat="45.82637" lon="4.24979">
        <ele>521</ele>
        <time>2018-08-13T06:36:12Z</time>
      </trkpt>
      <trkpt lat="45.82634" lon="4.24972">
        <ele>520</ele>
        <time>2018-08-13T06:36:17Z</time>
      </trkpt>
      <trkpt lat="45.82631" lon="4.24966">
        <ele>520</ele>
        <time>2018-08-13T06:36:22Z</time>
      </trkpt>
      <trkpt lat="45.82628" lon="4.2496">
        <ele>520</ele>
        <time>2018-08-13T06:36:28Z</time>
      </trkpt>
      <trkpt lat="45.82625" lon="4.24955">
        <ele>520</ele>
        <time>2018-08-13T06:36:33Z</time>
      </trkpt>
      <trkpt lat="45.82621" lon="4.24945">
        <ele>520</ele>
        <time>2018-08-13T06:36:39Z</time>
      </trkpt>
      <trkpt lat="45.82619" lon="4.24939">
        <ele>520</ele>
        <time>2018-08-13T06:36:44Z</time>
      </trkpt>
      <trkpt lat="45.82614" lon="4.24932">
        <ele>520</ele>
        <time>2018-08-13T06:36:49Z</time>
      </trkpt>
      <trkpt lat="45.82611" lon="4.24922">
        <ele>520</ele>
        <time>2018-08-13T06:36:54Z</time>
      </trkpt>
      <trkpt lat="45.82605" lon="4.24915">
        <ele>518</ele>
        <time>2018-08-13T06:37:00Z</time>
      </trkpt>
      <trkpt lat="45.826" lon="4.24908">
        <ele>518</ele>
        <time>2018-08-13T06:37:06Z</time>
      </trkpt>
      <trkpt lat="45.82595" lon="4.24902">
        <ele>518</ele>
        <time>2018-08-13T06:37:12Z</time>
      </trkpt>
      <trkpt lat="45.82591" lon="4.24897">
        <ele>518</ele>
        <time>2018-08-13T06:37:17Z</time>
      </trkpt>
      <trkpt lat="45.82585" lon="4.2489">
        <ele>518</ele>
        <time>2018-08-13T06:37:22Z</time>
      </trkpt>
      <trkpt lat="45.82582" lon="4.24885">
        <ele>517</ele>
        <time>2018-08-13T06:37:28Z</time>
      </trkpt>
      <trkpt lat="45.82576" lon="4.24881">
        <ele>517</ele>
        <time>2018-08-13T06:37:33Z</time>
      </trkpt>
      <trkpt lat="45.8257" lon="4.24878">
        <ele>517</ele>
        <time>2018-08-13T06:37:39Z</time>
      </trkpt>
      <trkpt lat="45.82565" lon="4.24876">
        <ele>517</ele>
        <time>2018-08-13T06:37:44Z</time>
      </trkpt>
      <trkpt lat="45.82564" lon="4.24875">
        <ele>517</ele>
        <time>2018-08-13T06:37:49Z</time>
      </trkpt>
      <trkpt lat="45.82563" lon="4.24873">
        <ele>516</ele>
        <time>2018-08-13T06:37:55Z</time>
      </trkpt>
      <trkpt lat="45.82563" lon="4.24873">
        <ele>516</ele>
        <time>2018-08-13T06:38:00Z</time>
      </trkpt>
      <trkpt lat="45.82562" lon="4.24875">
        <ele>517</ele>
        <time>2018-08-13T06:38:06Z</time>
      </trkpt>
      <trkpt lat="45.82562" lon="4.24874">
        <ele>517</ele>
        <time>2018-08-13T06:38:12Z</time>
      </trkpt>
      <trkpt lat="45.82562" lon="4.24876">
        <ele>517</ele>
        <time>2018-08-13T06:38:17Z</time>
      </trkpt>
      <trkpt lat="45.82561" lon="4.24876">
        <ele>517</ele>
        <time>2018-08-13T06:38:22Z</time>
      </trkpt>
      <trkpt lat="45.8256" lon="4.24875">
        <ele>517</ele>
        <time>2018-08-13T06:38:28Z</time>
      </trkpt>
      <trkpt lat="45.82558" lon="4.24876">
        <ele>517</ele>
        <time>2018-08-13T06:38:34Z</time>
      </trkpt>
      <trkpt lat="45.82558" lon="4.24876">
        <ele>517</ele>
        <time>2018-08-13T06:38:40Z</time>
      </trkpt>
      <trkpt lat="45.82558" lon="4.24876">
        <ele>517</ele>
        <time>2018-08-13T06:38:45Z</time>
      </trkpt>
      <trkpt lat="45.82558" lon="4.24877">
        <ele>517</ele>
        <time>2018-08-13T06:38:51Z</time>
      </trkpt>
      <trkpt lat="45.82558" lon="4.24877">
        <ele>517</ele>
        <time>2018-08-13T06:38:56Z</time>
      </trkpt>
      <trkpt lat="45.82558" lon="4.24877">
        <ele>517</ele>
        <time>2018-08-13T06:39:01Z</time>
      </trkpt>
      <trkpt lat="45.82558" lon="4.24876">
        <ele>517</ele>
        <time>2018-08-13T06:39:07Z</time>
      </trkpt>
      <trkpt lat="45.82559" lon="4.24876">
        <ele>517</ele>
        <time>2018-08-13T06:39:12Z</time>
      </trkpt>
      <trkpt lat="45.82559" lon="4.24876">
        <ele>517</ele>
        <time>2018-08-13T06:39:17Z</time>
      </trkpt>
      <trkpt lat="45.8256" lon="4.24877">
        <ele>517</ele>
        <time>2018-08-13T06:39:23Z</time>
      </trkpt>
      <trkpt lat="45.8256" lon="4.24877">
        <ele>517</ele>
        <time>2018-08-13T06:39:28Z</time>
      </trkpt>
      <trkpt lat="45.82559" lon="4.24877">
        <ele>517</ele>
        <time>2018-08-13T06:39:34Z</time>
      </trkpt>
      <trkpt lat="45.82559" lon="4.24877">
        <ele>517</ele>
        <time>2018-08-13T06:39:39Z</time>
      </trkpt>
      <trkpt lat="45.82558" lon="4.24877">
        <ele>517</ele>
        <time>2018-08-13T06:39:44Z</time>
      </trkpt>
      <trkpt lat="45.82558" lon="4.24877">
        <ele>517</ele>
        <time>2018-08-13T06:39:50Z</time>
      </trkpt>
      <trkpt lat="45.82559" lon="4.24876">
        <ele>517</ele>
        <time>2018-08-13T06:39:56Z</time>
      </trkpt>
      <trkpt lat="45.82559" lon="4.24875">
        <ele>516</ele>
        <time>2018-08-13T06:40:01Z</time>
      </trkpt>
      <trkpt lat="45.82559" lon="4.24875">
        <ele>516</ele>
        <time>2018-08-13T06:40:07Z</time>
      </trkpt>
      <trkpt lat="45.82558" lon="4.24876">
        <ele>517</ele>
        <time>2018-08-13T06:40:12Z</time>
      </trkpt>
      <trkpt lat="45.82559" lon="4.24876">
        <ele>517</ele>
        <time>2018-08-13T06:40:18Z</time>
      </trkpt>
      <trkpt lat="45.8256" lon="4.24877">
        <ele>517</ele>
        <time>2018-08-13T06:40:24Z</time>
      </trkpt>
      <trkpt lat="45.8256" lon="4.24877">
        <ele>517</ele>
        <time>2018-08-13T06:40:29Z</time>
      </trkpt>
      <trkpt lat="45.82561" lon="4.24876">
        <ele>517</ele>
        <time>2018-08-13T06:40:35Z</time>
      </trkpt>
      <trkpt lat="45.82561" lon="4.24876">
        <ele>517</ele>
        <time>2018-08-13T06:40:40Z</time>
      </trkpt>
      <trkpt lat="45.82561" lon="4.24875">
        <ele>517</ele>
        <time>2018-08-13T06:40:46Z</time>
      </trkpt>
      <trkpt lat="45.8256" lon="4.24876">
        <ele>517</ele>
        <time>2018-08-13T06:40:52Z</time>
      </trkpt>
      <trkpt lat="45.8256" lon="4.24877">
        <ele>517</ele>
        <time>2018-08-13T06:40:57Z</time>
      </trkpt>
      <trkpt lat="45.82561" lon="4.24878">
        <ele>517</ele>
        <time>2018-08-13T06:41:03Z</time>
      </trkpt>
      <trkpt lat="45.82562" lon="4.24878">
        <ele>517</ele>
        <time>2018-08-13T06:41:09Z</time>
      </trkpt>
      <trkpt lat="45.82562" lon="4.24878">
        <ele>517</ele>
        <time>2018-08-13T06:41:14Z</time>
      </trkpt>
      <trkpt lat="45.82562" lon="4.24877">
        <ele>517</ele>
        <time>2018-08-13T06:41:20Z</time>
      </trkpt>
      <trkpt lat="45.82562" lon="4.24876">
        <ele>517</ele>
        <time>2018-08-13T06:41:26Z</time>
      </trkpt>
      <trkpt lat="45.82562" lon="4.24876">
        <ele>517</ele>
        <time>2018-08-13T06:41:31Z</time>
      </trkpt>
      <trkpt lat="45.82562" lon="4.24875">
        <ele>517</ele>
        <time>2018-08-13T06:41:37Z</time>
      </trkpt>
      <trkpt lat="45.82562" lon="4.24876">
        <ele>517</ele>
        <time>2018-08-13T06:41:42Z</time>
      </trkpt>
      <trkpt lat="45.82561" lon="4.24876">
        <ele>517</ele>
        <time>2018-08-13T06:41:48Z</time>
      </trkpt>
      <trkpt lat="45.8256" lon="4.24875">
        <ele>517</ele>
        <time>2018-08-13T06:41:53Z</time>
      </trkpt>
      <trkpt lat="45.82557" lon="4.24873">
        <ele>516</ele>
        <time>2018-08-13T06:41:59Z</time>
      </trkpt>
      <trkpt lat="45.82552" lon="4.24871">
        <ele>516</ele>
        <time>2018-08-13T06:42:04Z</time>
      </trkpt>
      <trkpt lat="45.82548" lon="4.24867">
        <ele>516</ele>
        <time>2018-08-13T06:42:10Z</time>
      </trkpt>
      <trkpt lat="45.82544" lon="4.24867">
        <ele>516</ele>
        <time>2018-08-13T06:42:15Z</time>
      </trkpt>
      <trkpt lat="45.82538" lon="4.24862">
        <ele>516</ele>
        <time>2018-08-13T06:42:21Z</time>
      </trkpt>
      <trkpt lat="45.8253" lon="4.24856">
        <ele>516</ele>
        <time>2018-08-13T06:42:27Z</time>
      </trkpt>
      <trkpt lat="45.82527" lon="4.24851">
        <ele>516</ele>
        <time>2018-08-13T06:42:33Z</time>
      </trkpt>
      <trkpt lat="45.82525" lon="4.24848">
        <ele>516</ele>
        <time>2018-08-13T06:42:39Z</time>
      </trkpt>
      <trkpt lat="45.82524" lon="4.24846">
        <ele>516</ele>
        <time>2018-08-13T06:42:45Z</time>
      </trkpt>
      <trkpt lat="45.82524" lon="4.24847">
        <ele>516</ele>
        <time>2018-08-13T06:42:50Z</time>
      </trkpt>
      <trkpt lat="45.82524" lon="4.24846">
        <ele>516</ele>
        <time>2018-08-13T06:42:56Z</time>
      </trkpt>
      <trkpt lat="45.82522" lon="4.24846">
        <ele>516</ele>
        <time>2018-08-13T06:43:02Z</time>
      </trkpt>
      <trkpt lat="45.82521" lon="4.24845">
        <ele>516</ele>
        <time>2018-08-13T06:43:07Z</time>
      </trkpt>
      <trkpt lat="45.82519" lon="4.2484">
        <ele>516</ele>
        <time>2018-08-13T06:43:12Z</time>
      </trkpt>
      <trkpt lat="45.82514" lon="4.24836">
        <ele>515</ele>
        <time>2018-08-13T06:43:18Z</time>
      </trkpt>
      <trkpt lat="45.82509" lon="4.2483">
        <ele>515</ele>
        <time>2018-08-13T06:43:23Z</time>
      </trkpt>
      <trkpt lat="45.82505" lon="4.24824">
        <ele>515</ele>
        <time>2018-08-13T06:43:29Z</time>
      </trkpt>
      <trkpt lat="45.82501" lon="4.24816">
        <ele>515</ele>
        <time>2018-08-13T06:43:35Z</time>
      </trkpt>
      <trkpt lat="45.82497" lon="4.24809">
        <ele>513</ele>
        <time>2018-08-13T06:43:40Z</time>
      </trkpt>
      <trkpt lat="45.82494" lon="4.24803">
        <ele>513</ele>
        <time>2018-08-13T06:43:46Z</time>
      </trkpt>
      <trkpt lat="45.82489" lon="4.24797">
        <ele>512</ele>
        <time>2018-08-13T06:43:51Z</time>
      </trkpt>
      <trkpt lat="45.82485" lon="4.2479">
        <ele>512</ele>
        <time>2018-08-13T06:43:57Z</time>
      </trkpt>
      <trkpt lat="45.82483" lon="4.24784">
        <ele>512</ele>
        <time>2018-08-13T06:44:03Z</time>
      </trkpt>
      <trkpt lat="45.82478" lon="4.24775">
        <ele>512</ele>
        <time>2018-08-13T06:44:09Z</time>
      </trkpt>
      <trkpt lat="45.82474" lon="4.24767">
        <ele>512</ele>
        <time>2018-08-13T06:44:15Z</time>
      </trkpt>
      <trkpt lat="45.8247" lon="4.24758">
        <ele>512</ele>
        <time>2018-08-13T06:44:21Z</time>
      </trkpt>
      <trkpt lat="45.82467" lon="4.24753">
        <ele>512</ele>
        <time>2018-08-13T06:44:27Z</time>
      </trkpt>
      <trkpt lat="45.82464" lon="4.24748">
        <ele>512</ele>
        <time>2018-08-13T06:44:32Z</time>
      </trkpt>
      <trkpt lat="45.8246" lon="4.24739">
        <ele>512</ele>
        <time>2018-08-13T06:44:38Z</time>
      </trkpt>
      <trkpt lat="45.82457" lon="4.24732">
        <ele>512</ele>
        <time>2018-08-13T06:44:43Z</time>
      </trkpt>
      <trkpt lat="45.82453" lon="4.24723">
        <ele>512</ele>
        <time>2018-08-13T06:44:49Z</time>
      </trkpt>
      <trkpt lat="45.82451" lon="4.24718">
        <ele>512</ele>
        <time>2018-08-13T06:44:54Z</time>
      </trkpt>
      <trkpt lat="45.82448" lon="4.24711">
        <ele>512</ele>
        <time>2018-08-13T06:45:00Z</time>
      </trkpt>
      <trkpt lat="45.82444" lon="4.24703">
        <ele>512</ele>
        <time>2018-08-13T06:45:06Z</time>
      </trkpt>
      <trkpt lat="45.82438" lon="4.24696">
        <ele>513</ele>
        <time>2018-08-13T06:45:12Z</time>
      </trkpt>
      <trkpt lat="45.82434" lon="4.24691">
        <ele>513</ele>
        <time>2018-08-13T06:45:18Z</time>
      </trkpt>
      <trkpt lat="45.82431" lon="4.24686">
        <ele>513</ele>
        <time>2018-08-13T06:45:23Z</time>
      </trkpt>
      <trkpt lat="45.82427" lon="4.24682">
        <ele>513</ele>
        <time>2018-08-13T06:45:28Z</time>
      </trkpt>
      <trkpt lat="45.82423" lon="4.24678">
        <ele>513</ele>
        <time>2018-08-13T06:45:33Z</time>
      </trkpt>
      <trkpt lat="45.82423" lon="4.24678">
        <ele>513</ele>
        <time>2018-08-13T06:45:39Z</time>
      </trkpt>
      <trkpt lat="45.82422" lon="4.24675">
        <ele>513</ele>
        <time>2018-08-13T06:45:44Z</time>
      </trkpt>
      <trkpt lat="45.82423" lon="4.24672">
        <ele>513</ele>
        <time>2018-08-13T06:45:50Z</time>
      </trkpt>
      <trkpt lat="45.82422" lon="4.24671">
        <ele>514</ele>
        <time>2018-08-13T06:45:56Z</time>
      </trkpt>
      <trkpt lat="45.82416" lon="4.24672">
        <ele>514</ele>
        <time>2018-08-13T06:46:02Z</time>
      </trkpt>
      <trkpt lat="45.82412" lon="4.24672">
        <ele>513</ele>
        <time>2018-08-13T06:46:07Z</time>
      </trkpt>
      <trkpt lat="45.82406" lon="4.24673">
        <ele>513</ele>
        <time>2018-08-13T06:46:12Z</time>
      </trkpt>
      <trkpt lat="45.82398" lon="4.24672">
        <ele>513</ele>
        <time>2018-08-13T06:46:18Z</time>
      </trkpt>
      <trkpt lat="45.82392" lon="4.24673">
        <ele>513</ele>
        <time>2018-08-13T06:46:23Z</time>
      </trkpt>
      <trkpt lat="45.82386" lon="4.24674">
        <ele>513</ele>
        <time>2018-08-13T06:46:29Z</time>
      </trkpt>
      <trkpt lat="45.82381" lon="4.24674">
        <ele>513</ele>
        <time>2018-08-13T06:46:35Z</time>
      </trkpt>
      <trkpt lat="45.82374" lon="4.24676">
        <ele>513</ele>
        <time>2018-08-13T06:46:41Z</time>
      </trkpt>
      <trkpt lat="45.82369" lon="4.24676">
        <ele>513</ele>
        <time>2018-08-13T06:46:46Z</time>
      </trkpt>
      <trkpt lat="45.82363" lon="4.24678">
        <ele>513</ele>
        <time>2018-08-13T06:46:52Z</time>
      </trkpt>
      <trkpt lat="45.82353" lon="4.2468">
        <ele>513</ele>
        <time>2018-08-13T06:46:58Z</time>
      </trkpt>
      <trkpt lat="45.82345" lon="4.24681">
        <ele>514</ele>
        <time>2018-08-13T06:47:03Z</time>
      </trkpt>
      <trkpt lat="45.82339" lon="4.24684">
        <ele>514</ele>
        <time>2018-08-13T06:47:09Z</time>
      </trkpt>
      <trkpt lat="45.82329" lon="4.24691">
        <ele>515</ele>
        <time>2018-08-13T06:47:15Z</time>
      </trkpt>
      <trkpt lat="45.82321" lon="4.24697">
        <ele>515</ele>
        <time>2018-08-13T06:47:21Z</time>
      </trkpt>
      <trkpt lat="45.82315" lon="4.247">
        <ele>515</ele>
        <time>2018-08-13T06:47:27Z</time>
      </trkpt>
      <trkpt lat="45.82308" lon="4.24702">
        <ele>515</ele>
        <time>2018-08-13T06:47:33Z</time>
      </trkpt>
      <trkpt lat="45.82299" lon="4.24705">
        <ele>515</ele>
        <time>2018-08-13T06:47:39Z</time>
      </trkpt>
      <trkpt lat="45.82291" lon="4.24705">
        <ele>515</ele>
        <time>2018-08-13T06:47:45Z</time>
      </trkpt>
      <trkpt lat="45.82285" lon="4.24704">
        <ele>516</ele>
        <time>2018-08-13T06:47:50Z</time>
      </trkpt>
      <trkpt lat="45.82279" lon="4.24705">
        <ele>516</ele>
        <time>2018-08-13T06:47:56Z</time>
      </trkpt>
      <trkpt lat="45.82274" lon="4.24705">
        <ele>516</ele>
        <time>2018-08-13T06:48:01Z</time>
      </trkpt>
      <trkpt lat="45.82266" lon="4.24709">
        <ele>516</ele>
        <time>2018-08-13T06:48:07Z</time>
      </trkpt>
      <trkpt lat="45.82258" lon="4.24711">
        <ele>516</ele>
        <time>2018-08-13T06:48:13Z</time>
      </trkpt>
      <trkpt lat="45.82253" lon="4.24709">
        <ele>516</ele>
        <time>2018-08-13T06:48:19Z</time>
      </trkpt>
      <trkpt lat="45.82246" lon="4.2471">
        <ele>518</ele>
        <time>2018-08-13T06:48:25Z</time>
      </trkpt>
      <trkpt lat="45.82237" lon="4.24709">
        <ele>518</ele>
        <time>2018-08-13T06:48:31Z</time>
      </trkpt>
      <trkpt lat="45.82234" lon="4.24705">
        <ele>519</ele>
        <time>2018-08-13T06:48:37Z</time>
      </trkpt>
      <trkpt lat="45.82228" lon="4.24703">
        <ele>519</ele>
        <time>2018-08-13T06:48:42Z</time>
      </trkpt>
      <trkpt lat="45.82223" lon="4.24701">
        <ele>519</ele>
        <time>2018-08-13T06:48:47Z</time>
      </trkpt>
      <trkpt lat="45.82216" lon="4.24696">
        <ele>519</ele>
        <time>2018-08-13T06:48:53Z</time>
      </trkpt>
      <trkpt lat="45.82209" lon="4.24693">
        <ele>519</ele>
        <time>2018-08-13T06:48:58Z</time>
      </trkpt>
      <trkpt lat="45.82204" lon="4.24694">
        <ele>519</ele>
        <time>2018-08-13T06:49:04Z</time>
      </trkpt>
      <trkpt lat="45.82202" lon="4.24694">
        <ele>519</ele>
        <time>2018-08-13T06:49:10Z</time>
      </trkpt>
      <trkpt lat="45.822" lon="4.24695">
        <ele>519</ele>
        <time>2018-08-13T06:49:15Z</time>
      </trkpt>
      <trkpt lat="45.822" lon="4.24696">
        <ele>519</ele>
        <time>2018-08-13T06:49:21Z</time>
      </trkpt>
      <trkpt lat="45.82199" lon="4.24697">
        <ele>519</ele>
        <time>2018-08-13T06:49:26Z</time>
      </trkpt>
      <trkpt lat="45.822" lon="4.24696">
        <ele>519</ele>
        <time>2018-08-13T06:49:32Z</time>
      </trkpt>
      <trkpt lat="45.822" lon="4.24696">
        <ele>519</ele>
        <time>2018-08-13T06:49:37Z</time>
      </trkpt>
      <trkpt lat="45.822" lon="4.24696">
        <ele>519</ele>
        <time>2018-08-13T06:49:42Z</time>
      </trkpt>
      <trkpt lat="45.822" lon="4.24695">
        <ele>519</ele>
        <time>2018-08-13T06:49:47Z</time>
      </trkpt>
      <trkpt lat="45.82201" lon="4.24696">
        <ele>519</ele>
        <time>2018-08-13T06:49:53Z</time>
      </trkpt>
      <trkpt lat="45.82203" lon="4.24697">
        <ele>519</ele>
        <time>2018-08-13T06:49:59Z</time>
      </trkpt>
      <trkpt lat="45.82204" lon="4.24697">
        <ele>519</ele>
        <time>2018-08-13T06:50:05Z</time>
      </trkpt>
      <trkpt lat="45.82205" lon="4.24699">
        <ele>519</ele>
        <time>2018-08-13T06:50:11Z</time>
      </trkpt>
      <trkpt lat="45.82206" lon="4.24699">
        <ele>519</ele>
        <time>2018-08-13T06:50:17Z</time>
      </trkpt>
      <trkpt lat="45.82206" lon="4.247">
        <ele>519</ele>
        <time>2018-08-13T06:50:23Z</time>
      </trkpt>
      <trkpt lat="45.82206" lon="4.24699">
        <ele>519</ele>
        <time>2018-08-13T06:50:29Z</time>
      </trkpt>
      <trkpt lat="45.82204" lon="4.24698">
        <ele>519</ele>
        <time>2018-08-13T06:50:34Z</time>
      </trkpt>
      <trkpt lat="45.82198" lon="4.24691">
        <ele>519</ele>
        <time>2018-08-13T06:50:40Z</time>
      </trkpt>
      <trkpt lat="45.82193" lon="4.24686">
        <ele>519</ele>
        <time>2018-08-13T06:50:45Z</time>
      </trkpt>
      <trkpt lat="45.82187" lon="4.24678">
        <ele>520</ele>
        <time>2018-08-13T06:50:51Z</time>
      </trkpt>
      <trkpt lat="45.82184" lon="4.24675">
        <ele>520</ele>
        <time>2018-08-13T06:50:56Z</time>
      </trkpt>
      <trkpt lat="45.82178" lon="4.24669">
        <ele>521</ele>
        <time>2018-08-13T06:51:01Z</time>
      </trkpt>
      <trkpt lat="45.82172" lon="4.24664">
        <ele>522</ele>
        <time>2018-08-13T06:51:06Z</time>
      </trkpt>
      <trkpt lat="45.82169" lon="4.24658">
        <ele>523</ele>
        <time>2018-08-13T06:51:12Z</time>
      </trkpt>
      <trkpt lat="45.82164" lon="4.24654">
        <ele>522</ele>
        <time>2018-08-13T06:51:17Z</time>
      </trkpt>
      <trkpt lat="45.82159" lon="4.24649">
        <ele>522</ele>
        <time>2018-08-13T06:51:22Z</time>
      </trkpt>
      <trkpt lat="45.82153" lon="4.24642">
        <ele>521</ele>
        <time>2018-08-13T06:51:28Z</time>
      </trkpt>
      <trkpt lat="45.8215" lon="4.24637">
        <ele>521</ele>
        <time>2018-08-13T06:51:33Z</time>
      </trkpt>
      <trkpt lat="45.82145" lon="4.24632">
        <ele>521</ele>
        <time>2018-08-13T06:51:38Z</time>
      </trkpt>
      <trkpt lat="45.82139" lon="4.24626">
        <ele>521</ele>
        <time>2018-08-13T06:51:44Z</time>
      </trkpt>
      <trkpt lat="45.82137" lon="4.24621">
        <ele>522</ele>
        <time>2018-08-13T06:51:49Z</time>
      </trkpt>
      <trkpt lat="45.82133" lon="4.24615">
        <ele>522</ele>
        <time>2018-08-13T06:51:55Z</time>
      </trkpt>
      <trkpt lat="45.82127" lon="4.24609">
        <ele>522</ele>
        <time>2018-08-13T06:52:01Z</time>
      </trkpt>
      <trkpt lat="45.82122" lon="4.24603">
        <ele>522</ele>
        <time>2018-08-13T06:52:06Z</time>
      </trkpt>
      <trkpt lat="45.82117" lon="4.24597">
        <ele>522</ele>
        <time>2018-08-13T06:52:12Z</time>
      </trkpt>
      <trkpt lat="45.8211" lon="4.2459">
        <ele>522</ele>
        <time>2018-08-13T06:52:19Z</time>
      </trkpt>
      <trkpt lat="45.82102" lon="4.24584">
        <ele>522</ele>
        <time>2018-08-13T06:52:25Z</time>
      </trkpt>
      <trkpt lat="45.82098" lon="4.2458">
        <ele>524</ele>
        <time>2018-08-13T06:52:30Z</time>
      </trkpt>
      <trkpt lat="45.82092" lon="4.24574">
        <ele>523</ele>
        <time>2018-08-13T06:52:36Z</time>
      </trkpt>
      <trkpt lat="45.82086" lon="4.24569">
        <ele>523</ele>
        <time>2018-08-13T06:52:41Z</time>
      </trkpt>
      <trkpt lat="45.82081" lon="4.24565">
        <ele>522</ele>
        <time>2018-08-13T06:52:46Z</time>
      </trkpt>
      <trkpt lat="45.82073" lon="4.24561">
        <ele>522</ele>
        <time>2018-08-13T06:52:52Z</time>
      </trkpt>
      <trkpt lat="45.82067" lon="4.24556">
        <ele>522</ele>
        <time>2018-08-13T06:52:58Z</time>
      </trkpt>
      <trkpt lat="45.82062" lon="4.24548">
        <ele>522</ele>
        <time>2018-08-13T06:53:04Z</time>
      </trkpt>
      <trkpt lat="45.82056" lon="4.24542">
        <ele>522</ele>
        <time>2018-08-13T06:53:09Z</time>
      </trkpt>
      <trkpt lat="45.82052" lon="4.24536">
        <ele>522</ele>
        <time>2018-08-13T06:53:15Z</time>
      </trkpt>
      <trkpt lat="45.82047" lon="4.24531">
        <ele>522</ele>
        <time>2018-08-13T06:53:21Z</time>
      </trkpt>
      <trkpt lat="45.82043" lon="4.24527">
        <ele>522</ele>
        <time>2018-08-13T06:53:27Z</time>
      </trkpt>
      <trkpt lat="45.82036" lon="4.24521">
        <ele>522</ele>
        <time>2018-08-13T06:53:33Z</time>
      </trkpt>
      <trkpt lat="45.8203" lon="4.24515">
        <ele>522</ele>
        <time>2018-08-13T06:53:38Z</time>
      </trkpt>
      <trkpt lat="45.82026" lon="4.24509">
        <ele>522</ele>
        <time>2018-08-13T06:53:43Z</time>
      </trkpt>
      <trkpt lat="45.8202" lon="4.24507">
        <ele>522</ele>
        <time>2018-08-13T06:53:48Z</time>
      </trkpt>
      <trkpt lat="45.82014" lon="4.24499">
        <ele>523</ele>
        <time>2018-08-13T06:53:54Z</time>
      </trkpt>
      <trkpt lat="45.82009" lon="4.24494">
        <ele>523</ele>
        <time>2018-08-13T06:53:59Z</time>
      </trkpt>
      <trkpt lat="45.82001" lon="4.24489">
        <ele>522</ele>
        <time>2018-08-13T06:54:05Z</time>
      </trkpt>
      <trkpt lat="45.81997" lon="4.24484">
        <ele>520</ele>
        <time>2018-08-13T06:54:10Z</time>
      </trkpt>
      <trkpt lat="45.81992" lon="4.24478">
        <ele>520</ele>
        <time>2018-08-13T06:54:16Z</time>
      </trkpt>
      <trkpt lat="45.81992" lon="4.24478">
        <ele>520</ele>
        <time>2018-08-13T06:54:21Z</time>
      </trkpt>
      <trkpt lat="45.81992" lon="4.24475">
        <ele>520</ele>
        <time>2018-08-13T06:54:27Z</time>
      </trkpt>
      <trkpt lat="45.81992" lon="4.24475">
        <ele>520</ele>
        <time>2018-08-13T06:54:32Z</time>
      </trkpt>
      <trkpt lat="45.81993" lon="4.24475">
        <ele>520</ele>
        <time>2018-08-13T06:54:38Z</time>
      </trkpt>
      <trkpt lat="45.81994" lon="4.24474">
        <ele>520</ele>
        <time>2018-08-13T06:54:43Z</time>
      </trkpt>
      <trkpt lat="45.81993" lon="4.24474">
        <ele>520</ele>
        <time>2018-08-13T06:54:49Z</time>
      </trkpt>
      <trkpt lat="45.81992" lon="4.24473">
        <ele>520</ele>
        <time>2018-08-13T06:54:55Z</time>
      </trkpt>
      <trkpt lat="45.81991" lon="4.24473">
        <ele>520</ele>
        <time>2018-08-13T06:55:00Z</time>
      </trkpt>
      <trkpt lat="45.81991" lon="4.24476">
        <ele>520</ele>
        <time>2018-08-13T06:55:06Z</time>
      </trkpt>
      <trkpt lat="45.81991" lon="4.24478">
        <ele>520</ele>
        <time>2018-08-13T06:55:12Z</time>
      </trkpt>
      <trkpt lat="45.81991" lon="4.24477">
        <ele>520</ele>
        <time>2018-08-13T06:55:18Z</time>
      </trkpt>
      <trkpt lat="45.81991" lon="4.24478">
        <ele>520</ele>
        <time>2018-08-13T06:55:24Z</time>
      </trkpt>
      <trkpt lat="45.81989" lon="4.24477">
        <ele>520</ele>
        <time>2018-08-13T06:55:30Z</time>
      </trkpt>
      <trkpt lat="45.81988" lon="4.24476">
        <ele>520</ele>
        <time>2018-08-13T06:55:36Z</time>
      </trkpt>
      <trkpt lat="45.81989" lon="4.24475">
        <ele>520</ele>
        <time>2018-08-13T06:55:42Z</time>
      </trkpt>
      <trkpt lat="45.81988" lon="4.24475">
        <ele>520</ele>
        <time>2018-08-13T06:55:48Z</time>
      </trkpt>
      <trkpt lat="45.81987" lon="4.24477">
        <ele>520</ele>
        <time>2018-08-13T06:55:54Z</time>
      </trkpt>
      <trkpt lat="45.81985" lon="4.24473">
        <ele>519</ele>
        <time>2018-08-13T06:55:59Z</time>
      </trkpt>
      <trkpt lat="45.8198" lon="4.24466">
        <ele>519</ele>
        <time>2018-08-13T06:56:05Z</time>
      </trkpt>
      <trkpt lat="45.81974" lon="4.24461">
        <ele>519</ele>
        <time>2018-08-13T06:56:10Z</time>
      </trkpt>
      <trkpt lat="45.81968" lon="4.24454">
        <ele>519</ele>
        <time>2018-08-13T06:56:16Z</time>
      </trkpt>
      <trkpt lat="45.81964" lon="4.2445">
        <ele>519</ele>
        <time>2018-08-13T06:56:21Z</time>
      </trkpt>
      <trkpt lat="45.8196" lon="4.24444">
        <ele>518</ele>
        <time>2018-08-13T06:56:26Z</time>
      </trkpt>
      <trkpt lat="45.81954" lon="4.24437">
        <ele>518</ele>
        <time>2018-08-13T06:56:32Z</time>
      </trkpt>
      <trkpt lat="45.81949" lon="4.2443">
        <ele>518</ele>
        <time>2018-08-13T06:56:37Z</time>
      </trkpt>
      <trkpt lat="45.81943" lon="4.24424">
        <ele>517</ele>
        <time>2018-08-13T06:56:43Z</time>
      </trkpt>
      <trkpt lat="45.81938" lon="4.24418">
        <ele>517</ele>
        <time>2018-08-13T06:56:48Z</time>
      </trkpt>
      <trkpt lat="45.81934" lon="4.24412">
        <ele>517</ele>
        <time>2018-08-13T06:56:54Z</time>
      </trkpt>
      <trkpt lat="45.8193" lon="4.24407">
        <ele>517</ele>
        <time>2018-08-13T06:56:59Z</time>
      </trkpt>
      <trkpt lat="45.81925" lon="4.24401">
        <ele>517</ele>
        <time>2018-08-13T06:57:05Z</time>
      </trkpt>
      <trkpt lat="45.8192" lon="4.24394">
        <ele>517</ele>
        <time>2018-08-13T06:57:10Z</time>
      </trkpt>
      <trkpt lat="45.81916" lon="4.24388">
        <ele>513</ele>
        <time>2018-08-13T06:57:15Z</time>
      </trkpt>
      <trkpt lat="45.81911" lon="4.24382">
        <ele>513</ele>
        <time>2018-08-13T06:57:20Z</time>
      </trkpt>
      <trkpt lat="45.81906" lon="4.24376">
        <ele>513</ele>
        <time>2018-08-13T06:57:26Z</time>
      </trkpt>
      <trkpt lat="45.81901" lon="4.24371">
        <ele>513</ele>
        <time>2018-08-13T06:57:32Z</time>
      </trkpt>
      <trkpt lat="45.81895" lon="4.24364">
        <ele>513</ele>
        <time>2018-08-13T06:57:38Z</time>
      </trkpt>
      <trkpt lat="45.81891" lon="4.24359">
        <ele>513</ele>
        <time>2018-08-13T06:57:43Z</time>
      </trkpt>
      <trkpt lat="45.81887" lon="4.24355">
        <ele>513</ele>
        <time>2018-08-13T06:57:48Z</time>
      </trkpt>
      <trkpt lat="45.81883" lon="4.2435">
        <ele>513</ele>
        <time>2018-08-13T06:57:53Z</time>
      </trkpt>
      <trkpt lat="45.81878" lon="4.24345">
        <ele>512</ele>
        <time>2018-08-13T06:57:59Z</time>
      </trkpt>
      <trkpt lat="45.81875" lon="4.24338">
        <ele>512</ele>
        <time>2018-08-13T06:58:05Z</time>
      </trkpt>
      <trkpt lat="45.8187" lon="4.24332">
        <ele>513</ele>
        <time>2018-08-13T06:58:10Z</time>
      </trkpt>
      <trkpt lat="45.81866" lon="4.24325">
        <ele>513</ele>
        <time>2018-08-13T06:58:15Z</time>
      </trkpt>
      <trkpt lat="45.81861" lon="4.24319">
        <ele>512</ele>
        <time>2018-08-13T06:58:21Z</time>
      </trkpt>
      <trkpt lat="45.81855" lon="4.24313">
        <ele>512</ele>
        <time>2018-08-13T06:58:27Z</time>
      </trkpt>
      <trkpt lat="45.8185" lon="4.24307">
        <ele>512</ele>
        <time>2018-08-13T06:58:32Z</time>
      </trkpt>
      <trkpt lat="45.81844" lon="4.243">
        <ele>512</ele>
        <time>2018-08-13T06:58:38Z</time>
      </trkpt>
      <trkpt lat="45.81841" lon="4.24297">
        <ele>512</ele>
        <time>2018-08-13T06:58:43Z</time>
      </trkpt>
      <trkpt lat="45.81835" lon="4.24291">
        <ele>512</ele>
        <time>2018-08-13T06:58:48Z</time>
      </trkpt>
      <trkpt lat="45.81831" lon="4.24285">
        <ele>509</ele>
        <time>2018-08-13T06:58:53Z</time>
      </trkpt>
      <trkpt lat="45.81826" lon="4.24282">
        <ele>509</ele>
        <time>2018-08-13T06:58:59Z</time>
      </trkpt>
      <trkpt lat="45.8182" lon="4.24274">
        <ele>509</ele>
        <time>2018-08-13T06:59:05Z</time>
      </trkpt>
      <trkpt lat="45.81816" lon="4.24269">
        <ele>509</ele>
        <time>2018-08-13T06:59:11Z</time>
      </trkpt>
      <trkpt lat="45.81812" lon="4.24264">
        <ele>509</ele>
        <time>2018-08-13T06:59:16Z</time>
      </trkpt>
      <trkpt lat="45.81808" lon="4.24258">
        <ele>509</ele>
        <time>2018-08-13T06:59:22Z</time>
      </trkpt>
      <trkpt lat="45.81802" lon="4.24253">
        <ele>509</ele>
        <time>2018-08-13T06:59:28Z</time>
      </trkpt>
      <trkpt lat="45.81797" lon="4.24247">
        <ele>508</ele>
        <time>2018-08-13T06:59:33Z</time>
      </trkpt>
      <trkpt lat="45.81791" lon="4.2424">
        <ele>508</ele>
        <time>2018-08-13T06:59:39Z</time>
      </trkpt>
      <trkpt lat="45.81788" lon="4.24237">
        <ele>508</ele>
        <time>2018-08-13T06:59:45Z</time>
      </trkpt>
      <trkpt lat="45.81782" lon="4.24231">
        <ele>507</ele>
        <time>2018-08-13T06:59:51Z</time>
      </trkpt>
      <trkpt lat="45.81775" lon="4.24225">
        <ele>507</ele>
        <time>2018-08-13T06:59:57Z</time>
      </trkpt>
      <trkpt lat="45.81773" lon="4.24222">
        <ele>507</ele>
        <time>2018-08-13T07:00:02Z</time>
      </trkpt>
      <trkpt lat="45.81766" lon="4.24214">
        <ele>507</ele>
        <time>2018-08-13T07:00:08Z</time>
      </trkpt>
      <trkpt lat="45.8176" lon="4.2421">
        <ele>507</ele>
        <time>2018-08-13T07:00:13Z</time>
      </trkpt>
      <trkpt lat="45.81754" lon="4.24205">
        <ele>507</ele>
        <time>2018-08-13T07:00:19Z</time>
      </trkpt>
      <trkpt lat="45.81748" lon="4.24201">
        <ele>504</ele>
        <time>2018-08-13T07:00:24Z</time>
      </trkpt>
      <trkpt lat="45.81743" lon="4.24194">
        <ele>504</ele>
        <time>2018-08-13T07:00:29Z</time>
      </trkpt>
      <trkpt lat="45.81739" lon="4.24191">
        <ele>504</ele>
        <time>2018-08-13T07:00:35Z</time>
      </trkpt>
      <trkpt lat="45.81731" lon="4.24189">
        <ele>504</ele>
        <time>2018-08-13T07:00:41Z</time>
      </trkpt>
      <trkpt lat="45.81724" lon="4.24189">
        <ele>504</ele>
        <time>2018-08-13T07:00:47Z</time>
      </trkpt>
      <trkpt lat="45.81719" lon="4.24189">
        <ele>504</ele>
        <time>2018-08-13T07:00:53Z</time>
      </trkpt>
      <trkpt lat="45.81713" lon="4.24189">
        <ele>504</ele>
        <time>2018-08-13T07:00:58Z</time>
      </trkpt>
      <trkpt lat="45.81706" lon="4.24188">
        <ele>504</ele>
        <time>2018-08-13T07:01:04Z</time>
      </trkpt>
      <trkpt lat="45.817" lon="4.24187">
        <ele>504</ele>
        <time>2018-08-13T07:01:10Z</time>
      </trkpt>
      <trkpt lat="45.81693" lon="4.24187">
        <ele>504</ele>
        <time>2018-08-13T07:01:15Z</time>
      </trkpt>
      <trkpt lat="45.81684" lon="4.24186">
        <ele>504</ele>
        <time>2018-08-13T07:01:20Z</time>
      </trkpt>
      <trkpt lat="45.81678" lon="4.24186">
        <ele>504</ele>
        <time>2018-08-13T07:01:26Z</time>
      </trkpt>
      <trkpt lat="45.8167" lon="4.24185">
        <ele>504</ele>
        <time>2018-08-13T07:01:32Z</time>
      </trkpt>
      <trkpt lat="45.81664" lon="4.24185">
        <ele>503</ele>
        <time>2018-08-13T07:01:37Z</time>
      </trkpt>
      <trkpt lat="45.81656" lon="4.24186">
        <ele>503</ele>
        <time>2018-08-13T07:01:43Z</time>
      </trkpt>
      <trkpt lat="45.81649" lon="4.24187">
        <ele>503</ele>
        <time>2018-08-13T07:01:49Z</time>
      </trkpt>
      <trkpt lat="45.81642" lon="4.24187">
        <ele>503</ele>
        <time>2018-08-13T07:01:54Z</time>
      </trkpt>
      <trkpt lat="45.81634" lon="4.24186">
        <ele>502</ele>
        <time>2018-08-13T07:02:00Z</time>
      </trkpt>
      <trkpt lat="45.81627" lon="4.24186">
        <ele>502</ele>
        <time>2018-08-13T07:02:06Z</time>
      </trkpt>
      <trkpt lat="45.81621" lon="4.24185">
        <ele>502</ele>
        <time>2018-08-13T07:02:11Z</time>
      </trkpt>
      <trkpt lat="45.81614" lon="4.24186">
        <ele>502</ele>
        <time>2018-08-13T07:02:16Z</time>
      </trkpt>
      <trkpt lat="45.8161" lon="4.24186">
        <ele>502</ele>
        <time>2018-08-13T07:02:21Z</time>
      </trkpt>
      <trkpt lat="45.81601" lon="4.24186">
        <ele>502</ele>
        <time>2018-08-13T07:02:27Z</time>
      </trkpt>
      <trkpt lat="45.81595" lon="4.24185">
        <ele>502</ele>
        <time>2018-08-13T07:02:32Z</time>
      </trkpt>
      <trkpt lat="45.81588" lon="4.24184">
        <ele>502</ele>
        <time>2018-08-13T07:02:37Z</time>
      </trkpt>
      <trkpt lat="45.81579" lon="4.24184">
        <ele>501</ele>
        <time>2018-08-13T07:02:43Z</time>
      </trkpt>
      <trkpt lat="45.81571" lon="4.24183">
        <ele>501</ele>
        <time>2018-08-13T07:02:48Z</time>
      </trkpt>
      <trkpt lat="45.81564" lon="4.24183">
        <ele>501</ele>
        <time>2018-08-13T07:02:54Z</time>
      </trkpt>
      <trkpt lat="45.81558" lon="4.24185">
        <ele>501</ele>
        <time>2018-08-13T07:02:59Z</time>
      </trkpt>
      <trkpt lat="45.8155" lon="4.24182">
        <ele>501</ele>
        <time>2018-08-13T07:03:05Z</time>
      </trkpt>
      <trkpt lat="45.81543" lon="4.24183">
        <ele>501</ele>
        <time>2018-08-13T07:03:10Z</time>
      </trkpt>
      <trkpt lat="45.81536" lon="4.24186">
        <ele>501</ele>
        <time>2018-08-13T07:03:16Z</time>
      </trkpt>
      <trkpt lat="45.81529" lon="4.24187">
        <ele>501</ele>
        <time>2018-08-13T07:03:21Z</time>
      </trkpt>
      <trkpt lat="45.81524" lon="4.2419">
        <ele>501</ele>
        <time>2018-08-13T07:03:27Z</time>
      </trkpt>
      <trkpt lat="45.81517" lon="4.24191">
        <ele>501</ele>
        <time>2018-08-13T07:03:32Z</time>
      </trkpt>
      <trkpt lat="45.8151" lon="4.24191">
        <ele>501</ele>
        <time>2018-08-13T07:03:37Z</time>
      </trkpt>
      <trkpt lat="45.81504" lon="4.24193">
        <ele>501</ele>
        <time>2018-08-13T07:03:43Z</time>
      </trkpt>
      <trkpt lat="45.81497" lon="4.24196">
        <ele>501</ele>
        <time>2018-08-13T07:03:49Z</time>
      </trkpt>
      <trkpt lat="45.8149" lon="4.24197">
        <ele>501</ele>
        <time>2018-08-13T07:03:55Z</time>
      </trkpt>
      <trkpt lat="45.81482" lon="4.242">
        <ele>501</ele>
        <time>2018-08-13T07:04:01Z</time>
      </trkpt>
      <trkpt lat="45.81474" lon="4.24202">
        <ele>501</ele>
        <time>2018-08-13T07:04:07Z</time>
      </trkpt>
      <trkpt lat="45.81467" lon="4.24206">
        <ele>501</ele>
        <time>2018-08-13T07:04:13Z</time>
      </trkpt>
      <trkpt lat="45.8146" lon="4.2421">
        <ele>501</ele>
        <time>2018-08-13T07:04:18Z</time>
      </trkpt>
      <trkpt lat="45.81453" lon="4.24212">
        <ele>501</ele>
        <time>2018-08-13T07:04:23Z</time>
      </trkpt>
      <trkpt lat="45.81447" lon="4.24214">
        <ele>501</ele>
        <time>2018-08-13T07:04:29Z</time>
      </trkpt>
      <trkpt lat="45.81439" lon="4.24216">
        <ele>502</ele>
        <time>2018-08-13T07:04:35Z</time>
      </trkpt>
      <trkpt lat="45.81432" lon="4.24219">
        <ele>502</ele>
        <time>2018-08-13T07:04:41Z</time>
      </trkpt>
      <trkpt lat="45.81424" lon="4.24223">
        <ele>502</ele>
        <time>2018-08-13T07:04:47Z</time>
      </trkpt>
      <trkpt lat="45.81419" lon="4.24227">
        <ele>502</ele>
        <time>2018-08-13T07:04:52Z</time>
      </trkpt>
      <trkpt lat="45.81413" lon="4.24234">
        <ele>502</ele>
        <time>2018-08-13T07:04:57Z</time>
      </trkpt>
      <trkpt lat="45.81406" lon="4.24235">
        <ele>502</ele>
        <time>2018-08-13T07:05:03Z</time>
      </trkpt>
      <trkpt lat="45.81401" lon="4.24237">
        <ele>502</ele>
        <time>2018-08-13T07:05:09Z</time>
      </trkpt>
      <trkpt lat="45.81393" lon="4.2424">
        <ele>501</ele>
        <time>2018-08-13T07:05:15Z</time>
      </trkpt>
      <trkpt lat="45.81387" lon="4.24245">
        <ele>501</ele>
        <time>2018-08-13T07:05:21Z</time>
      </trkpt>
      <trkpt lat="45.8138" lon="4.24249">
        <ele>501</ele>
        <time>2018-08-13T07:05:26Z</time>
      </trkpt>
      <trkpt lat="45.81373" lon="4.24256">
        <ele>499</ele>
        <time>2018-08-13T07:05:32Z</time>
      </trkpt>
      <trkpt lat="45.81369" lon="4.24261">
        <ele>499</ele>
        <time>2018-08-13T07:05:37Z</time>
      </trkpt>
      <trkpt lat="45.81362" lon="4.24266">
        <ele>499</ele>
        <time>2018-08-13T07:05:43Z</time>
      </trkpt>
      <trkpt lat="45.81354" lon="4.24268">
        <ele>498</ele>
        <time>2018-08-13T07:05:49Z</time>
      </trkpt>
      <trkpt lat="45.81345" lon="4.24271">
        <ele>498</ele>
        <time>2018-08-13T07:05:55Z</time>
      </trkpt>
      <trkpt lat="45.81338" lon="4.24272">
        <ele>498</ele>
        <time>2018-08-13T07:06:01Z</time>
      </trkpt>
      <trkpt lat="45.81329" lon="4.24276">
        <ele>495</ele>
        <time>2018-08-13T07:06:07Z</time>
      </trkpt>
      <trkpt lat="45.81322" lon="4.24277">
        <ele>494</ele>
        <time>2018-08-13T07:06:12Z</time>
      </trkpt>
      <trkpt lat="45.81313" lon="4.24278">
        <ele>494</ele>
        <time>2018-08-13T07:06:19Z</time>
      </trkpt>
      <trkpt lat="45.81306" lon="4.24279">
        <ele>493</ele>
        <time>2018-08-13T07:06:25Z</time>
      </trkpt>
      <trkpt lat="45.81298" lon="4.24279">
        <ele>493</ele>
        <time>2018-08-13T07:06:30Z</time>
      </trkpt>
      <trkpt lat="45.81291" lon="4.24279">
        <ele>493</ele>
        <time>2018-08-13T07:06:36Z</time>
      </trkpt>
      <trkpt lat="45.81285" lon="4.24276">
        <ele>492</ele>
        <time>2018-08-13T07:06:41Z</time>
      </trkpt>
      <trkpt lat="45.8128" lon="4.24271">
        <ele>492</ele>
        <time>2018-08-13T07:06:47Z</time>
      </trkpt>
      <trkpt lat="45.81272" lon="4.24267">
        <ele>492</ele>
        <time>2018-08-13T07:06:53Z</time>
      </trkpt>
      <trkpt lat="45.81266" lon="4.24262">
        <ele>491</ele>
        <time>2018-08-13T07:06:59Z</time>
      </trkpt>
      <trkpt lat="45.81259" lon="4.24259">
        <ele>491</ele>
        <time>2018-08-13T07:07:05Z</time>
      </trkpt>
      <trkpt lat="45.81253" lon="4.24255">
        <ele>491</ele>
        <time>2018-08-13T07:07:10Z</time>
      </trkpt>
      <trkpt lat="45.81246" lon="4.24253">
        <ele>490</ele>
        <time>2018-08-13T07:07:15Z</time>
      </trkpt>
      <trkpt lat="45.81239" lon="4.24251">
        <ele>489</ele>
        <time>2018-08-13T07:07:21Z</time>
      </trkpt>
      <trkpt lat="45.81233" lon="4.2425">
        <ele>489</ele>
        <time>2018-08-13T07:07:26Z</time>
      </trkpt>
      <trkpt lat="45.81226" lon="4.24249">
        <ele>489</ele>
        <time>2018-08-13T07:07:31Z</time>
      </trkpt>
      <trkpt lat="45.81219" lon="4.2425">
        <ele>489</ele>
        <time>2018-08-13T07:07:36Z</time>
      </trkpt>
      <trkpt lat="45.81214" lon="4.2425">
        <ele>489</ele>
        <time>2018-08-13T07:07:41Z</time>
      </trkpt>
      <trkpt lat="45.81206" lon="4.24249">
        <ele>489</ele>
        <time>2018-08-13T07:07:47Z</time>
      </trkpt>
      <trkpt lat="45.81198" lon="4.2425">
        <ele>488</ele>
        <time>2018-08-13T07:07:52Z</time>
      </trkpt>
      <trkpt lat="45.81191" lon="4.24248">
        <ele>488</ele>
        <time>2018-08-13T07:07:58Z</time>
      </trkpt>
      <trkpt lat="45.81184" lon="4.24247">
        <ele>488</ele>
        <time>2018-08-13T07:08:04Z</time>
      </trkpt>
      <trkpt lat="45.81177" lon="4.24247">
        <ele>488</ele>
        <time>2018-08-13T07:08:09Z</time>
      </trkpt>
      <trkpt lat="45.81169" lon="4.24247">
        <ele>488</ele>
        <time>2018-08-13T07:08:15Z</time>
      </trkpt>
      <trkpt lat="45.81163" lon="4.24246">
        <ele>487</ele>
        <time>2018-08-13T07:08:20Z</time>
      </trkpt>
      <trkpt lat="45.81156" lon="4.24246">
        <ele>487</ele>
        <time>2018-08-13T07:08:26Z</time>
      </trkpt>
      <trkpt lat="45.8115" lon="4.24246">
        <ele>487</ele>
        <time>2018-08-13T07:08:31Z</time>
      </trkpt>
      <trkpt lat="45.81141" lon="4.24246">
        <ele>486</ele>
        <time>2018-08-13T07:08:37Z</time>
      </trkpt>
      <trkpt lat="45.81135" lon="4.24246">
        <ele>486</ele>
        <time>2018-08-13T07:08:42Z</time>
      </trkpt>
      <trkpt lat="45.81129" lon="4.24247">
        <ele>486</ele>
        <time>2018-08-13T07:08:47Z</time>
      </trkpt>
      <trkpt lat="45.81121" lon="4.24247">
        <ele>486</ele>
        <time>2018-08-13T07:08:53Z</time>
      </trkpt>
      <trkpt lat="45.81115" lon="4.24246">
        <ele>486</ele>
        <time>2018-08-13T07:08:59Z</time>
      </trkpt>
      <trkpt lat="45.81108" lon="4.24244">
        <ele>486</ele>
        <time>2018-08-13T07:09:05Z</time>
      </trkpt>
      <trkpt lat="45.81103" lon="4.24246">
        <ele>486</ele>
        <time>2018-08-13T07:09:10Z</time>
      </trkpt>
      <trkpt lat="45.81096" lon="4.24247">
        <ele>486</ele>
        <time>2018-08-13T07:09:15Z</time>
      </trkpt>
      <trkpt lat="45.81089" lon="4.24247">
        <ele>486</ele>
        <time>2018-08-13T07:09:21Z</time>
      </trkpt>
      <trkpt lat="45.81083" lon="4.24248">
        <ele>487</ele>
        <time>2018-08-13T07:09:26Z</time>
      </trkpt>
      <trkpt lat="45.81076" lon="4.24249">
        <ele>486</ele>
        <time>2018-08-13T07:09:32Z</time>
      </trkpt>
      <trkpt lat="45.81071" lon="4.24249">
        <ele>485</ele>
        <time>2018-08-13T07:09:38Z</time>
      </trkpt>
      <trkpt lat="45.81065" lon="4.24248">
        <ele>485</ele>
        <time>2018-08-13T07:09:44Z</time>
      </trkpt>
      <trkpt lat="45.81058" lon="4.24246">
        <ele>484</ele>
        <time>2018-08-13T07:09:49Z</time>
      </trkpt>
      <trkpt lat="45.81051" lon="4.24246">
        <ele>484</ele>
        <time>2018-08-13T07:09:55Z</time>
      </trkpt>
      <trkpt lat="45.81045" lon="4.24245">
        <ele>484</ele>
        <time>2018-08-13T07:10:00Z</time>
      </trkpt>
      <trkpt lat="45.81039" lon="4.24245">
        <ele>483</ele>
        <time>2018-08-13T07:10:05Z</time>
      </trkpt>
      <trkpt lat="45.81034" lon="4.24247">
        <ele>483</ele>
        <time>2018-08-13T07:10:11Z</time>
      </trkpt>
      <trkpt lat="45.81027" lon="4.24249">
        <ele>483</ele>
        <time>2018-08-13T07:10:17Z</time>
      </trkpt>
      <trkpt lat="45.81021" lon="4.24248">
        <ele>483</ele>
        <time>2018-08-13T07:10:22Z</time>
      </trkpt>
      <trkpt lat="45.81014" lon="4.24249">
        <ele>483</ele>
        <time>2018-08-13T07:10:28Z</time>
      </trkpt>
      <trkpt lat="45.81008" lon="4.24246">
        <ele>484</ele>
        <time>2018-08-13T07:10:34Z</time>
      </trkpt>
      <trkpt lat="45.80999" lon="4.24248">
        <ele>484</ele>
        <time>2018-08-13T07:10:40Z</time>
      </trkpt>
      <trkpt lat="45.80993" lon="4.24247">
        <ele>483</ele>
        <time>2018-08-13T07:10:45Z</time>
      </trkpt>
      <trkpt lat="45.80989" lon="4.24247">
        <ele>483</ele>
        <time>2018-08-13T07:10:51Z</time>
      </trkpt>
      <trkpt lat="45.80984" lon="4.24245">
        <ele>482</ele>
        <time>2018-08-13T07:10:57Z</time>
      </trkpt>
      <trkpt lat="45.80979" lon="4.24245">
        <ele>482</ele>
        <time>2018-08-13T07:11:03Z</time>
      </trkpt>
      <trkpt lat="45.80971" lon="4.24247">
        <ele>482</ele>
        <time>2018-08-13T07:11:09Z</time>
      </trkpt>
      <trkpt lat="45.80964" lon="4.24248">
        <ele>482</ele>
        <time>2018-08-13T07:11:15Z</time>
      </trkpt>
      <trkpt lat="45.80959" lon="4.24249">
        <ele>482</ele>
        <time>2018-08-13T07:11:20Z</time>
      </trkpt>
      <trkpt lat="45.80951" lon="4.24248">
        <ele>482</ele>
        <time>2018-08-13T07:11:26Z</time>
      </trkpt>
      <trkpt lat="45.80944" lon="4.24249">
        <ele>481</ele>
        <time>2018-08-13T07:11:32Z</time>
      </trkpt>
      <trkpt lat="45.80936" lon="4.2425">
        <ele>482</ele>
        <time>2018-08-13T07:11:38Z</time>
      </trkpt>
      <trkpt lat="45.80931" lon="4.24249">
        <ele>482</ele>
        <time>2018-08-13T07:11:44Z</time>
      </trkpt>
      <trkpt lat="45.80925" lon="4.24248">
        <ele>482</ele>
        <time>2018-08-13T07:11:49Z</time>
      </trkpt>
      <trkpt lat="45.8092" lon="4.24249">
        <ele>482</ele>
        <time>2018-08-13T07:11:54Z</time>
      </trkpt>
      <trkpt lat="45.80912" lon="4.24247">
        <ele>481</ele>
        <time>2018-08-13T07:12:00Z</time>
      </trkpt>
      <trkpt lat="45.80905" lon="4.24243">
        <ele>481</ele>
        <time>2018-08-13T07:12:06Z</time>
      </trkpt>
      <trkpt lat="45.80899" lon="4.24239">
        <ele>480</ele>
        <time>2018-08-13T07:12:12Z</time>
      </trkpt>
      <trkpt lat="45.80899" lon="4.24237">
        <ele>480</ele>
        <time>2018-08-13T07:12:18Z</time>
      </trkpt>
      <trkpt lat="45.80898" lon="4.24237">
        <ele>480</ele>
        <time>2018-08-13T07:12:24Z</time>
      </trkpt>
      <trkpt lat="45.80898" lon="4.24238">
        <ele>480</ele>
        <time>2018-08-13T07:12:29Z</time>
      </trkpt>
      <trkpt lat="45.80897" lon="4.24239">
        <ele>480</ele>
        <time>2018-08-13T07:12:35Z</time>
      </trkpt>
      <trkpt lat="45.80898" lon="4.24239">
        <ele>480</ele>
        <time>2018-08-13T07:12:40Z</time>
      </trkpt>
      <trkpt lat="45.80898" lon="4.24239">
        <ele>480</ele>
        <time>2018-08-13T07:12:46Z</time>
      </trkpt>
      <trkpt lat="45.80898" lon="4.24238">
        <ele>480</ele>
        <time>2018-08-13T07:12:51Z</time>
      </trkpt>
      <trkpt lat="45.80898" lon="4.24237">
        <ele>480</ele>
        <time>2018-08-13T07:12:57Z</time>
      </trkpt>
      <trkpt lat="45.80899" lon="4.24236">
        <ele>480</ele>
        <time>2018-08-13T07:13:02Z</time>
      </trkpt>
      <trkpt lat="45.80898" lon="4.24237">
        <ele>480</ele>
        <time>2018-08-13T07:13:08Z</time>
      </trkpt>
      <trkpt lat="45.80899" lon="4.24239">
        <ele>480</ele>
        <time>2018-08-13T07:13:14Z</time>
      </trkpt>
      <trkpt lat="45.80899" lon="4.24238">
        <ele>480</ele>
        <time>2018-08-13T07:13:20Z</time>
      </trkpt>
      <trkpt lat="45.80898" lon="4.24239">
        <ele>480</ele>
        <time>2018-08-13T07:13:26Z</time>
      </trkpt>
      <trkpt lat="45.80899" lon="4.24239">
        <ele>480</ele>
        <time>2018-08-13T07:13:31Z</time>
      </trkpt>
      <trkpt lat="45.80899" lon="4.24239">
        <ele>480</ele>
        <time>2018-08-13T07:13:36Z</time>
      </trkpt>
      <trkpt lat="45.80899" lon="4.24239">
        <ele>480</ele>
        <time>2018-08-13T07:13:41Z</time>
      </trkpt>
      <trkpt lat="45.80897" lon="4.24238">
        <ele>480</ele>
        <time>2018-08-13T07:13:46Z</time>
      </trkpt>
      <trkpt lat="45.80896" lon="4.24239">
        <ele>480</ele>
        <time>2018-08-13T07:13:51Z</time>
      </trkpt>
      <trkpt lat="45.80895" lon="4.24239">
        <ele>480</ele>
        <time>2018-08-13T07:13:57Z</time>
      </trkpt>
      <trkpt lat="45.80895" lon="4.24239">
        <ele>480</ele>
        <time>2018-08-13T07:14:02Z</time>
      </trkpt>
      <trkpt lat="45.80894" lon="4.24238">
        <ele>480</ele>
        <time>2018-08-13T07:14:07Z</time>
      </trkpt>
      <trkpt lat="45.80895" lon="4.24238">
        <ele>480</ele>
        <time>2018-08-13T07:14:13Z</time>
      </trkpt>
      <trkpt lat="45.80895" lon="4.24238">
        <ele>480</ele>
        <time>2018-08-13T07:14:18Z</time>
      </trkpt>
      <trkpt lat="45.80894" lon="4.2424">
        <ele>480</ele>
        <time>2018-08-13T07:14:24Z</time>
      </trkpt>
      <trkpt lat="45.80895" lon="4.24241">
        <ele>480</ele>
        <time>2018-08-13T07:14:30Z</time>
      </trkpt>
      <trkpt lat="45.80895" lon="4.24241">
        <ele>480</ele>
        <time>2018-08-13T07:14:36Z</time>
      </trkpt>
      <trkpt lat="45.80894" lon="4.2424">
        <ele>480</ele>
        <time>2018-08-13T07:14:41Z</time>
      </trkpt>
      <trkpt lat="45.80894" lon="4.2424">
        <ele>480</ele>
        <time>2018-08-13T07:14:47Z</time>
      </trkpt>
      <trkpt lat="45.80894" lon="4.2424">
        <ele>480</ele>
        <time>2018-08-13T07:14:53Z</time>
      </trkpt>
      <trkpt lat="45.80894" lon="4.2424">
        <ele>480</ele>
        <time>2018-08-13T07:14:59Z</time>
      </trkpt>
      <trkpt lat="45.80894" lon="4.2424">
        <ele>480</ele>
        <time>2018-08-13T07:15:04Z</time>
      </trkpt>
      <trkpt lat="45.80894" lon="4.2424">
        <ele>480</ele>
        <time>2018-08-13T07:15:10Z</time>
      </trkpt>
      <trkpt lat="45.80893" lon="4.2424">
        <ele>480</ele>
        <time>2018-08-13T07:15:15Z</time>
      </trkpt>
      <trkpt lat="45.80894" lon="4.2424">
        <ele>480</ele>
        <time>2018-08-13T07:15:21Z</time>
      </trkpt>
      <trkpt lat="45.80895" lon="4.2424">
        <ele>480</ele>
        <time>2018-08-13T07:15:26Z</time>
      </trkpt>
      <trkpt lat="45.80895" lon="4.2424">
        <ele>480</ele>
        <time>2018-08-13T07:15:32Z</time>
      </trkpt>
      <trkpt lat="45.80896" lon="4.2424">
        <ele>480</ele>
        <time>2018-08-13T07:15:38Z</time>
      </trkpt>
      <trkpt lat="45.80898" lon="4.24239">
        <ele>480</ele>
        <time>2018-08-13T07:15:43Z</time>
      </trkpt>
      <trkpt lat="45.80899" lon="4.24239">
        <ele>480</ele>
        <time>2018-08-13T07:15:49Z</time>
      </trkpt>
      <trkpt lat="45.80898" lon="4.24239">
        <ele>480</ele>
        <time>2018-08-13T07:15:55Z</time>
      </trkpt>
      <trkpt lat="45.80898" lon="4.24241">
        <ele>480</ele>
        <time>2018-08-13T07:16:01Z</time>
      </trkpt>
      <trkpt lat="45.80899" lon="4.24242">
        <ele>480</ele>
        <time>2018-08-13T07:16:07Z</time>
      </trkpt>
      <trkpt lat="45.80899" lon="4.24243">
        <ele>480</ele>
        <time>2018-08-13T07:16:12Z</time>
      </trkpt>
      <trkpt lat="45.809" lon="4.24243">
        <ele>480</ele>
        <time>2018-08-13T07:16:17Z</time>
      </trkpt>
      <trkpt lat="45.809" lon="4.24242">
        <ele>480</ele>
        <time>2018-08-13T07:16:23Z</time>
      </trkpt>
      <trkpt lat="45.80899" lon="4.24242">
        <ele>480</ele>
        <time>2018-08-13T07:16:28Z</time>
      </trkpt>
      <trkpt lat="45.80898" lon="4.24242">
        <ele>480</ele>
        <time>2018-08-13T07:16:33Z</time>
      </trkpt>
      <trkpt lat="45.80899" lon="4.24241">
        <ele>480</ele>
        <time>2018-08-13T07:16:38Z</time>
      </trkpt>
      <trkpt lat="45.80899" lon="4.24239">
        <ele>480</ele>
        <time>2018-08-13T07:16:44Z</time>
      </trkpt>
      <trkpt lat="45.80898" lon="4.2424">
        <ele>480</ele>
        <time>2018-08-13T07:16:49Z</time>
      </trkpt>
      <trkpt lat="45.80897" lon="4.24239">
        <ele>480</ele>
        <time>2018-08-13T07:16:55Z</time>
      </trkpt>
      <trkpt lat="45.80895" lon="4.24239">
        <ele>480</ele>
        <time>2018-08-13T07:17:01Z</time>
      </trkpt>
      <trkpt lat="45.80895" lon="4.24239">
        <ele>480</ele>
        <time>2018-08-13T07:17:07Z</time>
      </trkpt>
      <trkpt lat="45.80895" lon="4.24239">
        <ele>480</ele>
        <time>2018-08-13T07:17:13Z</time>
      </trkpt>
      <trkpt lat="45.80895" lon="4.24239">
        <ele>480</ele>
        <time>2018-08-13T07:17:19Z</time>
      </trkpt>
      <trkpt lat="45.80892" lon="4.24237">
        <ele>480</ele>
        <time>2018-08-13T07:17:24Z</time>
      </trkpt>
      <trkpt lat="45.80886" lon="4.24235">
        <ele>479</ele>
        <time>2018-08-13T07:17:30Z</time>
      </trkpt>
      <trkpt lat="45.80881" lon="4.24233">
        <ele>479</ele>
        <time>2018-08-13T07:17:36Z</time>
      </trkpt>
      <trkpt lat="45.80876" lon="4.24231">
        <ele>479</ele>
        <time>2018-08-13T07:17:42Z</time>
      </trkpt>
      <trkpt lat="45.80871" lon="4.24228">
        <ele>479</ele>
        <time>2018-08-13T07:17:47Z</time>
      </trkpt>
      <trkpt lat="45.80865" lon="4.24222">
        <ele>479</ele>
        <time>2018-08-13T07:17:53Z</time>
      </trkpt>
      <trkpt lat="45.80859" lon="4.24216">
        <ele>478</ele>
        <time>2018-08-13T07:17:59Z</time>
      </trkpt>
      <trkpt lat="45.80857" lon="4.24211">
        <ele>478</ele>
        <time>2018-08-13T07:18:04Z</time>
      </trkpt>
      <trkpt lat="45.80851" lon="4.24204">
        <ele>478</ele>
        <time>2018-08-13T07:18:10Z</time>
      </trkpt>
      <trkpt lat="45.80846" lon="4.242">
        <ele>478</ele>
        <time>2018-08-13T07:18:16Z</time>
      </trkpt>
      <trkpt lat="45.80839" lon="4.24195">
        <ele>478</ele>
        <time>2018-08-13T07:18:22Z</time>
      </trkpt>
      <trkpt lat="45.80834" lon="4.24193">
        <ele>478</ele>
        <time>2018-08-13T07:18:27Z</time>
      </trkpt>
      <trkpt lat="45.80829" lon="4.2419">
        <ele>476</ele>
        <time>2018-08-13T07:18:33Z</time>
      </trkpt>
      <trkpt lat="45.80823" lon="4.24188">
        <ele>476</ele>
        <time>2018-08-13T07:18:39Z</time>
      </trkpt>
      <trkpt lat="45.80817" lon="4.24186">
        <ele>476</ele>
        <time>2018-08-13T07:18:44Z</time>
      </trkpt>
      <trkpt lat="45.80809" lon="4.24183">
        <ele>475</ele>
        <time>2018-08-13T07:18:49Z</time>
      </trkpt>
      <trkpt lat="45.80804" lon="4.24179">
        <ele>475</ele>
        <time>2018-08-13T07:18:55Z</time>
      </trkpt>
      <trkpt lat="45.80798" lon="4.24178">
        <ele>475</ele>
        <time>2018-08-13T07:19:00Z</time>
      </trkpt>
      <trkpt lat="45.8079" lon="4.24174">
        <ele>475</ele>
        <time>2018-08-13T07:19:06Z</time>
      </trkpt>
      <trkpt lat="45.80786" lon="4.24172">
        <ele>475</ele>
        <time>2018-08-13T07:19:11Z</time>
      </trkpt>
      <trkpt lat="45.80781" lon="4.24169">
        <ele>474</ele>
        <time>2018-08-13T07:19:16Z</time>
      </trkpt>
      <trkpt lat="45.80773" lon="4.24165">
        <ele>474</ele>
        <time>2018-08-13T07:19:22Z</time>
      </trkpt>
      <trkpt lat="45.80766" lon="4.24163">
        <ele>474</ele>
        <time>2018-08-13T07:19:27Z</time>
      </trkpt>
      <trkpt lat="45.80759" lon="4.2416">
        <ele>473</ele>
        <time>2018-08-13T07:19:33Z</time>
      </trkpt>
      <trkpt lat="45.80754" lon="4.24157">
        <ele>473</ele>
        <time>2018-08-13T07:19:39Z</time>
      </trkpt>
      <trkpt lat="45.80746" lon="4.24154">
        <ele>472</ele>
        <time>2018-08-13T07:19:45Z</time>
      </trkpt>
      <trkpt lat="45.80738" lon="4.24151">
        <ele>472</ele>
        <time>2018-08-13T07:19:50Z</time>
      </trkpt>
      <trkpt lat="45.8073" lon="4.2415">
        <ele>471</ele>
        <time>2018-08-13T07:19:56Z</time>
      </trkpt>
      <trkpt lat="45.80724" lon="4.24151">
        <ele>471</ele>
        <time>2018-08-13T07:20:02Z</time>
      </trkpt>
      <trkpt lat="45.80716" lon="4.24151">
        <ele>471</ele>
        <time>2018-08-13T07:20:07Z</time>
      </trkpt>
      <trkpt lat="45.80713" lon="4.24151">
        <ele>470</ele>
        <time>2018-08-13T07:20:12Z</time>
      </trkpt>
      <trkpt lat="45.80707" lon="4.24153">
        <ele>470</ele>
        <time>2018-08-13T07:20:18Z</time>
      </trkpt>
      <trkpt lat="45.80702" lon="4.24155">
        <ele>470</ele>
        <time>2018-08-13T07:20:23Z</time>
      </trkpt>
      <trkpt lat="45.80697" lon="4.24159">
        <ele>470</ele>
        <time>2018-08-13T07:20:28Z</time>
      </trkpt>
      <trkpt lat="45.80693" lon="4.24162">
        <ele>469</ele>
        <time>2018-08-13T07:20:34Z</time>
      </trkpt>
      <trkpt lat="45.80691" lon="4.24164">
        <ele>469</ele>
        <time>2018-08-13T07:20:40Z</time>
      </trkpt>
      <trkpt lat="45.8069" lon="4.24165">
        <ele>469</ele>
        <time>2018-08-13T07:20:45Z</time>
      </trkpt>
      <trkpt lat="45.8069" lon="4.24165">
        <ele>469</ele>
        <time>2018-08-13T07:20:51Z</time>
      </trkpt>
      <trkpt lat="45.8069" lon="4.24165">
        <ele>469</ele>
        <time>2018-08-13T07:20:57Z</time>
      </trkpt>
      <trkpt lat="45.8069" lon="4.24165">
        <ele>469</ele>
        <time>2018-08-13T07:21:02Z</time>
      </trkpt>
      <trkpt lat="45.8069" lon="4.24165">
        <ele>469</ele>
        <time>2018-08-13T07:21:08Z</time>
      </trkpt>
      <trkpt lat="45.8069" lon="4.24165">
        <ele>469</ele>
        <time>2018-08-13T07:21:14Z</time>
      </trkpt>
      <trkpt lat="45.8069" lon="4.24164">
        <ele>469</ele>
        <time>2018-08-13T07:21:19Z</time>
      </trkpt>
      <trkpt lat="45.8069" lon="4.24164">
        <ele>469</ele>
        <time>2018-08-13T07:21:24Z</time>
      </trkpt>
      <trkpt lat="45.80689" lon="4.24165">
        <ele>469</ele>
        <time>2018-08-13T07:21:30Z</time>
      </trkpt>
      <trkpt lat="45.80689" lon="4.24166">
        <ele>469</ele>
        <time>2018-08-13T07:21:35Z</time>
      </trkpt>
      <trkpt lat="45.80688" lon="4.24167">
        <ele>469</ele>
        <time>2018-08-13T07:21:40Z</time>
      </trkpt>
      <trkpt lat="45.80686" lon="4.24171">
        <ele>468</ele>
        <time>2018-08-13T07:21:46Z</time>
      </trkpt>
      <trkpt lat="45.80684" lon="4.24173">
        <ele>468</ele>
        <time>2018-08-13T07:21:51Z</time>
      </trkpt>
      <trkpt lat="45.80681" lon="4.24178">
        <ele>468</ele>
        <time>2018-08-13T07:21:57Z</time>
      </trkpt>
      <trkpt lat="45.80677" lon="4.24185">
        <ele>468</ele>
        <time>2018-08-13T07:22:03Z</time>
      </trkpt>
      <trkpt lat="45.80674" lon="4.24191">
        <ele>468</ele>
        <time>2018-08-13T07:22:08Z</time>
      </trkpt>
      <trkpt lat="45.8067" lon="4.242">
        <ele>468</ele>
        <time>2018-08-13T07:22:14Z</time>
      </trkpt>
      <trkpt lat="45.80667" lon="4.24209">
        <ele>468</ele>
        <time>2018-08-13T07:22:20Z</time>
      </trkpt>
      <trkpt lat="45.80664" lon="4.24216">
        <ele>464</ele>
        <time>2018-08-13T07:22:26Z</time>
      </trkpt>
      <trkpt lat="45.80661" lon="4.24226">
        <ele>464</ele>
        <time>2018-08-13T07:22:32Z</time>
      </trkpt>
      <trkpt lat="45.80659" lon="4.24235">
        <ele>464</ele>
        <time>2018-08-13T07:22:37Z</time>
      </trkpt>
      <trkpt lat="45.80656" lon="4.24243">
        <ele>465</ele>
        <time>2018-08-13T07:22:42Z</time>
      </trkpt>
      <trkpt lat="45.80655" lon="4.24254">
        <ele>464</ele>
        <time>2018-08-13T07:22:48Z</time>
      </trkpt>
      <trkpt lat="45.80651" lon="4.24263">
        <ele>463</ele>
        <time>2018-08-13T07:22:54Z</time>
      </trkpt>
      <trkpt lat="45.8065" lon="4.24273">
        <ele>463</ele>
        <time>2018-08-13T07:23:00Z</time>
      </trkpt>
      <trkpt lat="45.80651" lon="4.24281">
        <ele>463</ele>
        <time>2018-08-13T07:23:05Z</time>
      </trkpt>
      <trkpt lat="45.80652" lon="4.24287">
        <ele>463</ele>
        <time>2018-08-13T07:23:11Z</time>
      </trkpt>
      <trkpt lat="45.80658" lon="4.24293">
        <ele>463</ele>
        <time>2018-08-13T07:23:16Z</time>
      </trkpt>
      <trkpt lat="45.80662" lon="4.24299">
        <ele>463</ele>
        <time>2018-08-13T07:23:22Z</time>
      </trkpt>
      <trkpt lat="45.80668" lon="4.24306">
        <ele>466</ele>
        <time>2018-08-13T07:23:28Z</time>
      </trkpt>
      <trkpt lat="45.80673" lon="4.24312">
        <ele>466</ele>
        <time>2018-08-13T07:23:33Z</time>
      </trkpt>
      <trkpt lat="45.80679" lon="4.24321">
        <ele>466</ele>
        <time>2018-08-13T07:23:39Z</time>
      </trkpt>
      <trkpt lat="45.80684" lon="4.24327">
        <ele>466</ele>
        <time>2018-08-13T07:23:45Z</time>
      </trkpt>
      <trkpt lat="45.8069" lon="4.24333">
        <ele>466</ele>
        <time>2018-08-13T07:23:51Z</time>
      </trkpt>
      <trkpt lat="45.80696" lon="4.24339">
        <ele>464</ele>
        <time>2018-08-13T07:23:57Z</time>
      </trkpt>
      <trkpt lat="45.80702" lon="4.24345">
        <ele>463</ele>
        <time>2018-08-13T07:24:03Z</time>
      </trkpt>
      <trkpt lat="45.80706" lon="4.24346">
        <ele>464</ele>
        <time>2018-08-13T07:24:08Z</time>
      </trkpt>
      <trkpt lat="45.80712" lon="4.24349">
        <ele>464</ele>
        <time>2018-08-13T07:24:14Z</time>
      </trkpt>
      <trkpt lat="45.80717" lon="4.24351">
        <ele>464</ele>
        <time>2018-08-13T07:24:19Z</time>
      </trkpt>
      <trkpt lat="45.80723" lon="4.24353">
        <ele>464</ele>
        <time>2018-08-13T07:24:25Z</time>
      </trkpt>
      <trkpt lat="45.80729" lon="4.24361">
        <ele>464</ele>
        <time>2018-08-13T07:24:31Z</time>
      </trkpt>
      <trkpt lat="45.80733" lon="4.24366">
        <ele>464</ele>
        <time>2018-08-13T07:24:36Z</time>
      </trkpt>
      <trkpt lat="45.80738" lon="4.24368">
        <ele>463</ele>
        <time>2018-08-13T07:24:42Z</time>
      </trkpt>
      <trkpt lat="45.80743" lon="4.2437">
        <ele>463</ele>
        <time>2018-08-13T07:24:48Z</time>
      </trkpt>
      <trkpt lat="45.80751" lon="4.24375">
        <ele>466</ele>
        <time>2018-08-13T07:24:54Z</time>
      </trkpt>
      <trkpt lat="45.80756" lon="4.24379">
        <ele>466</ele>
        <time>2018-08-13T07:24:59Z</time>
      </trkpt>
      <trkpt lat="45.80761" lon="4.24384">
        <ele>465</ele>
        <time>2018-08-13T07:25:05Z</time>
      </trkpt>
      <trkpt lat="45.80766" lon="4.2439">
        <ele>465</ele>
        <time>2018-08-13T07:25:10Z</time>
      </trkpt>
      <trkpt lat="45.8077" lon="4.24393">
        <ele>465</ele>
        <time>2018-08-13T07:25:15Z</time>
      </trkpt>
      <trkpt lat="45.80773" lon="4.24396">
        <ele>465</ele>
        <time>2018-08-13T07:25:21Z</time>
      </trkpt>
      <trkpt lat="45.80779" lon="4.24401">
        <ele>465</ele>
        <time>2018-08-13T07:25:26Z</time>
      </trkpt>
      <trkpt lat="45.80784" lon="4.24406">
        <ele>465</ele>
        <time>2018-08-13T07:25:32Z</time>
      </trkpt>
      <trkpt lat="45.80791" lon="4.2441">
        <ele>465</ele>
        <time>2018-08-13T07:25:38Z</time>
      </trkpt>
      <trkpt lat="45.80797" lon="4.24413">
        <ele>466</ele>
        <time>2018-08-13T07:25:44Z</time>
      </trkpt>
      <trkpt lat="45.80804" lon="4.24419">
        <ele>459</ele>
        <time>2018-08-13T07:25:50Z</time>
      </trkpt>
      <trkpt lat="45.8081" lon="4.24424">
        <ele>460</ele>
        <time>2018-08-13T07:25:56Z</time>
      </trkpt>
      <trkpt lat="45.80814" lon="4.2443">
        <ele>460</ele>
        <time>2018-08-13T07:26:01Z</time>
      </trkpt>
      <trkpt lat="45.80821" lon="4.24435">
        <ele>460</ele>
        <time>2018-08-13T07:26:07Z</time>
      </trkpt>
      <trkpt lat="45.80828" lon="4.24441">
        <ele>459</ele>
        <time>2018-08-13T07:26:13Z</time>
      </trkpt>
      <trkpt lat="45.80834" lon="4.24444">
        <ele>461</ele>
        <time>2018-08-13T07:26:19Z</time>
      </trkpt>
      <trkpt lat="45.80839" lon="4.24447">
        <ele>460</ele>
        <time>2018-08-13T07:26:24Z</time>
      </trkpt>
      <trkpt lat="45.80845" lon="4.24451">
        <ele>460</ele>
        <time>2018-08-13T07:26:30Z</time>
      </trkpt>
      <trkpt lat="45.80852" lon="4.24456">
        <ele>459</ele>
        <time>2018-08-13T07:26:35Z</time>
      </trkpt>
      <trkpt lat="45.80857" lon="4.24459">
        <ele>459</ele>
        <time>2018-08-13T07:26:41Z</time>
      </trkpt>
      <trkpt lat="45.80862" lon="4.24459">
        <ele>459</ele>
        <time>2018-08-13T07:26:47Z</time>
      </trkpt>
      <trkpt lat="45.80873" lon="4.24462">
        <ele>459</ele>
        <time>2018-08-13T07:26:53Z</time>
      </trkpt>
      <trkpt lat="45.80877" lon="4.24463">
        <ele>459</ele>
        <time>2018-08-13T07:26:58Z</time>
      </trkpt>
      <trkpt lat="45.80883" lon="4.24467">
        <ele>459</ele>
        <time>2018-08-13T07:27:04Z</time>
      </trkpt>
      <trkpt lat="45.80889" lon="4.24468">
        <ele>459</ele>
        <time>2018-08-13T07:27:09Z</time>
      </trkpt>
      <trkpt lat="45.80896" lon="4.24472">
        <ele>458</ele>
        <time>2018-08-13T07:27:15Z</time>
      </trkpt>
      <trkpt lat="45.80902" lon="4.24472">
        <ele>458</ele>
        <time>2018-08-13T07:27:21Z</time>
      </trkpt>
      <trkpt lat="45.80909" lon="4.24475">
        <ele>458</ele>
        <time>2018-08-13T07:27:27Z</time>
      </trkpt>
      <trkpt lat="45.80912" lon="4.24477">
        <ele>458</ele>
        <time>2018-08-13T07:27:32Z</time>
      </trkpt>
      <trkpt lat="45.80918" lon="4.24478">
        <ele>461</ele>
        <time>2018-08-13T07:27:38Z</time>
      </trkpt>
      <trkpt lat="45.80928" lon="4.2448">
        <ele>461</ele>
        <time>2018-08-13T07:27:43Z</time>
      </trkpt>
      <trkpt lat="45.80932" lon="4.24484">
        <ele>461</ele>
        <time>2018-08-13T07:27:48Z</time>
      </trkpt>
      <trkpt lat="45.80937" lon="4.24488">
        <ele>461</ele>
        <time>2018-08-13T07:27:53Z</time>
      </trkpt>
      <trkpt lat="45.80938" lon="4.24494">
        <ele>461</ele>
        <time>2018-08-13T07:27:59Z</time>
      </trkpt>
      <trkpt lat="45.80937" lon="4.24504">
        <ele>458</ele>
        <time>2018-08-13T07:28:05Z</time>
      </trkpt>
      <trkpt lat="45.80935" lon="4.24513">
        <ele>458</ele>
        <time>2018-08-13T07:28:11Z</time>
      </trkpt>
      <trkpt lat="45.80931" lon="4.2452">
        <ele>458</ele>
        <time>2018-08-13T07:28:17Z</time>
      </trkpt>
      <trkpt lat="45.80929" lon="4.24527">
        <ele>458</ele>
        <time>2018-08-13T07:28:22Z</time>
      </trkpt>
      <trkpt lat="45.80926" lon="4.24533">
        <ele>458</ele>
        <time>2018-08-13T07:28:27Z</time>
      </trkpt>
      <trkpt lat="45.80924" lon="4.24541">
        <ele>458</ele>
        <time>2018-08-13T07:28:32Z</time>
      </trkpt>
      <trkpt lat="45.80922" lon="4.24548">
        <ele>458</ele>
        <time>2018-08-13T07:28:38Z</time>
      </trkpt>
      <trkpt lat="45.80921" lon="4.24554">
        <ele>458</ele>
        <time>2018-08-13T07:28:44Z</time>
      </trkpt>
      <trkpt lat="45.8092" lon="4.24563">
        <ele>457</ele>
        <time>2018-08-13T07:28:50Z</time>
      </trkpt>
      <trkpt lat="45.80919" lon="4.24569">
        <ele>456</ele>
        <time>2018-08-13T07:28:56Z</time>
      </trkpt>
      <trkpt lat="45.80919" lon="4.2457">
        <ele>456</ele>
        <time>2018-08-13T07:29:02Z</time>
      </trkpt>
      <trkpt lat="45.8092" lon="4.24571">
        <ele>456</ele>
        <time>2018-08-13T07:29:07Z</time>
      </trkpt>
      <trkpt lat="45.80921" lon="4.24573">
        <ele>456</ele>
        <time>2018-08-13T07:29:12Z</time>
      </trkpt>
      <trkpt lat="45.80922" lon="4.24574">
        <ele>456</ele>
        <time>2018-08-13T07:29:18Z</time>
      </trkpt>
      <trkpt lat="45.80921" lon="4.24574">
        <ele>456</ele>
        <time>2018-08-13T07:29:24Z</time>
      </trkpt>
      <trkpt lat="45.8092" lon="4.24572">
        <ele>456</ele>
        <time>2018-08-13T07:29:29Z</time>
      </trkpt>
      <trkpt lat="45.80919" lon="4.24571">
        <ele>456</ele>
        <time>2018-08-13T07:29:34Z</time>
      </trkpt>
      <trkpt lat="45.80919" lon="4.24572">
        <ele>456</ele>
        <time>2018-08-13T07:29:40Z</time>
      </trkpt>
      <trkpt lat="45.80919" lon="4.24571">
        <ele>456</ele>
        <time>2018-08-13T07:29:46Z</time>
      </trkpt>
      <trkpt lat="45.80919" lon="4.2457">
        <ele>456</ele>
        <time>2018-08-13T07:29:51Z</time>
      </trkpt>
      <trkpt lat="45.80918" lon="4.24571">
        <ele>456</ele>
        <time>2018-08-13T07:29:57Z</time>
      </trkpt>
      <trkpt lat="45.80918" lon="4.24573">
        <ele>455</ele>
        <time>2018-08-13T07:30:03Z</time>
      </trkpt>
      <trkpt lat="45.80918" lon="4.24572">
        <ele>456</ele>
        <time>2018-08-13T07:30:08Z</time>
      </trkpt>
      <trkpt lat="45.8092" lon="4.24574">
        <ele>455</ele>
        <time>2018-08-13T07:30:14Z</time>
      </trkpt>
      <trkpt lat="45.8092" lon="4.24575">
        <ele>455</ele>
        <time>2018-08-13T07:30:19Z</time>
      </trkpt>
      <trkpt lat="45.80919" lon="4.24575">
        <ele>455</ele>
        <time>2018-08-13T07:30:25Z</time>
      </trkpt>
      <trkpt lat="45.80917" lon="4.24574">
        <ele>455</ele>
        <time>2018-08-13T07:30:30Z</time>
      </trkpt>
      <trkpt lat="45.80918" lon="4.24575">
        <ele>455</ele>
        <time>2018-08-13T07:30:35Z</time>
      </trkpt>
      <trkpt lat="45.80918" lon="4.24582">
        <ele>454</ele>
        <time>2018-08-13T07:30:41Z</time>
      </trkpt>
      <trkpt lat="45.80917" lon="4.24589">
        <ele>453</ele>
        <time>2018-08-13T07:30:46Z</time>
      </trkpt>
      <trkpt lat="45.80918" lon="4.24599">
        <ele>453</ele>
        <time>2018-08-13T07:30:52Z</time>
      </trkpt>
      <trkpt lat="45.80918" lon="4.24604">
        <ele>452</ele>
        <time>2018-08-13T07:30:57Z</time>
      </trkpt>
      <trkpt lat="45.80924" lon="4.24612">
        <ele>452</ele>
        <time>2018-08-13T07:31:03Z</time>
      </trkpt>
      <trkpt lat="45.80927" lon="4.24619">
        <ele>451</ele>
        <time>2018-08-13T07:31:09Z</time>
      </trkpt>
      <trkpt lat="45.80929" lon="4.24624">
        <ele>451</ele>
        <time>2018-08-13T07:31:14Z</time>
      </trkpt>
      <trkpt lat="45.80933" lon="4.24628">
        <ele>451</ele>
        <time>2018-08-13T07:31:20Z</time>
      </trkpt>
      <trkpt lat="45.80936" lon="4.24635">
        <ele>450</ele>
        <time>2018-08-13T07:31:25Z</time>
      </trkpt>
      <trkpt lat="45.80939" lon="4.24647">
        <ele>449</ele>
        <time>2018-08-13T07:31:31Z</time>
      </trkpt>
      <trkpt lat="45.80941" lon="4.24652">
        <ele>449</ele>
        <time>2018-08-13T07:31:36Z</time>
      </trkpt>
      <trkpt lat="45.80944" lon="4.24655">
        <ele>449</ele>
        <time>2018-08-13T07:31:42Z</time>
      </trkpt>
      <trkpt lat="45.80948" lon="4.24663">
        <ele>449</ele>
        <time>2018-08-13T07:31:48Z</time>
      </trkpt>
      <trkpt lat="45.80954" lon="4.2467">
        <ele>439</ele>
        <time>2018-08-13T07:31:54Z</time>
      </trkpt>
      <trkpt lat="45.8096" lon="4.24675">
        <ele>439</ele>
        <time>2018-08-13T07:31:59Z</time>
      </trkpt>
      <trkpt lat="45.80964" lon="4.24679">
        <ele>439</ele>
        <time>2018-08-13T07:32:04Z</time>
      </trkpt>
      <trkpt lat="45.80971" lon="4.24682">
        <ele>439</ele>
        <time>2018-08-13T07:32:10Z</time>
      </trkpt>
      <trkpt lat="45.80977" lon="4.24687">
        <ele>439</ele>
        <time>2018-08-13T07:32:15Z</time>
      </trkpt>
      <trkpt lat="45.80982" lon="4.24691">
        <ele>439</ele>
        <time>2018-08-13T07:32:21Z</time>
      </trkpt>
      <trkpt lat="45.80989" lon="4.24694">
        <ele>439</ele>
        <time>2018-08-13T07:32:27Z</time>
      </trkpt>
      <trkpt lat="45.80994" lon="4.247">
        <ele>438</ele>
        <time>2018-08-13T07:32:32Z</time>
      </trkpt>
      <trkpt lat="45.80998" lon="4.24702">
        <ele>438</ele>
        <time>2018-08-13T07:32:37Z</time>
      </trkpt>
      <trkpt lat="45.81002" lon="4.24707">
        <ele>440</ele>
        <time>2018-08-13T07:32:42Z</time>
      </trkpt>
      <trkpt lat="45.81008" lon="4.2471">
        <ele>439</ele>
        <time>2018-08-13T07:32:48Z</time>
      </trkpt>
      <trkpt lat="45.81014" lon="4.24712">
        <ele>439</ele>
        <time>2018-08-13T07:32:53Z</time>
      </trkpt>
      <trkpt lat="45.81017" lon="4.24713">
        <ele>439</ele>
        <time>2018-08-13T07:32:58Z</time>
      </trkpt>
      <trkpt lat="45.81025" lon="4.24715">
        <ele>438</ele>
        <time>2018-08-13T07:33:05Z</time>
      </trkpt>
      <trkpt lat="45.81035" lon="4.24716">
        <ele>439</ele>
        <time>2018-08-13T07:33:10Z</time>
      </trkpt>
      <trkpt lat="45.81043" lon="4.24722">
        <ele>438</ele>
        <time>2018-08-13T07:33:15Z</time>
      </trkpt>
      <trkpt lat="45.81045" lon="4.24725">
        <ele>438</ele>
        <time>2018-08-13T07:33:21Z</time>
      </trkpt>
      <trkpt lat="45.81049" lon="4.24733">
        <ele>437</ele>
        <time>2018-08-13T07:33:26Z</time>
      </trkpt>
      <trkpt lat="45.81053" lon="4.24737">
        <ele>436</ele>
        <time>2018-08-13T07:33:32Z</time>
      </trkpt>
      <trkpt lat="45.81058" lon="4.24738">
        <ele>436</ele>
        <time>2018-08-13T07:33:37Z</time>
      </trkpt>
      <trkpt lat="45.81063" lon="4.24737">
        <ele>436</ele>
        <time>2018-08-13T07:33:43Z</time>
      </trkpt>
      <trkpt lat="45.81068" lon="4.24739">
        <ele>435</ele>
        <time>2018-08-13T07:33:49Z</time>
      </trkpt>
      <trkpt lat="45.8107" lon="4.2474">
        <ele>435</ele>
        <time>2018-08-13T07:33:54Z</time>
      </trkpt>
      <trkpt lat="45.81075" lon="4.2474">
        <ele>434</ele>
        <time>2018-08-13T07:34:00Z</time>
      </trkpt>
      <trkpt lat="45.8108" lon="4.24737">
        <ele>435</ele>
        <time>2018-08-13T07:34:05Z</time>
      </trkpt>
      <trkpt lat="45.81087" lon="4.24734">
        <ele>435</ele>
        <time>2018-08-13T07:34:10Z</time>
      </trkpt>
      <trkpt lat="45.8109" lon="4.24735">
        <ele>435</ele>
        <time>2018-08-13T07:34:16Z</time>
      </trkpt>
      <trkpt lat="45.81093" lon="4.24736">
        <ele>435</ele>
        <time>2018-08-13T07:34:21Z</time>
      </trkpt>
      <trkpt lat="45.81094" lon="4.24736">
        <ele>435</ele>
        <time>2018-08-13T07:34:26Z</time>
      </trkpt>
      <trkpt lat="45.81096" lon="4.24739">
        <ele>434</ele>
        <time>2018-08-13T07:34:32Z</time>
      </trkpt>
      <trkpt lat="45.81097" lon="4.2474">
        <ele>434</ele>
        <time>2018-08-13T07:34:37Z</time>
      </trkpt>
      <trkpt lat="45.81097" lon="4.24741">
        <ele>434</ele>
        <time>2018-08-13T07:34:43Z</time>
      </trkpt>
      <trkpt lat="45.81099" lon="4.24741">
        <ele>434</ele>
        <time>2018-08-13T07:34:49Z</time>
      </trkpt>
      <trkpt lat="45.81099" lon="4.24741">
        <ele>434</ele>
        <time>2018-08-13T07:34:55Z</time>
      </trkpt>
      <trkpt lat="45.81101" lon="4.24741">
        <ele>435</ele>
        <time>2018-08-13T07:35:01Z</time>
      </trkpt>
      <trkpt lat="45.81101" lon="4.24743">
        <ele>434</ele>
        <time>2018-08-13T07:35:07Z</time>
      </trkpt>
      <trkpt lat="45.81102" lon="4.24743">
        <ele>434</ele>
        <time>2018-08-13T07:35:12Z</time>
      </trkpt>
      <trkpt lat="45.81102" lon="4.24743">
        <ele>434</ele>
        <time>2018-08-13T07:35:18Z</time>
      </trkpt>
      <trkpt lat="45.81102" lon="4.24743">
        <ele>434</ele>
        <time>2018-08-13T07:35:24Z</time>
      </trkpt>
      <trkpt lat="45.81102" lon="4.24743">
        <ele>434</ele>
        <time>2018-08-13T07:35:29Z</time>
      </trkpt>
      <trkpt lat="45.81102" lon="4.24743">
        <ele>434</ele>
        <time>2018-08-13T07:35:35Z</time>
      </trkpt>
      <trkpt lat="45.81102" lon="4.24743">
        <ele>434</ele>
        <time>2018-08-13T07:35:41Z</time>
      </trkpt>
      <trkpt lat="45.81102" lon="4.24743">
        <ele>434</ele>
        <time>2018-08-13T07:35:47Z</time>
      </trkpt>
      <trkpt lat="45.81102" lon="4.24743">
        <ele>434</ele>
        <time>2018-08-13T07:35:52Z</time>
      </trkpt>
      <trkpt lat="45.81102" lon="4.24743">
        <ele>434</ele>
        <time>2018-08-13T07:35:58Z</time>
      </trkpt>
      <trkpt lat="45.81105" lon="4.24742">
        <ele>435</ele>
        <time>2018-08-13T07:36:03Z</time>
      </trkpt>
      <trkpt lat="45.81108" lon="4.2474">
        <ele>435</ele>
        <time>2018-08-13T07:36:08Z</time>
      </trkpt>
      <trkpt lat="45.81108" lon="4.2474">
        <ele>435</ele>
        <time>2018-08-13T07:36:14Z</time>
      </trkpt>
      <trkpt lat="45.81109" lon="4.2474">
        <ele>435</ele>
        <time>2018-08-13T07:36:20Z</time>
      </trkpt>
      <trkpt lat="45.81109" lon="4.24737">
        <ele>435</ele>
        <time>2018-08-13T07:36:25Z</time>
      </trkpt>
      <trkpt lat="45.81111" lon="4.24735">
        <ele>436</ele>
        <time>2018-08-13T07:36:31Z</time>
      </trkpt>
      <trkpt lat="45.81112" lon="4.24735">
        <ele>436</ele>
        <time>2018-08-13T07:36:37Z</time>
      </trkpt>
      <trkpt lat="45.81112" lon="4.24737">
        <ele>435</ele>
        <time>2018-08-13T07:36:43Z</time>
      </trkpt>
      <trkpt lat="45.81112" lon="4.24739">
        <ele>435</ele>
        <time>2018-08-13T07:36:48Z</time>
      </trkpt>
      <trkpt lat="45.81109" lon="4.24741">
        <ele>435</ele>
        <time>2018-08-13T07:36:54Z</time>
      </trkpt>
      <trkpt lat="45.81108" lon="4.2474">
        <ele>435</ele>
        <time>2018-08-13T07:37:00Z</time>
      </trkpt>
      <trkpt lat="45.81108" lon="4.24738">
        <ele>435</ele>
        <time>2018-08-13T07:37:06Z</time>
      </trkpt>
      <trkpt lat="45.81109" lon="4.24738">
        <ele>435</ele>
        <time>2018-08-13T07:37:11Z</time>
      </trkpt>
      <trkpt lat="45.81111" lon="4.24737">
        <ele>435</ele>
        <time>2018-08-13T07:37:17Z</time>
      </trkpt>
      <trkpt lat="45.81112" lon="4.24736">
        <ele>435</ele>
        <time>2018-08-13T07:37:23Z</time>
      </trkpt>
      <trkpt lat="45.81115" lon="4.24735">
        <ele>436</ele>
        <time>2018-08-13T07:37:29Z</time>
      </trkpt>
      <trkpt lat="45.81121" lon="4.24733">
        <ele>436</ele>
        <time>2018-08-13T07:37:35Z</time>
      </trkpt>
      <trkpt lat="45.81127" lon="4.2473">
        <ele>436</ele>
        <time>2018-08-13T07:37:41Z</time>
      </trkpt>
      <trkpt lat="45.81132" lon="4.24729">
        <ele>436</ele>
        <time>2018-08-13T07:37:46Z</time>
      </trkpt>
      <trkpt lat="45.81137" lon="4.24729">
        <ele>436</ele>
        <time>2018-08-13T07:37:52Z</time>
      </trkpt>
      <trkpt lat="45.8114" lon="4.2473">
        <ele>435</ele>
        <time>2018-08-13T07:37:57Z</time>
      </trkpt>
      <trkpt lat="45.81145" lon="4.24733">
        <ele>435</ele>
        <time>2018-08-13T07:38:03Z</time>
      </trkpt>
      <trkpt lat="45.81153" lon="4.24731">
        <ele>434</ele>
        <time>2018-08-13T07:38:09Z</time>
      </trkpt>
      <trkpt lat="45.8116" lon="4.24726">
        <ele>435</ele>
        <time>2018-08-13T07:38:15Z</time>
      </trkpt>
      <trkpt lat="45.81161" lon="4.24724">
        <ele>435</ele>
        <time>2018-08-13T07:38:20Z</time>
      </trkpt>
      <trkpt lat="45.81164" lon="4.24722">
        <ele>435</ele>
        <time>2018-08-13T07:38:26Z</time>
      </trkpt>
      <trkpt lat="45.81168" lon="4.24721">
        <ele>435</ele>
        <time>2018-08-13T07:38:32Z</time>
      </trkpt>
      <trkpt lat="45.81171" lon="4.24721">
        <ele>435</ele>
        <time>2018-08-13T07:38:37Z</time>
      </trkpt>
      <trkpt lat="45.81175" lon="4.24719">
        <ele>436</ele>
        <time>2018-08-13T07:38:43Z</time>
      </trkpt>
      <trkpt lat="45.81181" lon="4.24714">
        <ele>437</ele>
        <time>2018-08-13T07:38:49Z</time>
      </trkpt>
      <trkpt lat="45.81184" lon="4.24713">
        <ele>437</ele>
        <time>2018-08-13T07:38:55Z</time>
      </trkpt>
      <trkpt lat="45.81179" lon="4.24712">
        <ele>437</ele>
        <time>2018-08-13T07:39:01Z</time>
      </trkpt>
      <trkpt lat="45.81179" lon="4.2471">
        <ele>437</ele>
        <time>2018-08-13T07:39:07Z</time>
      </trkpt>
      <trkpt lat="45.81181" lon="4.24709">
        <ele>437</ele>
        <time>2018-08-13T07:39:12Z</time>
      </trkpt>
      <trkpt lat="45.81184" lon="4.24709">
        <ele>437</ele>
        <time>2018-08-13T07:39:18Z</time>
      </trkpt>
      <trkpt lat="45.81186" lon="4.24709">
        <ele>437</ele>
        <time>2018-08-13T07:39:24Z</time>
      </trkpt>
      <trkpt lat="45.81186" lon="4.24707">
        <ele>437</ele>
        <time>2018-08-13T07:39:30Z</time>
      </trkpt>
      <trkpt lat="45.81186" lon="4.24705">
        <ele>437</ele>
        <time>2018-08-13T07:39:36Z</time>
      </trkpt>
      <trkpt lat="45.81195" lon="4.24703">
        <ele>438</ele>
        <time>2018-08-13T07:39:42Z</time>
      </trkpt>
      <trkpt lat="45.81201" lon="4.24703">
        <ele>438</ele>
        <time>2018-08-13T07:39:48Z</time>
      </trkpt>
      <trkpt lat="45.81208" lon="4.24703">
        <ele>438</ele>
        <time>2018-08-13T07:39:54Z</time>
      </trkpt>
      <trkpt lat="45.81216" lon="4.24703">
        <ele>438</ele>
        <time>2018-08-13T07:40:00Z</time>
      </trkpt>
      <trkpt lat="45.81222" lon="4.24701">
        <ele>438</ele>
        <time>2018-08-13T07:40:06Z</time>
      </trkpt>
      <trkpt lat="45.81228" lon="4.24697">
        <ele>438</ele>
        <time>2018-08-13T07:40:12Z</time>
      </trkpt>
      <trkpt lat="45.81236" lon="4.24692">
        <ele>439</ele>
        <time>2018-08-13T07:40:18Z</time>
      </trkpt>
      <trkpt lat="45.81243" lon="4.24685">
        <ele>439</ele>
        <time>2018-08-13T07:40:24Z</time>
      </trkpt>
      <trkpt lat="45.81251" lon="4.24682">
        <ele>441</ele>
        <time>2018-08-13T07:40:30Z</time>
      </trkpt>
      <trkpt lat="45.81257" lon="4.24681">
        <ele>441</ele>
        <time>2018-08-13T07:40:36Z</time>
      </trkpt>
      <trkpt lat="45.81263" lon="4.24682">
        <ele>442</ele>
        <time>2018-08-13T07:40:42Z</time>
      </trkpt>
      <trkpt lat="45.81268" lon="4.24683">
        <ele>442</ele>
        <time>2018-08-13T07:40:48Z</time>
      </trkpt>
      <trkpt lat="45.81275" lon="4.2468">
        <ele>443</ele>
        <time>2018-08-13T07:40:54Z</time>
      </trkpt>
      <trkpt lat="45.81279" lon="4.24674">
        <ele>443</ele>
        <time>2018-08-13T07:41:00Z</time>
      </trkpt>
      <trkpt lat="45.81282" lon="4.24671">
        <ele>443</ele>
        <time>2018-08-13T07:41:05Z</time>
      </trkpt>
      <trkpt lat="45.81285" lon="4.24669">
        <ele>443</ele>
        <time>2018-08-13T07:41:10Z</time>
      </trkpt>
      <trkpt lat="45.81296" lon="4.24667">
        <ele>443</ele>
        <time>2018-08-13T07:41:16Z</time>
      </trkpt>
      <trkpt lat="45.81301" lon="4.24666">
        <ele>447</ele>
        <time>2018-08-13T07:41:22Z</time>
      </trkpt>
      <trkpt lat="45.81305" lon="4.24663">
        <ele>447</ele>
        <time>2018-08-13T07:41:28Z</time>
      </trkpt>
      <trkpt lat="45.81309" lon="4.24664">
        <ele>446</ele>
        <time>2018-08-13T07:41:34Z</time>
      </trkpt>
      <trkpt lat="45.81312" lon="4.24663">
        <ele>446</ele>
        <time>2018-08-13T07:41:40Z</time>
      </trkpt>
      <trkpt lat="45.81314" lon="4.24664">
        <ele>446</ele>
        <time>2018-08-13T07:41:46Z</time>
      </trkpt>
      <trkpt lat="45.81317" lon="4.24666">
        <ele>445</ele>
        <time>2018-08-13T07:41:52Z</time>
      </trkpt>
      <trkpt lat="45.8132" lon="4.24666">
        <ele>445</ele>
        <time>2018-08-13T07:41:58Z</time>
      </trkpt>
      <trkpt lat="45.81323" lon="4.24666">
        <ele>444</ele>
        <time>2018-08-13T07:42:04Z</time>
      </trkpt>
      <trkpt lat="45.81324" lon="4.24666">
        <ele>444</ele>
        <time>2018-08-13T07:42:10Z</time>
      </trkpt>
      <trkpt lat="45.81326" lon="4.24665">
        <ele>444</ele>
        <time>2018-08-13T07:42:16Z</time>
      </trkpt>
      <trkpt lat="45.81328" lon="4.24665">
        <ele>443</ele>
        <time>2018-08-13T07:42:22Z</time>
      </trkpt>
      <trkpt lat="45.81331" lon="4.24665">
        <ele>442</ele>
        <time>2018-08-13T07:42:28Z</time>
      </trkpt>
      <trkpt lat="45.81334" lon="4.24664">
        <ele>442</ele>
        <time>2018-08-13T07:42:34Z</time>
      </trkpt>
      <trkpt lat="45.81335" lon="4.24664">
        <ele>442</ele>
        <time>2018-08-13T07:42:40Z</time>
      </trkpt>
      <trkpt lat="45.81336" lon="4.24665">
        <ele>442</ele>
        <time>2018-08-13T07:42:46Z</time>
      </trkpt>
      <trkpt lat="45.81338" lon="4.24668">
        <ele>444</ele>
        <time>2018-08-13T07:42:52Z</time>
      </trkpt>
      <trkpt lat="45.81338" lon="4.24668">
        <ele>444</ele>
        <time>2018-08-13T07:42:58Z</time>
      </trkpt>
      <trkpt lat="45.8134" lon="4.24667">
        <ele>444</ele>
        <time>2018-08-13T07:43:04Z</time>
      </trkpt>
      <trkpt lat="45.81343" lon="4.24668">
        <ele>445</ele>
        <time>2018-08-13T07:43:10Z</time>
      </trkpt>
      <trkpt lat="45.81345" lon="4.24668">
        <ele>446</ele>
        <time>2018-08-13T07:43:16Z</time>
      </trkpt>
      <trkpt lat="45.81348" lon="4.24671">
        <ele>447</ele>
        <time>2018-08-13T07:43:22Z</time>
      </trkpt>
      <trkpt lat="45.81354" lon="4.24671">
        <ele>449</ele>
        <time>2018-08-13T07:43:28Z</time>
      </trkpt>
      <trkpt lat="45.81357" lon="4.24672">
        <ele>449</ele>
        <time>2018-08-13T07:43:34Z</time>
      </trkpt>
      <trkpt lat="45.8136" lon="4.24674">
        <ele>450</ele>
        <time>2018-08-13T07:43:40Z</time>
      </trkpt>
      <trkpt lat="45.81364" lon="4.24673">
        <ele>451</ele>
        <time>2018-08-13T07:43:45Z</time>
      </trkpt>
      <trkpt lat="45.81367" lon="4.24673">
        <ele>451</ele>
        <time>2018-08-13T07:43:50Z</time>
      </trkpt>
      <trkpt lat="45.81368" lon="4.24675">
        <ele>451</ele>
        <time>2018-08-13T07:43:56Z</time>
      </trkpt>
      <trkpt lat="45.81371" lon="4.24677">
        <ele>452</ele>
        <time>2018-08-13T07:44:02Z</time>
      </trkpt>
      <trkpt lat="45.81374" lon="4.24677">
        <ele>452</ele>
        <time>2018-08-13T07:44:08Z</time>
      </trkpt>
      <trkpt lat="45.81377" lon="4.2468">
        <ele>452</ele>
        <time>2018-08-13T07:44:13Z</time>
      </trkpt>
      <trkpt lat="45.81378" lon="4.24679">
        <ele>452</ele>
        <time>2018-08-13T07:44:18Z</time>
      </trkpt>
      <trkpt lat="45.81381" lon="4.24678">
        <ele>453</ele>
        <time>2018-08-13T07:44:23Z</time>
      </trkpt>
      <trkpt lat="45.81385" lon="4.2468">
        <ele>453</ele>
        <time>2018-08-13T07:44:29Z</time>
      </trkpt>
      <trkpt lat="45.81387" lon="4.24681">
        <ele>453</ele>
        <time>2018-08-13T07:44:35Z</time>
      </trkpt>
      <trkpt lat="45.8139" lon="4.24681">
        <ele>453</ele>
        <time>2018-08-13T07:44:41Z</time>
      </trkpt>
      <trkpt lat="45.81393" lon="4.2468">
        <ele>453</ele>
        <time>2018-08-13T07:44:47Z</time>
      </trkpt>
      <trkpt lat="45.81397" lon="4.2468">
        <ele>453</ele>
        <time>2018-08-13T07:44:53Z</time>
      </trkpt>
      <trkpt lat="45.81401" lon="4.24683">
        <ele>453</ele>
        <time>2018-08-13T07:44:59Z</time>
      </trkpt>
      <trkpt lat="45.81404" lon="4.24683">
        <ele>453</ele>
        <time>2018-08-13T07:45:05Z</time>
      </trkpt>
      <trkpt lat="45.81408" lon="4.24682">
        <ele>453</ele>
        <time>2018-08-13T07:45:10Z</time>
      </trkpt>
      <trkpt lat="45.81411" lon="4.24682">
        <ele>453</ele>
        <time>2018-08-13T07:45:15Z</time>
      </trkpt>
      <trkpt lat="45.81416" lon="4.24685">
        <ele>453</ele>
        <time>2018-08-13T07:45:21Z</time>
      </trkpt>
      <trkpt lat="45.81417" lon="4.24685">
        <ele>457</ele>
        <time>2018-08-13T07:45:27Z</time>
      </trkpt>
      <trkpt lat="45.81418" lon="4.24686">
        <ele>457</ele>
        <time>2018-08-13T07:45:32Z</time>
      </trkpt>
      <trkpt lat="45.81421" lon="4.24686">
        <ele>457</ele>
        <time>2018-08-13T07:45:38Z</time>
      </trkpt>
      <trkpt lat="45.81423" lon="4.24688">
        <ele>458</ele>
        <time>2018-08-13T07:45:43Z</time>
      </trkpt>
      <trkpt lat="45.81432" lon="4.2469">
        <ele>459</ele>
        <time>2018-08-13T07:45:48Z</time>
      </trkpt>
      <trkpt lat="45.81436" lon="4.24691">
        <ele>460</ele>
        <time>2018-08-13T07:45:53Z</time>
      </trkpt>
      <trkpt lat="45.81437" lon="4.24696">
        <ele>461</ele>
        <time>2018-08-13T07:45:59Z</time>
      </trkpt>
      <trkpt lat="45.81437" lon="4.24698">
        <ele>461</ele>
        <time>2018-08-13T07:46:04Z</time>
      </trkpt>
      <trkpt lat="45.81435" lon="4.24699">
        <ele>461</ele>
        <time>2018-08-13T07:46:10Z</time>
      </trkpt>
      <trkpt lat="45.8143" lon="4.24705">
        <ele>462</ele>
        <time>2018-08-13T07:46:15Z</time>
      </trkpt>
      <trkpt lat="45.81426" lon="4.24711">
        <ele>463</ele>
        <time>2018-08-13T07:46:21Z</time>
      </trkpt>
      <trkpt lat="45.81424" lon="4.24714">
        <ele>464</ele>
        <time>2018-08-13T07:46:27Z</time>
      </trkpt>
      <trkpt lat="45.81422" lon="4.24716">
        <ele>464</ele>
        <time>2018-08-13T07:46:32Z</time>
      </trkpt>
      <trkpt lat="45.81419" lon="4.24718">
        <ele>465</ele>
        <time>2018-08-13T07:46:38Z</time>
      </trkpt>
      <trkpt lat="45.81418" lon="4.2472">
        <ele>465</ele>
        <time>2018-08-13T07:46:43Z</time>
      </trkpt>
      <trkpt lat="45.81419" lon="4.24719">
        <ele>465</ele>
        <time>2018-08-13T07:46:49Z</time>
      </trkpt>
      <trkpt lat="45.8142" lon="4.24718">
        <ele>465</ele>
        <time>2018-08-13T07:46:54Z</time>
      </trkpt>
      <trkpt lat="45.81421" lon="4.24721">
        <ele>465</ele>
        <time>2018-08-13T07:46:59Z</time>
      </trkpt>
      <trkpt lat="45.81425" lon="4.2472">
        <ele>465</ele>
        <time>2018-08-13T07:47:05Z</time>
      </trkpt>
      <trkpt lat="45.81429" lon="4.24718">
        <ele>465</ele>
        <time>2018-08-13T07:47:10Z</time>
      </trkpt>
      <trkpt lat="45.81432" lon="4.24716">
        <ele>464</ele>
        <time>2018-08-13T07:47:16Z</time>
      </trkpt>
      <trkpt lat="45.81434" lon="4.24716">
        <ele>464</ele>
        <time>2018-08-13T07:47:21Z</time>
      </trkpt>
      <trkpt lat="45.81439" lon="4.24715">
        <ele>464</ele>
        <time>2018-08-13T07:47:27Z</time>
      </trkpt>
      <trkpt lat="45.81443" lon="4.24713">
        <ele>464</ele>
        <time>2018-08-13T07:47:33Z</time>
      </trkpt>
      <trkpt lat="45.81446" lon="4.24711">
        <ele>464</ele>
        <time>2018-08-13T07:47:39Z</time>
      </trkpt>
      <trkpt lat="45.81449" lon="4.24712">
        <ele>464</ele>
        <time>2018-08-13T07:47:44Z</time>
      </trkpt>
      <trkpt lat="45.81452" lon="4.2471">
        <ele>464</ele>
        <time>2018-08-13T07:47:50Z</time>
      </trkpt>
      <trkpt lat="45.81454" lon="4.24711">
        <ele>464</ele>
        <time>2018-08-13T07:47:56Z</time>
      </trkpt>
      <trkpt lat="45.81453" lon="4.24712">
        <ele>464</ele>
        <time>2018-08-13T07:48:02Z</time>
      </trkpt>
      <trkpt lat="45.81452" lon="4.24712">
        <ele>464</ele>
        <time>2018-08-13T07:48:07Z</time>
      </trkpt>
      <trkpt lat="45.81453" lon="4.2471">
        <ele>464</ele>
        <time>2018-08-13T07:48:12Z</time>
      </trkpt>
      <trkpt lat="45.81455" lon="4.2471">
        <ele>464</ele>
        <time>2018-08-13T07:48:18Z</time>
      </trkpt>
      <trkpt lat="45.81457" lon="4.24712">
        <ele>464</ele>
        <time>2018-08-13T07:48:23Z</time>
      </trkpt>
      <trkpt lat="45.81456" lon="4.24712">
        <ele>464</ele>
        <time>2018-08-13T07:48:29Z</time>
      </trkpt>
      <trkpt lat="45.81454" lon="4.24709">
        <ele>463</ele>
        <time>2018-08-13T07:48:35Z</time>
      </trkpt>
      <trkpt lat="45.81454" lon="4.24706">
        <ele>463</ele>
        <time>2018-08-13T07:48:41Z</time>
      </trkpt>
      <trkpt lat="45.81454" lon="4.24706">
        <ele>463</ele>
        <time>2018-08-13T07:48:47Z</time>
      </trkpt>
      <trkpt lat="45.81454" lon="4.24707">
        <ele>463</ele>
        <time>2018-08-13T07:48:52Z</time>
      </trkpt>
      <trkpt lat="45.81452" lon="4.24709">
        <ele>463</ele>
        <time>2018-08-13T07:48:57Z</time>
      </trkpt>
      <trkpt lat="45.81451" lon="4.2471">
        <ele>464</ele>
        <time>2018-08-13T07:49:03Z</time>
      </trkpt>
      <trkpt lat="45.81451" lon="4.2471">
        <ele>464</ele>
        <time>2018-08-13T07:49:08Z</time>
      </trkpt>
      <trkpt lat="45.81453" lon="4.2471">
        <ele>464</ele>
        <time>2018-08-13T07:49:13Z</time>
      </trkpt>
      <trkpt lat="45.81453" lon="4.2471">
        <ele>464</ele>
        <time>2018-08-13T07:49:18Z</time>
      </trkpt>
      <trkpt lat="45.81453" lon="4.2471">
        <ele>464</ele>
        <time>2018-08-13T07:49:24Z</time>
      </trkpt>
      <trkpt lat="45.81453" lon="4.2471">
        <ele>464</ele>
        <time>2018-08-13T07:49:30Z</time>
      </trkpt>
      <trkpt lat="45.81454" lon="4.24709">
        <ele>463</ele>
        <time>2018-08-13T07:49:36Z</time>
      </trkpt>
      <trkpt lat="45.81454" lon="4.24709">
        <ele>463</ele>
        <time>2018-08-13T07:49:42Z</time>
      </trkpt>
      <trkpt lat="45.81457" lon="4.2471">
        <ele>464</ele>
        <time>2018-08-13T07:49:48Z</time>
      </trkpt>
      <trkpt lat="45.81463" lon="4.24709">
        <ele>464</ele>
        <time>2018-08-13T07:49:54Z</time>
      </trkpt>
      <trkpt lat="45.81466" lon="4.2471">
        <ele>464</ele>
        <time>2018-08-13T07:49:59Z</time>
      </trkpt>
      <trkpt lat="45.81469" lon="4.24709">
        <ele>464</ele>
        <time>2018-08-13T07:50:05Z</time>
      </trkpt>
      <trkpt lat="45.81471" lon="4.24709">
        <ele>464</ele>
        <time>2018-08-13T07:50:10Z</time>
      </trkpt>
      <trkpt lat="45.81476" lon="4.24707">
        <ele>464</ele>
        <time>2018-08-13T07:50:16Z</time>
      </trkpt>
      <trkpt lat="45.8148" lon="4.24707">
        <ele>464</ele>
        <time>2018-08-13T07:50:21Z</time>
      </trkpt>
      <trkpt lat="45.81488" lon="4.24706">
        <ele>464</ele>
        <time>2018-08-13T07:50:27Z</time>
      </trkpt>
      <trkpt lat="45.81491" lon="4.24705">
        <ele>464</ele>
        <time>2018-08-13T07:50:32Z</time>
      </trkpt>
      <trkpt lat="45.81491" lon="4.24705">
        <ele>464</ele>
        <time>2018-08-13T07:50:38Z</time>
      </trkpt>
      <trkpt lat="45.81493" lon="4.24704">
        <ele>463</ele>
        <time>2018-08-13T07:50:43Z</time>
      </trkpt>
      <trkpt lat="45.81496" lon="4.24703">
        <ele>463</ele>
        <time>2018-08-13T07:50:49Z</time>
      </trkpt>
      <trkpt lat="45.81503" lon="4.247">
        <ele>464</ele>
        <time>2018-08-13T07:50:54Z</time>
      </trkpt>
      <trkpt lat="45.81509" lon="4.24701">
        <ele>464</ele>
        <time>2018-08-13T07:51:00Z</time>
      </trkpt>
      <trkpt lat="45.81516" lon="4.24702">
        <ele>464</ele>
        <time>2018-08-13T07:51:06Z</time>
      </trkpt>
      <trkpt lat="45.81519" lon="4.24703">
        <ele>465</ele>
        <time>2018-08-13T07:51:11Z</time>
      </trkpt>
      <trkpt lat="45.81526" lon="4.24703">
        <ele>465</ele>
        <time>2018-08-13T07:51:17Z</time>
      </trkpt>
      <trkpt lat="45.81531" lon="4.24703">
        <ele>465</ele>
        <time>2018-08-13T07:51:22Z</time>
      </trkpt>
      <trkpt lat="45.81536" lon="4.24703">
        <ele>465</ele>
        <time>2018-08-13T07:51:28Z</time>
      </trkpt>
      <trkpt lat="45.81542" lon="4.24704">
        <ele>465</ele>
        <time>2018-08-13T07:51:34Z</time>
      </trkpt>
      <trkpt lat="45.81547" lon="4.24706">
        <ele>465</ele>
        <time>2018-08-13T07:51:39Z</time>
      </trkpt>
      <trkpt lat="45.81555" lon="4.24709">
        <ele>466</ele>
        <time>2018-08-13T07:51:45Z</time>
      </trkpt>
      <trkpt lat="45.8156" lon="4.24709">
        <ele>466</ele>
        <time>2018-08-13T07:51:50Z</time>
      </trkpt>
      <trkpt lat="45.81566" lon="4.2471">
        <ele>466</ele>
        <time>2018-08-13T07:51:56Z</time>
      </trkpt>
      <trkpt lat="45.81571" lon="4.24711">
        <ele>466</ele>
        <time>2018-08-13T07:52:02Z</time>
      </trkpt>
      <trkpt lat="45.81573" lon="4.24713">
        <ele>467</ele>
        <time>2018-08-13T07:52:07Z</time>
      </trkpt>
      <trkpt lat="45.81577" lon="4.24715">
        <ele>467</ele>
        <time>2018-08-13T07:52:13Z</time>
      </trkpt>
      <trkpt lat="45.81585" lon="4.24718">
        <ele>466</ele>
        <time>2018-08-13T07:52:18Z</time>
      </trkpt>
      <trkpt lat="45.81591" lon="4.24724">
        <ele>467</ele>
        <time>2018-08-13T07:52:24Z</time>
      </trkpt>
      <trkpt lat="45.81595" lon="4.24726">
        <ele>467</ele>
        <time>2018-08-13T07:52:29Z</time>
      </trkpt>
      <trkpt lat="45.81599" lon="4.24728">
        <ele>467</ele>
        <time>2018-08-13T07:52:34Z</time>
      </trkpt>
      <trkpt lat="45.81603" lon="4.2473">
        <ele>467</ele>
        <time>2018-08-13T07:52:40Z</time>
      </trkpt>
      <trkpt lat="45.81607" lon="4.24731">
        <ele>467</ele>
        <time>2018-08-13T07:52:46Z</time>
      </trkpt>
      <trkpt lat="45.81613" lon="4.24734">
        <ele>466</ele>
        <time>2018-08-13T07:52:52Z</time>
      </trkpt>
      <trkpt lat="45.81621" lon="4.24739">
        <ele>466</ele>
        <time>2018-08-13T07:52:58Z</time>
      </trkpt>
      <trkpt lat="45.81628" lon="4.24743">
        <ele>466</ele>
        <time>2018-08-13T07:53:04Z</time>
      </trkpt>
      <trkpt lat="45.81632" lon="4.24745">
        <ele>465</ele>
        <time>2018-08-13T07:53:10Z</time>
      </trkpt>
      <trkpt lat="45.81636" lon="4.2475">
        <ele>465</ele>
        <time>2018-08-13T07:53:15Z</time>
      </trkpt>
      <trkpt lat="45.81639" lon="4.24753">
        <ele>476</ele>
        <time>2018-08-13T07:53:21Z</time>
      </trkpt>
      <trkpt lat="45.81643" lon="4.24758">
        <ele>475</ele>
        <time>2018-08-13T07:53:27Z</time>
      </trkpt>
      <trkpt lat="45.81649" lon="4.24764">
        <ele>475</ele>
        <time>2018-08-13T07:53:32Z</time>
      </trkpt>
      <trkpt lat="45.81652" lon="4.24766">
        <ele>475</ele>
        <time>2018-08-13T07:53:37Z</time>
      </trkpt>
      <trkpt lat="45.81656" lon="4.24768">
        <ele>474</ele>
        <time>2018-08-13T07:53:43Z</time>
      </trkpt>
      <trkpt lat="45.8166" lon="4.24771">
        <ele>475</ele>
        <time>2018-08-13T07:53:49Z</time>
      </trkpt>
      <trkpt lat="45.81662" lon="4.24773">
        <ele>475</ele>
        <time>2018-08-13T07:53:55Z</time>
      </trkpt>
      <trkpt lat="45.81663" lon="4.24776">
        <ele>476</ele>
        <time>2018-08-13T07:54:01Z</time>
      </trkpt>
      <trkpt lat="45.81662" lon="4.24778">
        <ele>476</ele>
        <time>2018-08-13T07:54:06Z</time>
      </trkpt>
      <trkpt lat="45.81662" lon="4.24778">
        <ele>476</ele>
        <time>2018-08-13T07:54:12Z</time>
      </trkpt>
      <trkpt lat="45.81662" lon="4.24778">
        <ele>476</ele>
        <time>2018-08-13T07:54:17Z</time>
      </trkpt>
      <trkpt lat="45.81663" lon="4.24777">
        <ele>476</ele>
        <time>2018-08-13T07:54:23Z</time>
      </trkpt>
      <trkpt lat="45.8166" lon="4.24777">
        <ele>476</ele>
        <time>2018-08-13T07:54:28Z</time>
      </trkpt>
      <trkpt lat="45.81658" lon="4.24779">
        <ele>477</ele>
        <time>2018-08-13T07:54:34Z</time>
      </trkpt>
      <trkpt lat="45.81657" lon="4.2478">
        <ele>477</ele>
        <time>2018-08-13T07:54:39Z</time>
      </trkpt>
      <trkpt lat="45.81656" lon="4.24781">
        <ele>477</ele>
        <time>2018-08-13T07:54:45Z</time>
      </trkpt>
      <trkpt lat="45.81656" lon="4.24781">
        <ele>477</ele>
        <time>2018-08-13T07:54:50Z</time>
      </trkpt>
      <trkpt lat="45.81657" lon="4.24783">
        <ele>477</ele>
        <time>2018-08-13T07:54:56Z</time>
      </trkpt>
      <trkpt lat="45.81663" lon="4.24789">
        <ele>478</ele>
        <time>2018-08-13T07:55:02Z</time>
      </trkpt>
      <trkpt lat="45.81666" lon="4.24794">
        <ele>479</ele>
        <time>2018-08-13T07:55:08Z</time>
      </trkpt>
      <trkpt lat="45.8167" lon="4.24801">
        <ele>470</ele>
        <time>2018-08-13T07:55:14Z</time>
      </trkpt>
      <trkpt lat="45.81672" lon="4.24807">
        <ele>471</ele>
        <time>2018-08-13T07:55:19Z</time>
      </trkpt>
      <trkpt lat="45.81672" lon="4.24813">
        <ele>472</ele>
        <time>2018-08-13T07:55:25Z</time>
      </trkpt>
      <trkpt lat="45.81671" lon="4.2482">
        <ele>474</ele>
        <time>2018-08-13T07:55:30Z</time>
      </trkpt>
      <trkpt lat="45.8167" lon="4.24828">
        <ele>477</ele>
        <time>2018-08-13T07:55:36Z</time>
      </trkpt>
      <trkpt lat="45.81671" lon="4.24835">
        <ele>479</ele>
        <time>2018-08-13T07:55:42Z</time>
      </trkpt>
      <trkpt lat="45.81668" lon="4.2485">
        <ele>476</ele>
        <time>2018-08-13T07:55:48Z</time>
      </trkpt>
      <trkpt lat="45.81666" lon="4.24858">
        <ele>487</ele>
        <time>2018-08-13T07:55:54Z</time>
      </trkpt>
      <trkpt lat="45.81665" lon="4.24863">
        <ele>488</ele>
        <time>2018-08-13T07:55:59Z</time>
      </trkpt>
      <trkpt lat="45.81664" lon="4.24868">
        <ele>488</ele>
        <time>2018-08-13T07:56:05Z</time>
      </trkpt>
      <trkpt lat="45.81662" lon="4.24879">
        <ele>489</ele>
        <time>2018-08-13T07:56:11Z</time>
      </trkpt>
      <trkpt lat="45.8166" lon="4.24885">
        <ele>489</ele>
        <time>2018-08-13T07:56:17Z</time>
      </trkpt>
      <trkpt lat="45.81658" lon="4.2489">
        <ele>489</ele>
        <time>2018-08-13T07:56:22Z</time>
      </trkpt>
      <trkpt lat="45.81656" lon="4.24899">
        <ele>489</ele>
        <time>2018-08-13T07:56:28Z</time>
      </trkpt>
      <trkpt lat="45.81653" lon="4.24903">
        <ele>489</ele>
        <time>2018-08-13T07:56:33Z</time>
      </trkpt>
      <trkpt lat="45.81651" lon="4.24909">
        <ele>489</ele>
        <time>2018-08-13T07:56:39Z</time>
      </trkpt>
      <trkpt lat="45.81648" lon="4.24917">
        <ele>491</ele>
        <time>2018-08-13T07:56:44Z</time>
      </trkpt>
      <trkpt lat="45.81644" lon="4.24931">
        <ele>492</ele>
        <time>2018-08-13T07:56:49Z</time>
      </trkpt>
      <trkpt lat="45.81641" lon="4.2494">
        <ele>493</ele>
        <time>2018-08-13T07:56:55Z</time>
      </trkpt>
      <trkpt lat="45.81637" lon="4.24946">
        <ele>494</ele>
        <time>2018-08-13T07:57:01Z</time>
      </trkpt>
      <trkpt lat="45.81634" lon="4.24955">
        <ele>495</ele>
        <time>2018-08-13T07:57:07Z</time>
      </trkpt>
      <trkpt lat="45.81627" lon="4.24961">
        <ele>496</ele>
        <time>2018-08-13T07:57:13Z</time>
      </trkpt>
      <trkpt lat="45.81619" lon="4.24967">
        <ele>496</ele>
        <time>2018-08-13T07:57:19Z</time>
      </trkpt>
      <trkpt lat="45.81612" lon="4.24972">
        <ele>497</ele>
        <time>2018-08-13T07:57:25Z</time>
      </trkpt>
      <trkpt lat="45.81607" lon="4.24976">
        <ele>498</ele>
        <time>2018-08-13T07:57:31Z</time>
      </trkpt>
      <trkpt lat="45.816" lon="4.24982">
        <ele>499</ele>
        <time>2018-08-13T07:57:37Z</time>
      </trkpt>
      <trkpt lat="45.81596" lon="4.24989">
        <ele>500</ele>
        <time>2018-08-13T07:57:43Z</time>
      </trkpt>
      <trkpt lat="45.81591" lon="4.24995">
        <ele>501</ele>
        <time>2018-08-13T07:57:49Z</time>
      </trkpt>
      <trkpt lat="45.81584" lon="4.24996">
        <ele>502</ele>
        <time>2018-08-13T07:57:55Z</time>
      </trkpt>
      <trkpt lat="45.81581" lon="4.24996">
        <ele>503</ele>
        <time>2018-08-13T07:58:01Z</time>
      </trkpt>
      <trkpt lat="45.81574" lon="4.25004">
        <ele>503</ele>
        <time>2018-08-13T07:58:07Z</time>
      </trkpt>
      <trkpt lat="45.8157" lon="4.25005">
        <ele>502</ele>
        <time>2018-08-13T07:58:12Z</time>
      </trkpt>
      <trkpt lat="45.81564" lon="4.25008">
        <ele>502</ele>
        <time>2018-08-13T07:58:18Z</time>
      </trkpt>
      <trkpt lat="45.81558" lon="4.25009">
        <ele>502</ele>
        <time>2018-08-13T07:58:23Z</time>
      </trkpt>
      <trkpt lat="45.81554" lon="4.25012">
        <ele>502</ele>
        <time>2018-08-13T07:58:28Z</time>
      </trkpt>
      <trkpt lat="45.8155" lon="4.25014">
        <ele>502</ele>
        <time>2018-08-13T07:58:34Z</time>
      </trkpt>
      <trkpt lat="45.81544" lon="4.2502">
        <ele>502</ele>
        <time>2018-08-13T07:58:40Z</time>
      </trkpt>
      <trkpt lat="45.81537" lon="4.25022">
        <ele>501</ele>
        <time>2018-08-13T07:58:45Z</time>
      </trkpt>
      <trkpt lat="45.8153" lon="4.25028">
        <ele>501</ele>
        <time>2018-08-13T07:58:50Z</time>
      </trkpt>
      <trkpt lat="45.81529" lon="4.25031">
        <ele>501</ele>
        <time>2018-08-13T07:58:55Z</time>
      </trkpt>
      <trkpt lat="45.81526" lon="4.25036">
        <ele>501</ele>
        <time>2018-08-13T07:59:01Z</time>
      </trkpt>
      <trkpt lat="45.81525" lon="4.25045">
        <ele>501</ele>
        <time>2018-08-13T07:59:06Z</time>
      </trkpt>
      <trkpt lat="45.81527" lon="4.25051">
        <ele>501</ele>
        <time>2018-08-13T07:59:12Z</time>
      </trkpt>
      <trkpt lat="45.81529" lon="4.25058">
        <ele>501</ele>
        <time>2018-08-13T07:59:17Z</time>
      </trkpt>
      <trkpt lat="45.81529" lon="4.25059">
        <ele>501</ele>
        <time>2018-08-13T07:59:23Z</time>
      </trkpt>
      <trkpt lat="45.81527" lon="4.25059">
        <ele>501</ele>
        <time>2018-08-13T07:59:29Z</time>
      </trkpt>
      <trkpt lat="45.81526" lon="4.25059">
        <ele>501</ele>
        <time>2018-08-13T07:59:34Z</time>
      </trkpt>
      <trkpt lat="45.81526" lon="4.2506">
        <ele>501</ele>
        <time>2018-08-13T07:59:40Z</time>
      </trkpt>
      <trkpt lat="45.81526" lon="4.2506">
        <ele>501</ele>
        <time>2018-08-13T07:59:46Z</time>
      </trkpt>
      <trkpt lat="45.81526" lon="4.2506">
        <ele>501</ele>
        <time>2018-08-13T07:59:51Z</time>
      </trkpt>
      <trkpt lat="45.81526" lon="4.2506">
        <ele>501</ele>
        <time>2018-08-13T07:59:56Z</time>
      </trkpt>
      <trkpt lat="45.81526" lon="4.2506">
        <ele>501</ele>
        <time>2018-08-13T08:00:02Z</time>
      </trkpt>
      <trkpt lat="45.81526" lon="4.2506">
        <ele>501</ele>
        <time>2018-08-13T08:00:08Z</time>
      </trkpt>
      <trkpt lat="45.81526" lon="4.2506">
        <ele>501</ele>
        <time>2018-08-13T08:00:13Z</time>
      </trkpt>
      <trkpt lat="45.81526" lon="4.2506">
        <ele>501</ele>
        <time>2018-08-13T08:00:18Z</time>
      </trkpt>
      <trkpt lat="45.81526" lon="4.2506">
        <ele>501</ele>
        <time>2018-08-13T08:00:24Z</time>
      </trkpt>
      <trkpt lat="45.81526" lon="4.2506">
        <ele>501</ele>
        <time>2018-08-13T08:00:29Z</time>
      </trkpt>
      <trkpt lat="45.81526" lon="4.2506">
        <ele>501</ele>
        <time>2018-08-13T08:00:35Z</time>
      </trkpt>
      <trkpt lat="45.81526" lon="4.2506">
        <ele>501</ele>
        <time>2018-08-13T08:00:41Z</time>
      </trkpt>
      <trkpt lat="45.81526" lon="4.2506">
        <ele>501</ele>
        <time>2018-08-13T08:00:46Z</time>
      </trkpt>
      <trkpt lat="45.81526" lon="4.2506">
        <ele>501</ele>
        <time>2018-08-13T08:00:52Z</time>
      </trkpt>
      <trkpt lat="45.81526" lon="4.2506">
        <ele>501</ele>
        <time>2018-08-13T08:00:57Z</time>
      </trkpt>
      <trkpt lat="45.81526" lon="4.2506">
        <ele>501</ele>
        <time>2018-08-13T08:01:03Z</time>
      </trkpt>
      <trkpt lat="45.81526" lon="4.2506">
        <ele>501</ele>
        <time>2018-08-13T08:01:09Z</time>
      </trkpt>
      <trkpt lat="45.81526" lon="4.2506">
        <ele>501</ele>
        <time>2018-08-13T08:01:14Z</time>
      </trkpt>
      <trkpt lat="45.81526" lon="4.25061">
        <ele>501</ele>
        <time>2018-08-13T08:01:20Z</time>
      </trkpt>
      <trkpt lat="45.81526" lon="4.25061">
        <ele>501</ele>
        <time>2018-08-13T08:01:25Z</time>
      </trkpt>
      <trkpt lat="45.81526" lon="4.25061">
        <ele>501</ele>
        <time>2018-08-13T08:01:31Z</time>
      </trkpt>
      <trkpt lat="45.81526" lon="4.25061">
        <ele>501</ele>
        <time>2018-08-13T08:01:36Z</time>
      </trkpt>
      <trkpt lat="45.81526" lon="4.25061">
        <ele>501</ele>
        <time>2018-08-13T08:01:41Z</time>
      </trkpt>
      <trkpt lat="45.81528" lon="4.25065">
        <ele>501</ele>
        <time>2018-08-13T08:01:46Z</time>
      </trkpt>
      <trkpt lat="45.81529" lon="4.2507">
        <ele>501</ele>
        <time>2018-08-13T08:01:52Z</time>
      </trkpt>
      <trkpt lat="45.81533" lon="4.25076">
        <ele>501</ele>
        <time>2018-08-13T08:01:58Z</time>
      </trkpt>
      <trkpt lat="45.81536" lon="4.25081">
        <ele>501</ele>
        <time>2018-08-13T08:02:04Z</time>
      </trkpt>
      <trkpt lat="45.81539" lon="4.25086">
        <ele>501</ele>
        <time>2018-08-13T08:02:10Z</time>
      </trkpt>
      <trkpt lat="45.81543" lon="4.25094">
        <ele>501</ele>
        <time>2018-08-13T08:02:15Z</time>
      </trkpt>
      <trkpt lat="45.81547" lon="4.251">
        <ele>501</ele>
        <time>2018-08-13T08:02:21Z</time>
      </trkpt>
      <trkpt lat="45.81552" lon="4.25107">
        <ele>501</ele>
        <time>2018-08-13T08:02:27Z</time>
      </trkpt>
      <trkpt lat="45.81558" lon="4.25113">
        <ele>502</ele>
        <time>2018-08-13T08:02:33Z</time>
      </trkpt>
      <trkpt lat="45.81563" lon="4.25122">
        <ele>502</ele>
        <time>2018-08-13T08:02:39Z</time>
      </trkpt>
      <trkpt lat="45.81565" lon="4.25128">
        <ele>502</ele>
        <time>2018-08-13T08:02:44Z</time>
      </trkpt>
      <trkpt lat="45.81568" lon="4.25134">
        <ele>502</ele>
        <time>2018-08-13T08:02:49Z</time>
      </trkpt>
      <trkpt lat="45.81571" lon="4.25137">
        <ele>502</ele>
        <time>2018-08-13T08:02:54Z</time>
      </trkpt>
      <trkpt lat="45.81575" lon="4.25141">
        <ele>502</ele>
        <time>2018-08-13T08:03:00Z</time>
      </trkpt>
      <trkpt lat="45.81578" lon="4.25147">
        <ele>503</ele>
        <time>2018-08-13T08:03:05Z</time>
      </trkpt>
      <trkpt lat="45.81586" lon="4.25161">
        <ele>504</ele>
        <time>2018-08-13T08:03:11Z</time>
      </trkpt>
      <trkpt lat="45.81589" lon="4.25169">
        <ele>505</ele>
        <time>2018-08-13T08:03:16Z</time>
      </trkpt>
      <trkpt lat="45.81591" lon="4.25174">
        <ele>506</ele>
        <time>2018-08-13T08:03:22Z</time>
      </trkpt>
      <trkpt lat="45.81593" lon="4.25179">
        <ele>506</ele>
        <time>2018-08-13T08:03:28Z</time>
      </trkpt>
      <trkpt lat="45.81595" lon="4.25184">
        <ele>506</ele>
        <time>2018-08-13T08:03:33Z</time>
      </trkpt>
      <trkpt lat="45.81599" lon="4.25195">
        <ele>507</ele>
        <time>2018-08-13T08:03:39Z</time>
      </trkpt>
      <trkpt lat="45.81603" lon="4.252">
        <ele>507</ele>
        <time>2018-08-13T08:03:45Z</time>
      </trkpt>
      <trkpt lat="45.81605" lon="4.25207">
        <ele>507</ele>
        <time>2018-08-13T08:03:51Z</time>
      </trkpt>
      <trkpt lat="45.8161" lon="4.25217">
        <ele>507</ele>
        <time>2018-08-13T08:03:56Z</time>
      </trkpt>
      <trkpt lat="45.81613" lon="4.25222">
        <ele>508</ele>
        <time>2018-08-13T08:04:02Z</time>
      </trkpt>
      <trkpt lat="45.8162" lon="4.25227">
        <ele>508</ele>
        <time>2018-08-13T08:04:07Z</time>
      </trkpt>
      <trkpt lat="45.81622" lon="4.25231">
        <ele>508</ele>
        <time>2018-08-13T08:04:12Z</time>
      </trkpt>
      <trkpt lat="45.81626" lon="4.25235">
        <ele>508</ele>
        <time>2018-08-13T08:04:18Z</time>
      </trkpt>
      <trkpt lat="45.8163" lon="4.2524">
        <ele>508</ele>
        <time>2018-08-13T08:04:23Z</time>
      </trkpt>
      <trkpt lat="45.81634" lon="4.25245">
        <ele>508</ele>
        <time>2018-08-13T08:04:28Z</time>
      </trkpt>
      <trkpt lat="45.8164" lon="4.25253">
        <ele>508</ele>
        <time>2018-08-13T08:04:34Z</time>
      </trkpt>
      <trkpt lat="45.81646" lon="4.25258">
        <ele>508</ele>
        <time>2018-08-13T08:04:39Z</time>
      </trkpt>
      <trkpt lat="45.81651" lon="4.25264">
        <ele>508</ele>
        <time>2018-08-13T08:04:45Z</time>
      </trkpt>
      <trkpt lat="45.81654" lon="4.25269">
        <ele>508</ele>
        <time>2018-08-13T08:04:50Z</time>
      </trkpt>
      <trkpt lat="45.81659" lon="4.25276">
        <ele>508</ele>
        <time>2018-08-13T08:04:55Z</time>
      </trkpt>
      <trkpt lat="45.81664" lon="4.25283">
        <ele>508</ele>
        <time>2018-08-13T08:05:00Z</time>
      </trkpt>
      <trkpt lat="45.81667" lon="4.25285">
        <ele>509</ele>
        <time>2018-08-13T08:05:05Z</time>
      </trkpt>
      <trkpt lat="45.81673" lon="4.25288">
        <ele>509</ele>
        <time>2018-08-13T08:05:10Z</time>
      </trkpt>
      <trkpt lat="45.81678" lon="4.25298">
        <ele>508</ele>
        <time>2018-08-13T08:05:16Z</time>
      </trkpt>
      <trkpt lat="45.81682" lon="4.25304">
        <ele>508</ele>
        <time>2018-08-13T08:05:22Z</time>
      </trkpt>
      <trkpt lat="45.81685" lon="4.2531">
        <ele>508</ele>
        <time>2018-08-13T08:05:27Z</time>
      </trkpt>
      <trkpt lat="45.8169" lon="4.25317">
        <ele>507</ele>
        <time>2018-08-13T08:05:33Z</time>
      </trkpt>
      <trkpt lat="45.81698" lon="4.25329">
        <ele>507</ele>
        <time>2018-08-13T08:05:39Z</time>
      </trkpt>
      <trkpt lat="45.81702" lon="4.25334">
        <ele>504</ele>
        <time>2018-08-13T08:05:45Z</time>
      </trkpt>
      <trkpt lat="45.81708" lon="4.25344">
        <ele>504</ele>
        <time>2018-08-13T08:05:51Z</time>
      </trkpt>
      <trkpt lat="45.81712" lon="4.25351">
        <ele>504</ele>
        <time>2018-08-13T08:05:57Z</time>
      </trkpt>
      <trkpt lat="45.81717" lon="4.25359">
        <ele>504</ele>
        <time>2018-08-13T08:06:03Z</time>
      </trkpt>
      <trkpt lat="45.81721" lon="4.25368">
        <ele>504</ele>
        <time>2018-08-13T08:06:09Z</time>
      </trkpt>
      <trkpt lat="45.81726" lon="4.25373">
        <ele>504</ele>
        <time>2018-08-13T08:06:15Z</time>
      </trkpt>
      <trkpt lat="45.8173" lon="4.25379">
        <ele>504</ele>
        <time>2018-08-13T08:06:21Z</time>
      </trkpt>
      <trkpt lat="45.81734" lon="4.25387">
        <ele>504</ele>
        <time>2018-08-13T08:06:26Z</time>
      </trkpt>
      <trkpt lat="45.8174" lon="4.25395">
        <ele>503</ele>
        <time>2018-08-13T08:06:32Z</time>
      </trkpt>
      <trkpt lat="45.81745" lon="4.25401">
        <ele>503</ele>
        <time>2018-08-13T08:06:37Z</time>
      </trkpt>
      <trkpt lat="45.81751" lon="4.2541">
        <ele>504</ele>
        <time>2018-08-13T08:06:44Z</time>
      </trkpt>
      <trkpt lat="45.81755" lon="4.25416">
        <ele>504</ele>
        <time>2018-08-13T08:06:49Z</time>
      </trkpt>
      <trkpt lat="45.81757" lon="4.25419">
        <ele>504</ele>
        <time>2018-08-13T08:06:54Z</time>
      </trkpt>
      <trkpt lat="45.8176" lon="4.25424">
        <ele>504</ele>
        <time>2018-08-13T08:07:00Z</time>
      </trkpt>
      <trkpt lat="45.81765" lon="4.25429">
        <ele>505</ele>
        <time>2018-08-13T08:07:05Z</time>
      </trkpt>
      <trkpt lat="45.81769" lon="4.25435">
        <ele>505</ele>
        <time>2018-08-13T08:07:10Z</time>
      </trkpt>
      <trkpt lat="45.81774" lon="4.25439">
        <ele>505</ele>
        <time>2018-08-13T08:07:16Z</time>
      </trkpt>
      <trkpt lat="45.81779" lon="4.2544">
        <ele>506</ele>
        <time>2018-08-13T08:07:21Z</time>
      </trkpt>
      <trkpt lat="45.81784" lon="4.25441">
        <ele>506</ele>
        <time>2018-08-13T08:07:26Z</time>
      </trkpt>
      <trkpt lat="45.8179" lon="4.25443">
        <ele>506</ele>
        <time>2018-08-13T08:07:32Z</time>
      </trkpt>
      <trkpt lat="45.81795" lon="4.25443">
        <ele>506</ele>
        <time>2018-08-13T08:07:37Z</time>
      </trkpt>
      <trkpt lat="45.81802" lon="4.25446">
        <ele>507</ele>
        <time>2018-08-13T08:07:43Z</time>
      </trkpt>
      <trkpt lat="45.81808" lon="4.25448">
        <ele>507</ele>
        <time>2018-08-13T08:07:49Z</time>
      </trkpt>
      <trkpt lat="45.81811" lon="4.2545">
        <ele>507</ele>
        <time>2018-08-13T08:07:54Z</time>
      </trkpt>
      <trkpt lat="45.81815" lon="4.25453">
        <ele>507</ele>
        <time>2018-08-13T08:07:59Z</time>
      </trkpt>
      <trkpt lat="45.8182" lon="4.25461">
        <ele>508</ele>
        <time>2018-08-13T08:08:05Z</time>
      </trkpt>
      <trkpt lat="45.81823" lon="4.25467">
        <ele>508</ele>
        <time>2018-08-13T08:08:10Z</time>
      </trkpt>
      <trkpt lat="45.81827" lon="4.25472">
        <ele>509</ele>
        <time>2018-08-13T08:08:15Z</time>
      </trkpt>
      <trkpt lat="45.81831" lon="4.2548">
        <ele>509</ele>
        <time>2018-08-13T08:08:21Z</time>
      </trkpt>
      <trkpt lat="45.81833" lon="4.25485">
        <ele>510</ele>
        <time>2018-08-13T08:08:27Z</time>
      </trkpt>
      <trkpt lat="45.81836" lon="4.25491">
        <ele>513</ele>
        <time>2018-08-13T08:08:33Z</time>
      </trkpt>
      <trkpt lat="45.81838" lon="4.25499">
        <ele>513</ele>
        <time>2018-08-13T08:08:39Z</time>
      </trkpt>
      <trkpt lat="45.81841" lon="4.25505">
        <ele>514</ele>
        <time>2018-08-13T08:08:44Z</time>
      </trkpt>
      <trkpt lat="45.81844" lon="4.25507">
        <ele>515</ele>
        <time>2018-08-13T08:08:49Z</time>
      </trkpt>
      <trkpt lat="45.81851" lon="4.25507">
        <ele>515</ele>
        <time>2018-08-13T08:08:55Z</time>
      </trkpt>
      <trkpt lat="45.81856" lon="4.25508">
        <ele>516</ele>
        <time>2018-08-13T08:09:01Z</time>
      </trkpt>
      <trkpt lat="45.81858" lon="4.25509">
        <ele>516</ele>
        <time>2018-08-13T08:09:06Z</time>
      </trkpt>
      <trkpt lat="45.81859" lon="4.2551">
        <ele>516</ele>
        <time>2018-08-13T08:09:12Z</time>
      </trkpt>
      <trkpt lat="45.81858" lon="4.25509">
        <ele>516</ele>
        <time>2018-08-13T08:09:17Z</time>
      </trkpt>
      <trkpt lat="45.81857" lon="4.25508">
        <ele>516</ele>
        <time>2018-08-13T08:09:23Z</time>
      </trkpt>
      <trkpt lat="45.81857" lon="4.25509">
        <ele>516</ele>
        <time>2018-08-13T08:09:28Z</time>
      </trkpt>
      <trkpt lat="45.81858" lon="4.2551">
        <ele>516</ele>
        <time>2018-08-13T08:09:34Z</time>
      </trkpt>
      <trkpt lat="45.81859" lon="4.25509">
        <ele>516</ele>
        <time>2018-08-13T08:09:39Z</time>
      </trkpt>
      <trkpt lat="45.8186" lon="4.2551">
        <ele>516</ele>
        <time>2018-08-13T08:09:45Z</time>
      </trkpt>
      <trkpt lat="45.81861" lon="4.2551">
        <ele>516</ele>
        <time>2018-08-13T08:09:50Z</time>
      </trkpt>
      <trkpt lat="45.8186" lon="4.25511">
        <ele>516</ele>
        <time>2018-08-13T08:09:55Z</time>
      </trkpt>
      <trkpt lat="45.8186" lon="4.2551">
        <ele>516</ele>
        <time>2018-08-13T08:10:01Z</time>
      </trkpt>
      <trkpt lat="45.8186" lon="4.2551">
        <ele>516</ele>
        <time>2018-08-13T08:10:07Z</time>
      </trkpt>
      <trkpt lat="45.81861" lon="4.25511">
        <ele>516</ele>
        <time>2018-08-13T08:10:12Z</time>
      </trkpt>
      <trkpt lat="45.81865" lon="4.2551">
        <ele>516</ele>
        <time>2018-08-13T08:10:18Z</time>
      </trkpt>
      <trkpt lat="45.81866" lon="4.2551">
        <ele>516</ele>
        <time>2018-08-13T08:10:24Z</time>
      </trkpt>
      <trkpt lat="45.81869" lon="4.25509">
        <ele>517</ele>
        <time>2018-08-13T08:10:29Z</time>
      </trkpt>
      <trkpt lat="45.81873" lon="4.25508">
        <ele>517</ele>
        <time>2018-08-13T08:10:35Z</time>
      </trkpt>
      <trkpt lat="45.81877" lon="4.25508">
        <ele>517</ele>
        <time>2018-08-13T08:10:41Z</time>
      </trkpt>
      <trkpt lat="45.81882" lon="4.25507">
        <ele>517</ele>
        <time>2018-08-13T08:10:47Z</time>
      </trkpt>
      <trkpt lat="45.81888" lon="4.25505">
        <ele>518</ele>
        <time>2018-08-13T08:10:53Z</time>
      </trkpt>
      <trkpt lat="45.81891" lon="4.25503">
        <ele>518</ele>
        <time>2018-08-13T08:10:58Z</time>
      </trkpt>
      <trkpt lat="45.81895" lon="4.255">
        <ele>516</ele>
        <time>2018-08-13T08:11:04Z</time>
      </trkpt>
      <trkpt lat="45.81898" lon="4.25499">
        <ele>516</ele>
        <time>2018-08-13T08:11:09Z</time>
      </trkpt>
      <trkpt lat="45.81904" lon="4.25497">
        <ele>517</ele>
        <time>2018-08-13T08:11:15Z</time>
      </trkpt>
      <trkpt lat="45.81911" lon="4.25497">
        <ele>518</ele>
        <time>2018-08-13T08:11:21Z</time>
      </trkpt>
      <trkpt lat="45.81916" lon="4.25497">
        <ele>519</ele>
        <time>2018-08-13T08:11:27Z</time>
      </trkpt>
      <trkpt lat="45.81923" lon="4.25499">
        <ele>519</ele>
        <time>2018-08-13T08:11:33Z</time>
      </trkpt>
      <trkpt lat="45.81929" lon="4.25501">
        <ele>521</ele>
        <time>2018-08-13T08:11:39Z</time>
      </trkpt>
      <trkpt lat="45.81934" lon="4.25502">
        <ele>521</ele>
        <time>2018-08-13T08:11:45Z</time>
      </trkpt>
      <trkpt lat="45.81939" lon="4.25505">
        <ele>521</ele>
        <time>2018-08-13T08:11:51Z</time>
      </trkpt>
      <trkpt lat="45.81942" lon="4.25505">
        <ele>521</ele>
        <time>2018-08-13T08:11:56Z</time>
      </trkpt>
      <trkpt lat="45.81946" lon="4.25504">
        <ele>521</ele>
        <time>2018-08-13T08:12:02Z</time>
      </trkpt>
      <trkpt lat="45.81946" lon="4.25506">
        <ele>521</ele>
        <time>2018-08-13T08:12:07Z</time>
      </trkpt>
      <trkpt lat="45.81952" lon="4.25509">
        <ele>522</ele>
        <time>2018-08-13T08:12:13Z</time>
      </trkpt>
      <trkpt lat="45.81957" lon="4.25511">
        <ele>522</ele>
        <time>2018-08-13T08:12:19Z</time>
      </trkpt>
      <trkpt lat="45.8196" lon="4.25514">
        <ele>522</ele>
        <time>2018-08-13T08:12:24Z</time>
      </trkpt>
      <trkpt lat="45.81963" lon="4.25516">
        <ele>522</ele>
        <time>2018-08-13T08:12:29Z</time>
      </trkpt>
      <trkpt lat="45.81969" lon="4.25519">
        <ele>522</ele>
        <time>2018-08-13T08:12:35Z</time>
      </trkpt>
      <trkpt lat="45.81974" lon="4.25521">
        <ele>522</ele>
        <time>2018-08-13T08:12:41Z</time>
      </trkpt>
      <trkpt lat="45.81977" lon="4.25525">
        <ele>522</ele>
        <time>2018-08-13T08:12:47Z</time>
      </trkpt>
      <trkpt lat="45.81982" lon="4.25529">
        <ele>522</ele>
        <time>2018-08-13T08:12:53Z</time>
      </trkpt>
      <trkpt lat="45.81987" lon="4.25532">
        <ele>522</ele>
        <time>2018-08-13T08:12:59Z</time>
      </trkpt>
      <trkpt lat="45.81992" lon="4.25535">
        <ele>522</ele>
        <time>2018-08-13T08:13:05Z</time>
      </trkpt>
      <trkpt lat="45.81997" lon="4.25538">
        <ele>523</ele>
        <time>2018-08-13T08:13:10Z</time>
      </trkpt>
      <trkpt lat="45.82004" lon="4.2554">
        <ele>524</ele>
        <time>2018-08-13T08:13:16Z</time>
      </trkpt>
      <trkpt lat="45.82009" lon="4.25543">
        <ele>524</ele>
        <time>2018-08-13T08:13:21Z</time>
      </trkpt>
      <trkpt lat="45.82012" lon="4.25544">
        <ele>524</ele>
        <time>2018-08-13T08:13:27Z</time>
      </trkpt>
      <trkpt lat="45.82016" lon="4.25549">
        <ele>524</ele>
        <time>2018-08-13T08:13:33Z</time>
      </trkpt>
      <trkpt lat="45.82021" lon="4.25552">
        <ele>524</ele>
        <time>2018-08-13T08:13:39Z</time>
      </trkpt>
      <trkpt lat="45.82025" lon="4.25557">
        <ele>524</ele>
        <time>2018-08-13T08:13:45Z</time>
      </trkpt>
      <trkpt lat="45.8203" lon="4.25561">
        <ele>524</ele>
        <time>2018-08-13T08:13:51Z</time>
      </trkpt>
      <trkpt lat="45.82036" lon="4.25566">
        <ele>524</ele>
        <time>2018-08-13T08:13:56Z</time>
      </trkpt>
      <trkpt lat="45.8204" lon="4.25571">
        <ele>525</ele>
        <time>2018-08-13T08:14:02Z</time>
      </trkpt>
      <trkpt lat="45.82045" lon="4.25576">
        <ele>525</ele>
        <time>2018-08-13T08:14:08Z</time>
      </trkpt>
      <trkpt lat="45.82051" lon="4.2558">
        <ele>525</ele>
        <time>2018-08-13T08:14:14Z</time>
      </trkpt>
      <trkpt lat="45.82055" lon="4.25583">
        <ele>525</ele>
        <time>2018-08-13T08:14:20Z</time>
      </trkpt>
      <trkpt lat="45.82058" lon="4.25584">
        <ele>526</ele>
        <time>2018-08-13T08:14:25Z</time>
      </trkpt>
      <trkpt lat="45.82058" lon="4.25585">
        <ele>526</ele>
        <time>2018-08-13T08:14:31Z</time>
      </trkpt>
      <trkpt lat="45.82058" lon="4.25585">
        <ele>526</ele>
        <time>2018-08-13T08:14:36Z</time>
      </trkpt>
      <trkpt lat="45.82057" lon="4.25587">
        <ele>526</ele>
        <time>2018-08-13T08:14:42Z</time>
      </trkpt>
      <trkpt lat="45.82057" lon="4.25586">
        <ele>526</ele>
        <time>2018-08-13T08:14:47Z</time>
      </trkpt>
      <trkpt lat="45.8206" lon="4.25588">
        <ele>526</ele>
        <time>2018-08-13T08:14:53Z</time>
      </trkpt>
      <trkpt lat="45.82062" lon="4.25591">
        <ele>526</ele>
        <time>2018-08-13T08:14:58Z</time>
      </trkpt>
      <trkpt lat="45.82066" lon="4.25595">
        <ele>526</ele>
        <time>2018-08-13T08:15:04Z</time>
      </trkpt>
      <trkpt lat="45.8207" lon="4.256">
        <ele>526</ele>
        <time>2018-08-13T08:15:10Z</time>
      </trkpt>
      <trkpt lat="45.82075" lon="4.25603">
        <ele>526</ele>
        <time>2018-08-13T08:15:16Z</time>
      </trkpt>
      <trkpt lat="45.8208" lon="4.25608">
        <ele>526</ele>
        <time>2018-08-13T08:15:21Z</time>
      </trkpt>
      <trkpt lat="45.82084" lon="4.25612">
        <ele>527</ele>
        <time>2018-08-13T08:15:27Z</time>
      </trkpt>
      <trkpt lat="45.82086" lon="4.25617">
        <ele>528</ele>
        <time>2018-08-13T08:15:32Z</time>
      </trkpt>
      <trkpt lat="45.82092" lon="4.25624">
        <ele>528</ele>
        <time>2018-08-13T08:15:37Z</time>
      </trkpt>
      <trkpt lat="45.82097" lon="4.25628">
        <ele>528</ele>
        <time>2018-08-13T08:15:43Z</time>
      </trkpt>
      <trkpt lat="45.82101" lon="4.25629">
        <ele>528</ele>
        <time>2018-08-13T08:15:48Z</time>
      </trkpt>
      <trkpt lat="45.82106" lon="4.25635">
        <ele>528</ele>
        <time>2018-08-13T08:15:54Z</time>
      </trkpt>
      <trkpt lat="45.82112" lon="4.25639">
        <ele>528</ele>
        <time>2018-08-13T08:16:00Z</time>
      </trkpt>
      <trkpt lat="45.82116" lon="4.25644">
        <ele>528</ele>
        <time>2018-08-13T08:16:05Z</time>
      </trkpt>
      <trkpt lat="45.82121" lon="4.25649">
        <ele>528</ele>
        <time>2018-08-13T08:16:11Z</time>
      </trkpt>
      <trkpt lat="45.82127" lon="4.25657">
        <ele>528</ele>
        <time>2018-08-13T08:16:17Z</time>
      </trkpt>
      <trkpt lat="45.82131" lon="4.25662">
        <ele>528</ele>
        <time>2018-08-13T08:16:23Z</time>
      </trkpt>
      <trkpt lat="45.82137" lon="4.25667">
        <ele>531</ele>
        <time>2018-08-13T08:16:29Z</time>
      </trkpt>
      <trkpt lat="45.82142" lon="4.2567">
        <ele>531</ele>
        <time>2018-08-13T08:16:35Z</time>
      </trkpt>
      <trkpt lat="45.82147" lon="4.25675">
        <ele>531</ele>
        <time>2018-08-13T08:16:40Z</time>
      </trkpt>
      <trkpt lat="45.82151" lon="4.2568">
        <ele>531</ele>
        <time>2018-08-13T08:16:45Z</time>
      </trkpt>
      <trkpt lat="45.82156" lon="4.25686">
        <ele>531</ele>
        <time>2018-08-13T08:16:50Z</time>
      </trkpt>
      <trkpt lat="45.82161" lon="4.25692">
        <ele>532</ele>
        <time>2018-08-13T08:16:56Z</time>
      </trkpt>
      <trkpt lat="45.82166" lon="4.25697">
        <ele>532</ele>
        <time>2018-08-13T08:17:01Z</time>
      </trkpt>
      <trkpt lat="45.82171" lon="4.25703">
        <ele>532</ele>
        <time>2018-08-13T08:17:07Z</time>
      </trkpt>
      <trkpt lat="45.82175" lon="4.25709">
        <ele>532</ele>
        <time>2018-08-13T08:17:13Z</time>
      </trkpt>
      <trkpt lat="45.82181" lon="4.25717">
        <ele>532</ele>
        <time>2018-08-13T08:17:18Z</time>
      </trkpt>
      <trkpt lat="45.82184" lon="4.25721">
        <ele>532</ele>
        <time>2018-08-13T08:17:23Z</time>
      </trkpt>
      <trkpt lat="45.82187" lon="4.25727">
        <ele>532</ele>
        <time>2018-08-13T08:17:29Z</time>
      </trkpt>
      <trkpt lat="45.82192" lon="4.25733">
        <ele>532</ele>
        <time>2018-08-13T08:17:35Z</time>
      </trkpt>
      <trkpt lat="45.82192" lon="4.25734">
        <ele>532</ele>
        <time>2018-08-13T08:17:41Z</time>
      </trkpt>
      <trkpt lat="45.82195" lon="4.25737">
        <ele>532</ele>
        <time>2018-08-13T08:17:46Z</time>
      </trkpt>
      <trkpt lat="45.82199" lon="4.25742">
        <ele>532</ele>
        <time>2018-08-13T08:17:51Z</time>
      </trkpt>
      <trkpt lat="45.82207" lon="4.2575">
        <ele>535</ele>
        <time>2018-08-13T08:17:57Z</time>
      </trkpt>
      <trkpt lat="45.82211" lon="4.25757">
        <ele>535</ele>
        <time>2018-08-13T08:18:02Z</time>
      </trkpt>
      <trkpt lat="45.82212" lon="4.25763">
        <ele>535</ele>
        <time>2018-08-13T08:18:08Z</time>
      </trkpt>
      <trkpt lat="45.82216" lon="4.25769">
        <ele>535</ele>
        <time>2018-08-13T08:18:13Z</time>
      </trkpt>
      <trkpt lat="45.82218" lon="4.25775">
        <ele>535</ele>
        <time>2018-08-13T08:18:19Z</time>
      </trkpt>
      <trkpt lat="45.82223" lon="4.25781">
        <ele>535</ele>
        <time>2018-08-13T08:18:25Z</time>
      </trkpt>
      <trkpt lat="45.82223" lon="4.25783">
        <ele>535</ele>
        <time>2018-08-13T08:18:31Z</time>
      </trkpt>
      <trkpt lat="45.82224" lon="4.25784">
        <ele>535</ele>
        <time>2018-08-13T08:18:36Z</time>
      </trkpt>
      <trkpt lat="45.82225" lon="4.25785">
        <ele>535</ele>
        <time>2018-08-13T08:18:42Z</time>
      </trkpt>
      <trkpt lat="45.82226" lon="4.25788">
        <ele>535</ele>
        <time>2018-08-13T08:18:47Z</time>
      </trkpt>
      <trkpt lat="45.82232" lon="4.25793">
        <ele>535</ele>
        <time>2018-08-13T08:18:53Z</time>
      </trkpt>
      <trkpt lat="45.82234" lon="4.25799">
        <ele>536</ele>
        <time>2018-08-13T08:18:59Z</time>
      </trkpt>
      <trkpt lat="45.82238" lon="4.25805">
        <ele>536</ele>
        <time>2018-08-13T08:19:04Z</time>
      </trkpt>
      <trkpt lat="45.82242" lon="4.25814">
        <ele>536</ele>
        <time>2018-08-13T08:19:10Z</time>
      </trkpt>
      <trkpt lat="45.82246" lon="4.25819">
        <ele>537</ele>
        <time>2018-08-13T08:19:16Z</time>
      </trkpt>
      <trkpt lat="45.8225" lon="4.25824">
        <ele>537</ele>
        <time>2018-08-13T08:19:21Z</time>
      </trkpt>
      <trkpt lat="45.82254" lon="4.25828">
        <ele>538</ele>
        <time>2018-08-13T08:19:27Z</time>
      </trkpt>
      <trkpt lat="45.8226" lon="4.25837">
        <ele>538</ele>
        <time>2018-08-13T08:19:33Z</time>
      </trkpt>
      <trkpt lat="45.82264" lon="4.25842">
        <ele>539</ele>
        <time>2018-08-13T08:19:39Z</time>
      </trkpt>
      <trkpt lat="45.8227" lon="4.2585">
        <ele>539</ele>
        <time>2018-08-13T08:19:45Z</time>
      </trkpt>
      <trkpt lat="45.82276" lon="4.25856">
        <ele>539</ele>
        <time>2018-08-13T08:19:50Z</time>
      </trkpt>
      <trkpt lat="45.82281" lon="4.25862">
        <ele>539</ele>
        <time>2018-08-13T08:19:56Z</time>
      </trkpt>
      <trkpt lat="45.82286" lon="4.25866">
        <ele>539</ele>
        <time>2018-08-13T08:20:01Z</time>
      </trkpt>
      <trkpt lat="45.82291" lon="4.25872">
        <ele>539</ele>
        <time>2018-08-13T08:20:07Z</time>
      </trkpt>
      <trkpt lat="45.82297" lon="4.2588">
        <ele>539</ele>
        <time>2018-08-13T08:20:13Z</time>
      </trkpt>
      <trkpt lat="45.82302" lon="4.25884">
        <ele>540</ele>
        <time>2018-08-13T08:20:19Z</time>
      </trkpt>
      <trkpt lat="45.82306" lon="4.25889">
        <ele>540</ele>
        <time>2018-08-13T08:20:24Z</time>
      </trkpt>
      <trkpt lat="45.82311" lon="4.25892">
        <ele>540</ele>
        <time>2018-08-13T08:20:30Z</time>
      </trkpt>
      <trkpt lat="45.82316" lon="4.25897">
        <ele>540</ele>
        <time>2018-08-13T08:20:36Z</time>
      </trkpt>
      <trkpt lat="45.82322" lon="4.25901">
        <ele>541</ele>
        <time>2018-08-13T08:20:42Z</time>
      </trkpt>
      <trkpt lat="45.82328" lon="4.25907">
        <ele>541</ele>
        <time>2018-08-13T08:20:48Z</time>
      </trkpt>
      <trkpt lat="45.82334" lon="4.25911">
        <ele>542</ele>
        <time>2018-08-13T08:20:54Z</time>
      </trkpt>
      <trkpt lat="45.82339" lon="4.25914">
        <ele>542</ele>
        <time>2018-08-13T08:20:59Z</time>
      </trkpt>
      <trkpt lat="45.82346" lon="4.25918">
        <ele>543</ele>
        <time>2018-08-13T08:21:05Z</time>
      </trkpt>
      <trkpt lat="45.82353" lon="4.25921">
        <ele>543</ele>
        <time>2018-08-13T08:21:11Z</time>
      </trkpt>
      <trkpt lat="45.82359" lon="4.25926">
        <ele>543</ele>
        <time>2018-08-13T08:21:17Z</time>
      </trkpt>
      <trkpt lat="45.82365" lon="4.25931">
        <ele>544</ele>
        <time>2018-08-13T08:21:23Z</time>
      </trkpt>
      <trkpt lat="45.82372" lon="4.25937">
        <ele>544</ele>
        <time>2018-08-13T08:21:29Z</time>
      </trkpt>
      <trkpt lat="45.82378" lon="4.25941">
        <ele>544</ele>
        <time>2018-08-13T08:21:35Z</time>
      </trkpt>
      <trkpt lat="45.82384" lon="4.25949">
        <ele>544</ele>
        <time>2018-08-13T08:21:41Z</time>
      </trkpt>
      <trkpt lat="45.82388" lon="4.25954">
        <ele>544</ele>
        <time>2018-08-13T08:21:47Z</time>
      </trkpt>
      <trkpt lat="45.82394" lon="4.25962">
        <ele>545</ele>
        <time>2018-08-13T08:21:53Z</time>
      </trkpt>
      <trkpt lat="45.82398" lon="4.2597">
        <ele>545</ele>
        <time>2018-08-13T08:21:59Z</time>
      </trkpt>
      <trkpt lat="45.82401" lon="4.25979">
        <ele>545</ele>
        <time>2018-08-13T08:22:05Z</time>
      </trkpt>
      <trkpt lat="45.82405" lon="4.25989">
        <ele>546</ele>
        <time>2018-08-13T08:22:11Z</time>
      </trkpt>
      <trkpt lat="45.82409" lon="4.25997">
        <ele>547</ele>
        <time>2018-08-13T08:22:17Z</time>
      </trkpt>
      <trkpt lat="45.82414" lon="4.26007">
        <ele>548</ele>
        <time>2018-08-13T08:22:22Z</time>
      </trkpt>
      <trkpt lat="45.82417" lon="4.26014">
        <ele>549</ele>
        <time>2018-08-13T08:22:28Z</time>
      </trkpt>
      <trkpt lat="45.82418" lon="4.26024">
        <ele>550</ele>
        <time>2018-08-13T08:22:34Z</time>
      </trkpt>
      <trkpt lat="45.8242" lon="4.26031">
        <ele>550</ele>
        <time>2018-08-13T08:22:39Z</time>
      </trkpt>
      <trkpt lat="45.82421" lon="4.26041">
        <ele>550</ele>
        <time>2018-08-13T08:22:44Z</time>
      </trkpt>
      <trkpt lat="45.82423" lon="4.26048">
        <ele>551</ele>
        <time>2018-08-13T08:22:49Z</time>
      </trkpt>
      <trkpt lat="45.82426" lon="4.26057">
        <ele>551</ele>
        <time>2018-08-13T08:22:55Z</time>
      </trkpt>
      <trkpt lat="45.8243" lon="4.26063">
        <ele>551</ele>
        <time>2018-08-13T08:23:00Z</time>
      </trkpt>
      <trkpt lat="45.82435" lon="4.26073">
        <ele>551</ele>
        <time>2018-08-13T08:23:06Z</time>
      </trkpt>
      <trkpt lat="45.82441" lon="4.2608">
        <ele>551</ele>
        <time>2018-08-13T08:23:12Z</time>
      </trkpt>
      <trkpt lat="45.82444" lon="4.26086">
        <ele>554</ele>
        <time>2018-08-13T08:23:18Z</time>
      </trkpt>
      <trkpt lat="45.82449" lon="4.26093">
        <ele>554</ele>
        <time>2018-08-13T08:23:24Z</time>
      </trkpt>
      <trkpt lat="45.82454" lon="4.26098">
        <ele>554</ele>
        <time>2018-08-13T08:23:30Z</time>
      </trkpt>
      <trkpt lat="45.82459" lon="4.26106">
        <ele>554</ele>
        <time>2018-08-13T08:23:36Z</time>
      </trkpt>
      <trkpt lat="45.82463" lon="4.26113">
        <ele>554</ele>
        <time>2018-08-13T08:23:41Z</time>
      </trkpt>
      <trkpt lat="45.82467" lon="4.26121">
        <ele>554</ele>
        <time>2018-08-13T08:23:47Z</time>
      </trkpt>
      <trkpt lat="45.82471" lon="4.2613">
        <ele>555</ele>
        <time>2018-08-13T08:23:53Z</time>
      </trkpt>
      <trkpt lat="45.82472" lon="4.26138">
        <ele>555</ele>
        <time>2018-08-13T08:23:58Z</time>
      </trkpt>
      <trkpt lat="45.82474" lon="4.26148">
        <ele>555</ele>
        <time>2018-08-13T08:24:04Z</time>
      </trkpt>
      <trkpt lat="45.82475" lon="4.26157">
        <ele>555</ele>
        <time>2018-08-13T08:24:10Z</time>
      </trkpt>
      <trkpt lat="45.82476" lon="4.26165">
        <ele>555</ele>
        <time>2018-08-13T08:24:15Z</time>
      </trkpt>
      <trkpt lat="45.82478" lon="4.26173">
        <ele>557</ele>
        <time>2018-08-13T08:24:20Z</time>
      </trkpt>
      <trkpt lat="45.8248" lon="4.26183">
        <ele>557</ele>
        <time>2018-08-13T08:24:26Z</time>
      </trkpt>
      <trkpt lat="45.8248" lon="4.26195">
        <ele>557</ele>
        <time>2018-08-13T08:24:31Z</time>
      </trkpt>
      <trkpt lat="45.8248" lon="4.26204">
        <ele>557</ele>
        <time>2018-08-13T08:24:37Z</time>
      </trkpt>
      <trkpt lat="45.82483" lon="4.26212">
        <ele>557</ele>
        <time>2018-08-13T08:24:43Z</time>
      </trkpt>
      <trkpt lat="45.82484" lon="4.26219">
        <ele>557</ele>
        <time>2018-08-13T08:24:48Z</time>
      </trkpt>
      <trkpt lat="45.82486" lon="4.26221">
        <ele>557</ele>
        <time>2018-08-13T08:24:53Z</time>
      </trkpt>
      <trkpt lat="45.82485" lon="4.26223">
        <ele>557</ele>
        <time>2018-08-13T08:24:59Z</time>
      </trkpt>
      <trkpt lat="45.82484" lon="4.26223">
        <ele>557</ele>
        <time>2018-08-13T08:25:04Z</time>
      </trkpt>
      <trkpt lat="45.82484" lon="4.26222">
        <ele>557</ele>
        <time>2018-08-13T08:25:09Z</time>
      </trkpt>
      <trkpt lat="45.82485" lon="4.26221">
        <ele>557</ele>
        <time>2018-08-13T08:25:15Z</time>
      </trkpt>
      <trkpt lat="45.82484" lon="4.26221">
        <ele>557</ele>
        <time>2018-08-13T08:25:21Z</time>
      </trkpt>
      <trkpt lat="45.82484" lon="4.26219">
        <ele>557</ele>
        <time>2018-08-13T08:25:27Z</time>
      </trkpt>
      <trkpt lat="45.82485" lon="4.26219">
        <ele>557</ele>
        <time>2018-08-13T08:25:33Z</time>
      </trkpt>
      <trkpt lat="45.82487" lon="4.26221">
        <ele>557</ele>
        <time>2018-08-13T08:25:39Z</time>
      </trkpt>
      <trkpt lat="45.82488" lon="4.26223">
        <ele>557</ele>
        <time>2018-08-13T08:25:45Z</time>
      </trkpt>
      <trkpt lat="45.82487" lon="4.26222">
        <ele>557</ele>
        <time>2018-08-13T08:25:50Z</time>
      </trkpt>
      <trkpt lat="45.82483" lon="4.26224">
        <ele>557</ele>
        <time>2018-08-13T08:25:56Z</time>
      </trkpt>
      <trkpt lat="45.82483" lon="4.26225">
        <ele>557</ele>
        <time>2018-08-13T08:26:02Z</time>
      </trkpt>
      <trkpt lat="45.82487" lon="4.26225">
        <ele>558</ele>
        <time>2018-08-13T08:26:08Z</time>
      </trkpt>
      <trkpt lat="45.82487" lon="4.26223">
        <ele>557</ele>
        <time>2018-08-13T08:26:13Z</time>
      </trkpt>
      <trkpt lat="45.82484" lon="4.26223">
        <ele>557</ele>
        <time>2018-08-13T08:26:19Z</time>
      </trkpt>
      <trkpt lat="45.82484" lon="4.26224">
        <ele>557</ele>
        <time>2018-08-13T08:26:25Z</time>
      </trkpt>
      <trkpt lat="45.82484" lon="4.26224">
        <ele>557</ele>
        <time>2018-08-13T08:26:31Z</time>
      </trkpt>
      <trkpt lat="45.82483" lon="4.26225">
        <ele>557</ele>
        <time>2018-08-13T08:26:36Z</time>
      </trkpt>
      <trkpt lat="45.82483" lon="4.26227">
        <ele>558</ele>
        <time>2018-08-13T08:26:42Z</time>
      </trkpt>
      <trkpt lat="45.82484" lon="4.26228">
        <ele>558</ele>
        <time>2018-08-13T08:26:47Z</time>
      </trkpt>
      <trkpt lat="45.82482" lon="4.26226">
        <ele>557</ele>
        <time>2018-08-13T08:26:53Z</time>
      </trkpt>
      <trkpt lat="45.82482" lon="4.26228">
        <ele>558</ele>
        <time>2018-08-13T08:26:59Z</time>
      </trkpt>
      <trkpt lat="45.82481" lon="4.26225">
        <ele>557</ele>
        <time>2018-08-13T08:27:05Z</time>
      </trkpt>
      <trkpt lat="45.8248" lon="4.26223">
        <ele>557</ele>
        <time>2018-08-13T08:27:10Z</time>
      </trkpt>
      <trkpt lat="45.82481" lon="4.26221">
        <ele>557</ele>
        <time>2018-08-13T08:27:15Z</time>
      </trkpt>
      <trkpt lat="45.82482" lon="4.26219">
        <ele>557</ele>
        <time>2018-08-13T08:27:20Z</time>
      </trkpt>
      <trkpt lat="45.82481" lon="4.26219">
        <ele>557</ele>
        <time>2018-08-13T08:27:25Z</time>
      </trkpt>
      <trkpt lat="45.82481" lon="4.26222">
        <ele>557</ele>
        <time>2018-08-13T08:27:31Z</time>
      </trkpt>
      <trkpt lat="45.82481" lon="4.26225">
        <ele>557</ele>
        <time>2018-08-13T08:27:37Z</time>
      </trkpt>
      <trkpt lat="45.82481" lon="4.26226">
        <ele>557</ele>
        <time>2018-08-13T08:27:43Z</time>
      </trkpt>
      <trkpt lat="45.82483" lon="4.26226">
        <ele>557</ele>
        <time>2018-08-13T08:27:49Z</time>
      </trkpt>
      <trkpt lat="45.82483" lon="4.26228">
        <ele>558</ele>
        <time>2018-08-13T08:27:55Z</time>
      </trkpt>
      <trkpt lat="45.82481" lon="4.26228">
        <ele>558</ele>
        <time>2018-08-13T08:28:00Z</time>
      </trkpt>
      <trkpt lat="45.82481" lon="4.26228">
        <ele>558</ele>
        <time>2018-08-13T08:28:05Z</time>
      </trkpt>
      <trkpt lat="45.8248" lon="4.26227">
        <ele>557</ele>
        <time>2018-08-13T08:28:11Z</time>
      </trkpt>
      <trkpt lat="45.82479" lon="4.26225">
        <ele>557</ele>
        <time>2018-08-13T08:28:17Z</time>
      </trkpt>
      <trkpt lat="45.82481" lon="4.26223">
        <ele>557</ele>
        <time>2018-08-13T08:28:23Z</time>
      </trkpt>
      <trkpt lat="45.82481" lon="4.26224">
        <ele>557</ele>
        <time>2018-08-13T08:28:29Z</time>
      </trkpt>
      <trkpt lat="45.82482" lon="4.26225">
        <ele>557</ele>
        <time>2018-08-13T08:28:35Z</time>
      </trkpt>
      <trkpt lat="45.82481" lon="4.26225">
        <ele>557</ele>
        <time>2018-08-13T08:28:41Z</time>
      </trkpt>
      <trkpt lat="45.82481" lon="4.26224">
        <ele>557</ele>
        <time>2018-08-13T08:28:47Z</time>
      </trkpt>
      <trkpt lat="45.82482" lon="4.26226">
        <ele>557</ele>
        <time>2018-08-13T08:28:52Z</time>
      </trkpt>
      <trkpt lat="45.82482" lon="4.26226">
        <ele>557</ele>
        <time>2018-08-13T08:28:58Z</time>
      </trkpt>
      <trkpt lat="45.82483" lon="4.26225">
        <ele>557</ele>
        <time>2018-08-13T08:29:03Z</time>
      </trkpt>
      <trkpt lat="45.82482" lon="4.26223">
        <ele>557</ele>
        <time>2018-08-13T08:29:08Z</time>
      </trkpt>
      <trkpt lat="45.82481" lon="4.26222">
        <ele>557</ele>
        <time>2018-08-13T08:29:13Z</time>
      </trkpt>
      <trkpt lat="45.8248" lon="4.26221">
        <ele>557</ele>
        <time>2018-08-13T08:29:18Z</time>
      </trkpt>
      <trkpt lat="45.82481" lon="4.26222">
        <ele>557</ele>
        <time>2018-08-13T08:29:24Z</time>
      </trkpt>
      <trkpt lat="45.82482" lon="4.26223">
        <ele>557</ele>
        <time>2018-08-13T08:29:29Z</time>
      </trkpt>
      <trkpt lat="45.82482" lon="4.26223">
        <ele>557</ele>
        <time>2018-08-13T08:29:35Z</time>
      </trkpt>
      <trkpt lat="45.82482" lon="4.26224">
        <ele>557</ele>
        <time>2018-08-13T08:29:41Z</time>
      </trkpt>
      <trkpt lat="45.82482" lon="4.26226">
        <ele>557</ele>
        <time>2018-08-13T08:29:46Z</time>
      </trkpt>
      <trkpt lat="45.82482" lon="4.26227">
        <ele>558</ele>
        <time>2018-08-13T08:29:52Z</time>
      </trkpt>
      <trkpt lat="45.82482" lon="4.26228">
        <ele>558</ele>
        <time>2018-08-13T08:29:57Z</time>
      </trkpt>
      <trkpt lat="45.8248" lon="4.26234">
        <ele>558</ele>
        <time>2018-08-13T08:30:03Z</time>
      </trkpt>
      <trkpt lat="45.82479" lon="4.26241">
        <ele>558</ele>
        <time>2018-08-13T08:30:08Z</time>
      </trkpt>
      <trkpt lat="45.8248" lon="4.2625">
        <ele>558</ele>
        <time>2018-08-13T08:30:14Z</time>
      </trkpt>
      <trkpt lat="45.82482" lon="4.26256">
        <ele>558</ele>
        <time>2018-08-13T08:30:20Z</time>
      </trkpt>
      <trkpt lat="45.82483" lon="4.26261">
        <ele>558</ele>
        <time>2018-08-13T08:30:25Z</time>
      </trkpt>
      <trkpt lat="45.82486" lon="4.26269">
        <ele>558</ele>
        <time>2018-08-13T08:30:31Z</time>
      </trkpt>
      <trkpt lat="45.82488" lon="4.26276">
        <ele>558</ele>
        <time>2018-08-13T08:30:36Z</time>
      </trkpt>
      <trkpt lat="45.8249" lon="4.26284">
        <ele>558</ele>
        <time>2018-08-13T08:30:42Z</time>
      </trkpt>
      <trkpt lat="45.82492" lon="4.2629">
        <ele>558</ele>
        <time>2018-08-13T08:30:47Z</time>
      </trkpt>
      <trkpt lat="45.82493" lon="4.26295">
        <ele>559</ele>
        <time>2018-08-13T08:30:53Z</time>
      </trkpt>
      <trkpt lat="45.82495" lon="4.26303">
        <ele>559</ele>
        <time>2018-08-13T08:30:58Z</time>
      </trkpt>
      <trkpt lat="45.82497" lon="4.26312">
        <ele>559</ele>
        <time>2018-08-13T08:31:04Z</time>
      </trkpt>
      <trkpt lat="45.82499" lon="4.26318">
        <ele>560</ele>
        <time>2018-08-13T08:31:10Z</time>
      </trkpt>
      <trkpt lat="45.82502" lon="4.26324">
        <ele>560</ele>
        <time>2018-08-13T08:31:16Z</time>
      </trkpt>
      <trkpt lat="45.82503" lon="4.26332">
        <ele>561</ele>
        <time>2018-08-13T08:31:21Z</time>
      </trkpt>
      <trkpt lat="45.82507" lon="4.2634">
        <ele>561</ele>
        <time>2018-08-13T08:31:27Z</time>
      </trkpt>
      <trkpt lat="45.82509" lon="4.26349">
        <ele>562</ele>
        <time>2018-08-13T08:31:33Z</time>
      </trkpt>
      <trkpt lat="45.82512" lon="4.26356">
        <ele>562</ele>
        <time>2018-08-13T08:31:39Z</time>
      </trkpt>
      <trkpt lat="45.82514" lon="4.26364">
        <ele>562</ele>
        <time>2018-08-13T08:31:44Z</time>
      </trkpt>
      <trkpt lat="45.82516" lon="4.26371">
        <ele>562</ele>
        <time>2018-08-13T08:31:50Z</time>
      </trkpt>
      <trkpt lat="45.82517" lon="4.26379">
        <ele>562</ele>
        <time>2018-08-13T08:31:55Z</time>
      </trkpt>
      <trkpt lat="45.82521" lon="4.26387">
        <ele>563</ele>
        <time>2018-08-13T08:32:00Z</time>
      </trkpt>
      <trkpt lat="45.82523" lon="4.26394">
        <ele>563</ele>
        <time>2018-08-13T08:32:06Z</time>
      </trkpt>
      <trkpt lat="45.82525" lon="4.264">
        <ele>563</ele>
        <time>2018-08-13T08:32:11Z</time>
      </trkpt>
      <trkpt lat="45.82526" lon="4.26409">
        <ele>563</ele>
        <time>2018-08-13T08:32:17Z</time>
      </trkpt>
      <trkpt lat="45.82531" lon="4.26419">
        <ele>564</ele>
        <time>2018-08-13T08:32:23Z</time>
      </trkpt>
      <trkpt lat="45.82533" lon="4.26422">
        <ele>564</ele>
        <time>2018-08-13T08:32:28Z</time>
      </trkpt>
      <trkpt lat="45.82535" lon="4.26427">
        <ele>565</ele>
        <time>2018-08-13T08:32:34Z</time>
      </trkpt>
      <trkpt lat="45.82537" lon="4.26435">
        <ele>565</ele>
        <time>2018-08-13T08:32:39Z</time>
      </trkpt>
      <trkpt lat="45.82541" lon="4.26443">
        <ele>565</ele>
        <time>2018-08-13T08:32:45Z</time>
      </trkpt>
      <trkpt lat="45.82543" lon="4.2645">
        <ele>565</ele>
        <time>2018-08-13T08:32:51Z</time>
      </trkpt>
      <trkpt lat="45.82546" lon="4.26457">
        <ele>565</ele>
        <time>2018-08-13T08:32:56Z</time>
      </trkpt>
      <trkpt lat="45.82547" lon="4.26465">
        <ele>565</ele>
        <time>2018-08-13T08:33:02Z</time>
      </trkpt>
      <trkpt lat="45.82549" lon="4.2647">
        <ele>565</ele>
        <time>2018-08-13T08:33:08Z</time>
      </trkpt>
      <trkpt lat="45.82553" lon="4.26478">
        <ele>566</ele>
        <time>2018-08-13T08:33:14Z</time>
      </trkpt>
      <trkpt lat="45.82555" lon="4.26486">
        <ele>566</ele>
        <time>2018-08-13T08:33:19Z</time>
      </trkpt>
      <trkpt lat="45.82558" lon="4.26491">
        <ele>567</ele>
        <time>2018-08-13T08:33:24Z</time>
      </trkpt>
      <trkpt lat="45.82562" lon="4.26499">
        <ele>567</ele>
        <time>2018-08-13T08:33:30Z</time>
      </trkpt>
      <trkpt lat="45.82567" lon="4.26505">
        <ele>567</ele>
        <time>2018-08-13T08:33:35Z</time>
      </trkpt>
      <trkpt lat="45.82571" lon="4.26511">
        <ele>567</ele>
        <time>2018-08-13T08:33:41Z</time>
      </trkpt>
      <trkpt lat="45.82575" lon="4.26518">
        <ele>567</ele>
        <time>2018-08-13T08:33:47Z</time>
      </trkpt>
      <trkpt lat="45.82578" lon="4.26522">
        <ele>567</ele>
        <time>2018-08-13T08:33:52Z</time>
      </trkpt>
      <trkpt lat="45.82583" lon="4.2653">
        <ele>566</ele>
        <time>2018-08-13T08:33:58Z</time>
      </trkpt>
      <trkpt lat="45.82589" lon="4.26537">
        <ele>573</ele>
        <time>2018-08-13T08:34:04Z</time>
      </trkpt>
      <trkpt lat="45.82597" lon="4.26542">
        <ele>573</ele>
        <time>2018-08-13T08:34:10Z</time>
      </trkpt>
      <trkpt lat="45.82599" lon="4.26546">
        <ele>573</ele>
        <time>2018-08-13T08:34:16Z</time>
      </trkpt>
      <trkpt lat="45.82603" lon="4.26548">
        <ele>574</ele>
        <time>2018-08-13T08:34:22Z</time>
      </trkpt>
      <trkpt lat="45.82608" lon="4.26552">
        <ele>574</ele>
        <time>2018-08-13T08:34:27Z</time>
      </trkpt>
      <trkpt lat="45.82609" lon="4.26554">
        <ele>574</ele>
        <time>2018-08-13T08:34:33Z</time>
      </trkpt>
      <trkpt lat="45.82608" lon="4.26555">
        <ele>574</ele>
        <time>2018-08-13T08:34:38Z</time>
      </trkpt>
      <trkpt lat="45.82609" lon="4.26556">
        <ele>574</ele>
        <time>2018-08-13T08:34:43Z</time>
      </trkpt>
      <trkpt lat="45.82607" lon="4.26557">
        <ele>573</ele>
        <time>2018-08-13T08:34:49Z</time>
      </trkpt>
      <trkpt lat="45.82609" lon="4.26556">
        <ele>574</ele>
        <time>2018-08-13T08:34:55Z</time>
      </trkpt>
      <trkpt lat="45.82615" lon="4.26561">
        <ele>574</ele>
        <time>2018-08-13T08:35:00Z</time>
      </trkpt>
      <trkpt lat="45.82622" lon="4.26565">
        <ele>575</ele>
        <time>2018-08-13T08:35:06Z</time>
      </trkpt>
      <trkpt lat="45.82629" lon="4.2657">
        <ele>575</ele>
        <time>2018-08-13T08:35:12Z</time>
      </trkpt>
      <trkpt lat="45.82635" lon="4.26574">
        <ele>576</ele>
        <time>2018-08-13T08:35:18Z</time>
      </trkpt>
      <trkpt lat="45.8264" lon="4.26578">
        <ele>577</ele>
        <time>2018-08-13T08:35:24Z</time>
      </trkpt>
      <trkpt lat="45.82646" lon="4.26583">
        <ele>577</ele>
        <time>2018-08-13T08:35:30Z</time>
      </trkpt>
      <trkpt lat="45.8265" lon="4.26588">
        <ele>577</ele>
        <time>2018-08-13T08:35:35Z</time>
      </trkpt>
      <trkpt lat="45.82655" lon="4.26593">
        <ele>578</ele>
        <time>2018-08-13T08:35:41Z</time>
      </trkpt>
      <trkpt lat="45.82659" lon="4.26598">
        <ele>578</ele>
        <time>2018-08-13T08:35:47Z</time>
      </trkpt>
      <trkpt lat="45.82666" lon="4.26605">
        <ele>577</ele>
        <time>2018-08-13T08:35:53Z</time>
      </trkpt>
      <trkpt lat="45.82669" lon="4.2661">
        <ele>583</ele>
        <time>2018-08-13T08:35:59Z</time>
      </trkpt>
      <trkpt lat="45.82672" lon="4.26618">
        <ele>583</ele>
        <time>2018-08-13T08:36:05Z</time>
      </trkpt>
      <trkpt lat="45.82676" lon="4.26624">
        <ele>583</ele>
        <time>2018-08-13T08:36:11Z</time>
      </trkpt>
      <trkpt lat="45.82681" lon="4.26629">
        <ele>583</ele>
        <time>2018-08-13T08:36:16Z</time>
      </trkpt>
      <trkpt lat="45.82687" lon="4.26635">
        <ele>583</ele>
        <time>2018-08-13T08:36:22Z</time>
      </trkpt>
      <trkpt lat="45.82691" lon="4.26641">
        <ele>583</ele>
        <time>2018-08-13T08:36:27Z</time>
      </trkpt>
      <trkpt lat="45.82697" lon="4.26649">
        <ele>584</ele>
        <time>2018-08-13T08:36:33Z</time>
      </trkpt>
      <trkpt lat="45.82702" lon="4.26655">
        <ele>584</ele>
        <time>2018-08-13T08:36:39Z</time>
      </trkpt>
      <trkpt lat="45.82706" lon="4.26661">
        <ele>584</ele>
        <time>2018-08-13T08:36:44Z</time>
      </trkpt>
      <trkpt lat="45.8271" lon="4.26669">
        <ele>584</ele>
        <time>2018-08-13T08:36:50Z</time>
      </trkpt>
      <trkpt lat="45.82714" lon="4.26676">
        <ele>585</ele>
        <time>2018-08-13T08:36:55Z</time>
      </trkpt>
      <trkpt lat="45.82718" lon="4.26685">
        <ele>585</ele>
        <time>2018-08-13T08:37:01Z</time>
      </trkpt>
      <trkpt lat="45.82722" lon="4.26691">
        <ele>585</ele>
        <time>2018-08-13T08:37:07Z</time>
      </trkpt>
      <trkpt lat="45.82725" lon="4.267">
        <ele>586</ele>
        <time>2018-08-13T08:37:12Z</time>
      </trkpt>
      <trkpt lat="45.82728" lon="4.26708">
        <ele>586</ele>
        <time>2018-08-13T08:37:18Z</time>
      </trkpt>
      <trkpt lat="45.82729" lon="4.26715">
        <ele>586</ele>
        <time>2018-08-13T08:37:23Z</time>
      </trkpt>
      <trkpt lat="45.82731" lon="4.26725">
        <ele>586</ele>
        <time>2018-08-13T08:37:29Z</time>
      </trkpt>
      <trkpt lat="45.82733" lon="4.26734">
        <ele>587</ele>
        <time>2018-08-13T08:37:34Z</time>
      </trkpt>
      <trkpt lat="45.82736" lon="4.26744">
        <ele>588</ele>
        <time>2018-08-13T08:37:39Z</time>
      </trkpt>
      <trkpt lat="45.82739" lon="4.26754">
        <ele>589</ele>
        <time>2018-08-13T08:37:45Z</time>
      </trkpt>
      <trkpt lat="45.82741" lon="4.26764">
        <ele>589</ele>
        <time>2018-08-13T08:37:50Z</time>
      </trkpt>
      <trkpt lat="45.82743" lon="4.26773">
        <ele>588</ele>
        <time>2018-08-13T08:37:56Z</time>
      </trkpt>
      <trkpt lat="45.82745" lon="4.26782">
        <ele>588</ele>
        <time>2018-08-13T08:38:02Z</time>
      </trkpt>
      <trkpt lat="45.82748" lon="4.26788">
        <ele>589</ele>
        <time>2018-08-13T08:38:07Z</time>
      </trkpt>
      <trkpt lat="45.82749" lon="4.26796">
        <ele>589</ele>
        <time>2018-08-13T08:38:12Z</time>
      </trkpt>
      <trkpt lat="45.82751" lon="4.26806">
        <ele>594</ele>
        <time>2018-08-13T08:38:18Z</time>
      </trkpt>
      <trkpt lat="45.82752" lon="4.26815">
        <ele>594</ele>
        <time>2018-08-13T08:38:23Z</time>
      </trkpt>
      <trkpt lat="45.82754" lon="4.26823">
        <ele>594</ele>
        <time>2018-08-13T08:38:29Z</time>
      </trkpt>
      <trkpt lat="45.82757" lon="4.26833">
        <ele>594</ele>
        <time>2018-08-13T08:38:35Z</time>
      </trkpt>
      <trkpt lat="45.82761" lon="4.2684">
        <ele>595</ele>
        <time>2018-08-13T08:38:40Z</time>
      </trkpt>
      <trkpt lat="45.82765" lon="4.26846">
        <ele>595</ele>
        <time>2018-08-13T08:38:46Z</time>
      </trkpt>
      <trkpt lat="45.82769" lon="4.26857">
        <ele>596</ele>
        <time>2018-08-13T08:38:52Z</time>
      </trkpt>
      <trkpt lat="45.82772" lon="4.26865">
        <ele>596</ele>
        <time>2018-08-13T08:38:58Z</time>
      </trkpt>
      <trkpt lat="45.82774" lon="4.26872">
        <ele>596</ele>
        <time>2018-08-13T08:39:04Z</time>
      </trkpt>
      <trkpt lat="45.82776" lon="4.26881">
        <ele>596</ele>
        <time>2018-08-13T08:39:10Z</time>
      </trkpt>
      <trkpt lat="45.82778" lon="4.2689">
        <ele>597</ele>
        <time>2018-08-13T08:39:15Z</time>
      </trkpt>
      <trkpt lat="45.8278" lon="4.26896">
        <ele>597</ele>
        <time>2018-08-13T08:39:21Z</time>
      </trkpt>
      <trkpt lat="45.82782" lon="4.26898">
        <ele>597</ele>
        <time>2018-08-13T08:39:27Z</time>
      </trkpt>
      <trkpt lat="45.82781" lon="4.26895">
        <ele>597</ele>
        <time>2018-08-13T08:39:33Z</time>
      </trkpt>
      <trkpt lat="45.82782" lon="4.26894">
        <ele>597</ele>
        <time>2018-08-13T08:39:39Z</time>
      </trkpt>
      <trkpt lat="45.82784" lon="4.26892">
        <ele>597</ele>
        <time>2018-08-13T08:39:44Z</time>
      </trkpt>
      <trkpt lat="45.82785" lon="4.26895">
        <ele>597</ele>
        <time>2018-08-13T08:39:50Z</time>
      </trkpt>
      <trkpt lat="45.82785" lon="4.26897">
        <ele>597</ele>
        <time>2018-08-13T08:39:56Z</time>
      </trkpt>
      <trkpt lat="45.82784" lon="4.26897">
        <ele>597</ele>
        <time>2018-08-13T08:40:02Z</time>
      </trkpt>
      <trkpt lat="45.82784" lon="4.26897">
        <ele>597</ele>
        <time>2018-08-13T08:40:07Z</time>
      </trkpt>
      <trkpt lat="45.82785" lon="4.26897">
        <ele>597</ele>
        <time>2018-08-13T08:40:13Z</time>
      </trkpt>
      <trkpt lat="45.82785" lon="4.26895">
        <ele>597</ele>
        <time>2018-08-13T08:40:19Z</time>
      </trkpt>
      <trkpt lat="45.82783" lon="4.26894">
        <ele>597</ele>
        <time>2018-08-13T08:40:25Z</time>
      </trkpt>
      <trkpt lat="45.82781" lon="4.26895">
        <ele>597</ele>
        <time>2018-08-13T08:40:31Z</time>
      </trkpt>
      <trkpt lat="45.8278" lon="4.26897">
        <ele>597</ele>
        <time>2018-08-13T08:40:36Z</time>
      </trkpt>
      <trkpt lat="45.8278" lon="4.26898">
        <ele>597</ele>
        <time>2018-08-13T08:40:41Z</time>
      </trkpt>
      <trkpt lat="45.8278" lon="4.26901">
        <ele>597</ele>
        <time>2018-08-13T08:40:47Z</time>
      </trkpt>
      <trkpt lat="45.82782" lon="4.26902">
        <ele>597</ele>
        <time>2018-08-13T08:40:52Z</time>
      </trkpt>
      <trkpt lat="45.82784" lon="4.26904">
        <ele>597</ele>
        <time>2018-08-13T08:40:58Z</time>
      </trkpt>
      <trkpt lat="45.82786" lon="4.26904">
        <ele>597</ele>
        <time>2018-08-13T08:41:03Z</time>
      </trkpt>
      <trkpt lat="45.82786" lon="4.26902">
        <ele>597</ele>
        <time>2018-08-13T08:41:09Z</time>
      </trkpt>
      <trkpt lat="45.82785" lon="4.26897">
        <ele>597</ele>
        <time>2018-08-13T08:41:15Z</time>
      </trkpt>
      <trkpt lat="45.82785" lon="4.26896">
        <ele>597</ele>
        <time>2018-08-13T08:41:20Z</time>
      </trkpt>
      <trkpt lat="45.82784" lon="4.26895">
        <ele>597</ele>
        <time>2018-08-13T08:41:26Z</time>
      </trkpt>
      <trkpt lat="45.82784" lon="4.26895">
        <ele>597</ele>
        <time>2018-08-13T08:41:31Z</time>
      </trkpt>
      <trkpt lat="45.82783" lon="4.26894">
        <ele>597</ele>
        <time>2018-08-13T08:41:37Z</time>
      </trkpt>
      <trkpt lat="45.82783" lon="4.26893">
        <ele>597</ele>
        <time>2018-08-13T08:41:43Z</time>
      </trkpt>
      <trkpt lat="45.82783" lon="4.26893">
        <ele>597</ele>
        <time>2018-08-13T08:41:49Z</time>
      </trkpt>
      <trkpt lat="45.82784" lon="4.26895">
        <ele>597</ele>
        <time>2018-08-13T08:41:54Z</time>
      </trkpt>
      <trkpt lat="45.82783" lon="4.26895">
        <ele>597</ele>
        <time>2018-08-13T08:41:59Z</time>
      </trkpt>
      <trkpt lat="45.82783" lon="4.26896">
        <ele>597</ele>
        <time>2018-08-13T08:42:05Z</time>
      </trkpt>
      <trkpt lat="45.82784" lon="4.26902">
        <ele>597</ele>
        <time>2018-08-13T08:42:11Z</time>
      </trkpt>
      <trkpt lat="45.82785" lon="4.26912">
        <ele>597</ele>
        <time>2018-08-13T08:42:17Z</time>
      </trkpt>
      <trkpt lat="45.82787" lon="4.2692">
        <ele>598</ele>
        <time>2018-08-13T08:42:23Z</time>
      </trkpt>
      <trkpt lat="45.82788" lon="4.26925">
        <ele>598</ele>
        <time>2018-08-13T08:42:28Z</time>
      </trkpt>
      <trkpt lat="45.82789" lon="4.26935">
        <ele>598</ele>
        <time>2018-08-13T08:42:34Z</time>
      </trkpt>
      <trkpt lat="45.8279" lon="4.26942">
        <ele>598</ele>
        <time>2018-08-13T08:42:39Z</time>
      </trkpt>
      <trkpt lat="45.8279" lon="4.2695">
        <ele>598</ele>
        <time>2018-08-13T08:42:45Z</time>
      </trkpt>
      <trkpt lat="45.82791" lon="4.26957">
        <ele>598</ele>
        <time>2018-08-13T08:42:51Z</time>
      </trkpt>
      <trkpt lat="45.82793" lon="4.26965">
        <ele>598</ele>
        <time>2018-08-13T08:42:56Z</time>
      </trkpt>
      <trkpt lat="45.82794" lon="4.26971">
        <ele>598</ele>
        <time>2018-08-13T08:43:02Z</time>
      </trkpt>
      <trkpt lat="45.82795" lon="4.26979">
        <ele>598</ele>
        <time>2018-08-13T08:43:08Z</time>
      </trkpt>
      <trkpt lat="45.82796" lon="4.26986">
        <ele>599</ele>
        <time>2018-08-13T08:43:14Z</time>
      </trkpt>
      <trkpt lat="45.82798" lon="4.26993">
        <ele>599</ele>
        <time>2018-08-13T08:43:20Z</time>
      </trkpt>
      <trkpt lat="45.82799" lon="4.27">
        <ele>599</ele>
        <time>2018-08-13T08:43:25Z</time>
      </trkpt>
      <trkpt lat="45.82799" lon="4.27008">
        <ele>599</ele>
        <time>2018-08-13T08:43:31Z</time>
      </trkpt>
      <trkpt lat="45.82801" lon="4.27015">
        <ele>599</ele>
        <time>2018-08-13T08:43:36Z</time>
      </trkpt>
      <trkpt lat="45.82802" lon="4.2702">
        <ele>599</ele>
        <time>2018-08-13T08:43:42Z</time>
      </trkpt>
      <trkpt lat="45.82805" lon="4.27028">
        <ele>599</ele>
        <time>2018-08-13T08:43:48Z</time>
      </trkpt>
      <trkpt lat="45.82807" lon="4.27042">
        <ele>599</ele>
        <time>2018-08-13T08:43:54Z</time>
      </trkpt>
      <trkpt lat="45.82809" lon="4.2705">
        <ele>600</ele>
        <time>2018-08-13T08:44:00Z</time>
      </trkpt>
      <trkpt lat="45.82811" lon="4.27058">
        <ele>600</ele>
        <time>2018-08-13T08:44:05Z</time>
      </trkpt>
      <trkpt lat="45.8281" lon="4.27067">
        <ele>600</ele>
        <time>2018-08-13T08:44:11Z</time>
      </trkpt>
      <trkpt lat="45.82812" lon="4.27076">
        <ele>600</ele>
        <time>2018-08-13T08:44:16Z</time>
      </trkpt>
      <trkpt lat="45.82815" lon="4.27086">
        <ele>600</ele>
        <time>2018-08-13T08:44:22Z</time>
      </trkpt>
      <trkpt lat="45.82817" lon="4.27095">
        <ele>600</ele>
        <time>2018-08-13T08:44:28Z</time>
      </trkpt>
      <trkpt lat="45.82818" lon="4.271">
        <ele>600</ele>
        <time>2018-08-13T08:44:33Z</time>
      </trkpt>
      <trkpt lat="45.8282" lon="4.271">
        <ele>600</ele>
        <time>2018-08-13T08:44:39Z</time>
      </trkpt>
      <trkpt lat="45.8282" lon="4.27099">
        <ele>600</ele>
        <time>2018-08-13T08:44:44Z</time>
      </trkpt>
      <trkpt lat="45.8282" lon="4.27101">
        <ele>600</ele>
        <time>2018-08-13T08:44:50Z</time>
      </trkpt>
      <trkpt lat="45.82821" lon="4.27111">
        <ele>599</ele>
        <time>2018-08-13T08:44:56Z</time>
      </trkpt>
      <trkpt lat="45.82824" lon="4.2712">
        <ele>599</ele>
        <time>2018-08-13T08:45:02Z</time>
      </trkpt>
      <trkpt lat="45.82826" lon="4.27127">
        <ele>599</ele>
        <time>2018-08-13T08:45:07Z</time>
      </trkpt>
      <trkpt lat="45.82829" lon="4.27139">
        <ele>600</ele>
        <time>2018-08-13T08:45:12Z</time>
      </trkpt>
      <trkpt lat="45.82834" lon="4.27146">
        <ele>603</ele>
        <time>2018-08-13T08:45:18Z</time>
      </trkpt>
      <trkpt lat="45.82837" lon="4.27152">
        <ele>603</ele>
        <time>2018-08-13T08:45:23Z</time>
      </trkpt>
      <trkpt lat="45.82844" lon="4.27157">
        <ele>603</ele>
        <time>2018-08-13T08:45:29Z</time>
      </trkpt>
      <trkpt lat="45.82847" lon="4.2716">
        <ele>603</ele>
        <time>2018-08-13T08:45:34Z</time>
      </trkpt>
      <trkpt lat="45.82852" lon="4.27163">
        <ele>604</ele>
        <time>2018-08-13T08:45:39Z</time>
      </trkpt>
      <trkpt lat="45.82858" lon="4.2717">
        <ele>605</ele>
        <time>2018-08-13T08:45:44Z</time>
      </trkpt>
      <trkpt lat="45.82862" lon="4.27176">
        <ele>606</ele>
        <time>2018-08-13T08:45:50Z</time>
      </trkpt>
      <trkpt lat="45.82869" lon="4.27184">
        <ele>606</ele>
        <time>2018-08-13T08:45:56Z</time>
      </trkpt>
      <trkpt lat="45.82873" lon="4.27189">
        <ele>606</ele>
        <time>2018-08-13T08:46:01Z</time>
      </trkpt>
      <trkpt lat="45.82878" lon="4.27195">
        <ele>607</ele>
        <time>2018-08-13T08:46:07Z</time>
      </trkpt>
      <trkpt lat="45.82882" lon="4.27199">
        <ele>607</ele>
        <time>2018-08-13T08:46:13Z</time>
      </trkpt>
      <trkpt lat="45.82886" lon="4.27206">
        <ele>607</ele>
        <time>2018-08-13T08:46:18Z</time>
      </trkpt>
      <trkpt lat="45.82891" lon="4.27212">
        <ele>607</ele>
        <time>2018-08-13T08:46:24Z</time>
      </trkpt>
      <trkpt lat="45.82895" lon="4.27219">
        <ele>608</ele>
        <time>2018-08-13T08:46:29Z</time>
      </trkpt>
      <trkpt lat="45.829" lon="4.27223">
        <ele>608</ele>
        <time>2018-08-13T08:46:35Z</time>
      </trkpt>
      <trkpt lat="45.82905" lon="4.27229">
        <ele>608</ele>
        <time>2018-08-13T08:46:41Z</time>
      </trkpt>
      <trkpt lat="45.82911" lon="4.27235">
        <ele>609</ele>
        <time>2018-08-13T08:46:47Z</time>
      </trkpt>
      <trkpt lat="45.82916" lon="4.27241">
        <ele>610</ele>
        <time>2018-08-13T08:46:52Z</time>
      </trkpt>
      <trkpt lat="45.82921" lon="4.2725">
        <ele>611</ele>
        <time>2018-08-13T08:46:58Z</time>
      </trkpt>
      <trkpt lat="45.82926" lon="4.27255">
        <ele>612</ele>
        <time>2018-08-13T08:47:04Z</time>
      </trkpt>
      <trkpt lat="45.82932" lon="4.2726">
        <ele>612</ele>
        <time>2018-08-13T08:47:10Z</time>
      </trkpt>
      <trkpt lat="45.82933" lon="4.2726">
        <ele>612</ele>
        <time>2018-08-13T08:47:15Z</time>
      </trkpt>
      <trkpt lat="45.82933" lon="4.27259">
        <ele>612</ele>
        <time>2018-08-13T08:47:21Z</time>
      </trkpt>
      <trkpt lat="45.82933" lon="4.27259">
        <ele>612</ele>
        <time>2018-08-13T08:47:27Z</time>
      </trkpt>
      <trkpt lat="45.82933" lon="4.27259">
        <ele>612</ele>
        <time>2018-08-13T08:47:32Z</time>
      </trkpt>
      <trkpt lat="45.82932" lon="4.27258">
        <ele>612</ele>
        <time>2018-08-13T08:47:38Z</time>
      </trkpt>
      <trkpt lat="45.82932" lon="4.27257">
        <ele>612</ele>
        <time>2018-08-13T08:47:43Z</time>
      </trkpt>
      <trkpt lat="45.82932" lon="4.27257">
        <ele>612</ele>
        <time>2018-08-13T08:47:49Z</time>
      </trkpt>
      <trkpt lat="45.82938" lon="4.27263">
        <ele>612</ele>
        <time>2018-08-13T08:47:55Z</time>
      </trkpt>
      <trkpt lat="45.82941" lon="4.27267">
        <ele>612</ele>
        <time>2018-08-13T08:48:00Z</time>
      </trkpt>
      <trkpt lat="45.82949" lon="4.27274">
        <ele>613</ele>
        <time>2018-08-13T08:48:07Z</time>
      </trkpt>
      <trkpt lat="45.82951" lon="4.27279">
        <ele>613</ele>
        <time>2018-08-13T08:48:12Z</time>
      </trkpt>
      <trkpt lat="45.82954" lon="4.27284">
        <ele>613</ele>
        <time>2018-08-13T08:48:17Z</time>
      </trkpt>
      <trkpt lat="45.82958" lon="4.27291">
        <ele>613</ele>
        <time>2018-08-13T08:48:23Z</time>
      </trkpt>
      <trkpt lat="45.82965" lon="4.27298">
        <ele>613</ele>
        <time>2018-08-13T08:48:28Z</time>
      </trkpt>
      <trkpt lat="45.82969" lon="4.27303">
        <ele>613</ele>
        <time>2018-08-13T08:48:34Z</time>
      </trkpt>
      <trkpt lat="45.82974" lon="4.27309">
        <ele>614</ele>
        <time>2018-08-13T08:48:40Z</time>
      </trkpt>
      <trkpt lat="45.8298" lon="4.27316">
        <ele>614</ele>
        <time>2018-08-13T08:48:46Z</time>
      </trkpt>
      <trkpt lat="45.82985" lon="4.2732">
        <ele>614</ele>
        <time>2018-08-13T08:48:52Z</time>
      </trkpt>
      <trkpt lat="45.82986" lon="4.27322">
        <ele>614</ele>
        <time>2018-08-13T08:48:57Z</time>
      </trkpt>
      <trkpt lat="45.82984" lon="4.27326">
        <ele>614</ele>
        <time>2018-08-13T08:49:03Z</time>
      </trkpt>
      <trkpt lat="45.82985" lon="4.27328">
        <ele>615</ele>
        <time>2018-08-13T08:49:09Z</time>
      </trkpt>
      <trkpt lat="45.8299" lon="4.27335">
        <ele>616</ele>
        <time>2018-08-13T08:49:14Z</time>
      </trkpt>
      <trkpt lat="45.82994" lon="4.27342">
        <ele>617</ele>
        <time>2018-08-13T08:49:20Z</time>
      </trkpt>
      <trkpt lat="45.82997" lon="4.27345">
        <ele>617</ele>
        <time>2018-08-13T08:49:26Z</time>
      </trkpt>
      <trkpt lat="45.82998" lon="4.2735">
        <ele>617</ele>
        <time>2018-08-13T08:49:31Z</time>
      </trkpt>
      <trkpt lat="45.83" lon="4.27354">
        <ele>617</ele>
        <time>2018-08-13T08:49:37Z</time>
      </trkpt>
      <trkpt lat="45.83004" lon="4.27357">
        <ele>619</ele>
        <time>2018-08-13T08:49:43Z</time>
      </trkpt>
      <trkpt lat="45.83008" lon="4.2736">
        <ele>619</ele>
        <time>2018-08-13T08:49:48Z</time>
      </trkpt>
      <trkpt lat="45.83014" lon="4.27366">
        <ele>620</ele>
        <time>2018-08-13T08:49:54Z</time>
      </trkpt>
      <trkpt lat="45.83017" lon="4.2737">
        <ele>620</ele>
        <time>2018-08-13T08:49:59Z</time>
      </trkpt>
      <trkpt lat="45.83024" lon="4.27373">
        <ele>620</ele>
        <time>2018-08-13T08:50:05Z</time>
      </trkpt>
      <trkpt lat="45.83028" lon="4.27375">
        <ele>620</ele>
        <time>2018-08-13T08:50:10Z</time>
      </trkpt>
      <trkpt lat="45.83033" lon="4.27379">
        <ele>621</ele>
        <time>2018-08-13T08:50:16Z</time>
      </trkpt>
      <trkpt lat="45.83037" lon="4.27383">
        <ele>621</ele>
        <time>2018-08-13T08:50:22Z</time>
      </trkpt>
      <trkpt lat="45.83041" lon="4.27385">
        <ele>621</ele>
        <time>2018-08-13T08:50:28Z</time>
      </trkpt>
      <trkpt lat="45.83048" lon="4.27388">
        <ele>621</ele>
        <time>2018-08-13T08:50:34Z</time>
      </trkpt>
      <trkpt lat="45.83056" lon="4.27389">
        <ele>621</ele>
        <time>2018-08-13T08:50:39Z</time>
      </trkpt>
      <trkpt lat="45.83058" lon="4.27391">
        <ele>621</ele>
        <time>2018-08-13T08:50:45Z</time>
      </trkpt>
      <trkpt lat="45.83064" lon="4.27393">
        <ele>621</ele>
        <time>2018-08-13T08:50:51Z</time>
      </trkpt>
      <trkpt lat="45.83068" lon="4.27396">
        <ele>621</ele>
        <time>2018-08-13T08:50:56Z</time>
      </trkpt>
      <trkpt lat="45.83075" lon="4.27403">
        <ele>622</ele>
        <time>2018-08-13T08:51:01Z</time>
      </trkpt>
      <trkpt lat="45.83079" lon="4.27408">
        <ele>622</ele>
        <time>2018-08-13T08:51:07Z</time>
      </trkpt>
      <trkpt lat="45.83083" lon="4.27412">
        <ele>623</ele>
        <time>2018-08-13T08:51:12Z</time>
      </trkpt>
      <trkpt lat="45.83088" lon="4.27416">
        <ele>623</ele>
        <time>2018-08-13T08:51:18Z</time>
      </trkpt>
      <trkpt lat="45.83093" lon="4.27421">
        <ele>624</ele>
        <time>2018-08-13T08:51:24Z</time>
      </trkpt>
      <trkpt lat="45.831" lon="4.27429">
        <ele>624</ele>
        <time>2018-08-13T08:51:30Z</time>
      </trkpt>
      <trkpt lat="45.83107" lon="4.27432">
        <ele>625</ele>
        <time>2018-08-13T08:51:35Z</time>
      </trkpt>
      <trkpt lat="45.83113" lon="4.27436">
        <ele>625</ele>
        <time>2018-08-13T08:51:41Z</time>
      </trkpt>
      <trkpt lat="45.83119" lon="4.27439">
        <ele>625</ele>
        <time>2018-08-13T08:51:46Z</time>
      </trkpt>
      <trkpt lat="45.83124" lon="4.2744">
        <ele>625</ele>
        <time>2018-08-13T08:51:52Z</time>
      </trkpt>
      <trkpt lat="45.83128" lon="4.2744">
        <ele>625</ele>
        <time>2018-08-13T08:51:57Z</time>
      </trkpt>
      <trkpt lat="45.8313" lon="4.27442">
        <ele>625</ele>
        <time>2018-08-13T08:52:02Z</time>
      </trkpt>
      <trkpt lat="45.83132" lon="4.27444">
        <ele>626</ele>
        <time>2018-08-13T08:52:08Z</time>
      </trkpt>
      <trkpt lat="45.83132" lon="4.27445">
        <ele>626</ele>
        <time>2018-08-13T08:52:13Z</time>
      </trkpt>
      <trkpt lat="45.83129" lon="4.27446">
        <ele>625</ele>
        <time>2018-08-13T08:52:19Z</time>
      </trkpt>
      <trkpt lat="45.8313" lon="4.27445">
        <ele>625</ele>
        <time>2018-08-13T08:52:24Z</time>
      </trkpt>
      <trkpt lat="45.83128" lon="4.27446">
        <ele>625</ele>
        <time>2018-08-13T08:52:30Z</time>
      </trkpt>
      <trkpt lat="45.83126" lon="4.27448">
        <ele>625</ele>
        <time>2018-08-13T08:52:35Z</time>
      </trkpt>
      <trkpt lat="45.83126" lon="4.27451">
        <ele>625</ele>
        <time>2018-08-13T08:52:41Z</time>
      </trkpt>
      <trkpt lat="45.83127" lon="4.27452">
        <ele>625</ele>
        <time>2018-08-13T08:52:47Z</time>
      </trkpt>
      <trkpt lat="45.83129" lon="4.27449">
        <ele>625</ele>
        <time>2018-08-13T08:52:52Z</time>
      </trkpt>
      <trkpt lat="45.83129" lon="4.27448">
        <ele>625</ele>
        <time>2018-08-13T08:52:58Z</time>
      </trkpt>
      <trkpt lat="45.8313" lon="4.27448">
        <ele>625</ele>
        <time>2018-08-13T08:53:03Z</time>
      </trkpt>
      <trkpt lat="45.83131" lon="4.27447">
        <ele>625</ele>
        <time>2018-08-13T08:53:09Z</time>
      </trkpt>
      <trkpt lat="45.8313" lon="4.27446">
        <ele>625</ele>
        <time>2018-08-13T08:53:15Z</time>
      </trkpt>
      <trkpt lat="45.8313" lon="4.27446">
        <ele>625</ele>
        <time>2018-08-13T08:53:21Z</time>
      </trkpt>
      <trkpt lat="45.83132" lon="4.27449">
        <ele>625</ele>
        <time>2018-08-13T08:53:26Z</time>
      </trkpt>
      <trkpt lat="45.83137" lon="4.27453">
        <ele>626</ele>
        <time>2018-08-13T08:53:32Z</time>
      </trkpt>
      <trkpt lat="45.83141" lon="4.27455">
        <ele>626</ele>
        <time>2018-08-13T08:53:37Z</time>
      </trkpt>
      <trkpt lat="45.83146" lon="4.27457">
        <ele>626</ele>
        <time>2018-08-13T08:53:43Z</time>
      </trkpt>
      <trkpt lat="45.83152" lon="4.27458">
        <ele>626</ele>
        <time>2018-08-13T08:53:48Z</time>
      </trkpt>
      <trkpt lat="45.83157" lon="4.27457">
        <ele>626</ele>
        <time>2018-08-13T08:53:53Z</time>
      </trkpt>
      <trkpt lat="45.83163" lon="4.27458">
        <ele>626</ele>
        <time>2018-08-13T08:53:59Z</time>
      </trkpt>
      <trkpt lat="45.8317" lon="4.27459">
        <ele>630</ele>
        <time>2018-08-13T08:54:05Z</time>
      </trkpt>
      <trkpt lat="45.83176" lon="4.27461">
        <ele>630</ele>
        <time>2018-08-13T08:54:10Z</time>
      </trkpt>
      <trkpt lat="45.83181" lon="4.27464">
        <ele>630</ele>
        <time>2018-08-13T08:54:16Z</time>
      </trkpt>
      <trkpt lat="45.83187" lon="4.27465">
        <ele>630</ele>
        <time>2018-08-13T08:54:22Z</time>
      </trkpt>
      <trkpt lat="45.83194" lon="4.27466">
        <ele>630</ele>
        <time>2018-08-13T08:54:28Z</time>
      </trkpt>
      <trkpt lat="45.83202" lon="4.27466">
        <ele>631</ele>
        <time>2018-08-13T08:54:34Z</time>
      </trkpt>
      <trkpt lat="45.83207" lon="4.27468">
        <ele>631</ele>
        <time>2018-08-13T08:54:40Z</time>
      </trkpt>
      <trkpt lat="45.83211" lon="4.27469">
        <ele>631</ele>
        <time>2018-08-13T08:54:46Z</time>
      </trkpt>
      <trkpt lat="45.83219" lon="4.27473">
        <ele>631</ele>
        <time>2018-08-13T08:54:52Z</time>
      </trkpt>
      <trkpt lat="45.83226" lon="4.27475">
        <ele>632</ele>
        <time>2018-08-13T08:54:57Z</time>
      </trkpt>
      <trkpt lat="45.83234" lon="4.27478">
        <ele>632</ele>
        <time>2018-08-13T08:55:02Z</time>
      </trkpt>
      <trkpt lat="45.83238" lon="4.27479">
        <ele>632</ele>
        <time>2018-08-13T08:55:07Z</time>
      </trkpt>
      <trkpt lat="45.83244" lon="4.27479">
        <ele>632</ele>
        <time>2018-08-13T08:55:13Z</time>
      </trkpt>
      <trkpt lat="45.83248" lon="4.2748">
        <ele>633</ele>
        <time>2018-08-13T08:55:18Z</time>
      </trkpt>
      <trkpt lat="45.83255" lon="4.27481">
        <ele>635</ele>
        <time>2018-08-13T08:55:24Z</time>
      </trkpt>
      <trkpt lat="45.83259" lon="4.27482">
        <ele>636</ele>
        <time>2018-08-13T08:55:29Z</time>
      </trkpt>
      <trkpt lat="45.83262" lon="4.27484">
        <ele>636</ele>
        <time>2018-08-13T08:55:34Z</time>
      </trkpt>
      <trkpt lat="45.83266" lon="4.27486">
        <ele>636</ele>
        <time>2018-08-13T08:55:39Z</time>
      </trkpt>
      <trkpt lat="45.8327" lon="4.27483">
        <ele>636</ele>
        <time>2018-08-13T08:55:45Z</time>
      </trkpt>
      <trkpt lat="45.83276" lon="4.27476">
        <ele>636</ele>
        <time>2018-08-13T08:55:51Z</time>
      </trkpt>
      <trkpt lat="45.83279" lon="4.27471">
        <ele>636</ele>
        <time>2018-08-13T08:55:56Z</time>
      </trkpt>
      <trkpt lat="45.83283" lon="4.27463">
        <ele>637</ele>
        <time>2018-08-13T08:56:02Z</time>
      </trkpt>
      <trkpt lat="45.83287" lon="4.2746">
        <ele>637</ele>
        <time>2018-08-13T08:56:07Z</time>
      </trkpt>
      <trkpt lat="45.83289" lon="4.27455">
        <ele>637</ele>
        <time>2018-08-13T08:56:12Z</time>
      </trkpt>
      <trkpt lat="45.83293" lon="4.27449">
        <ele>637</ele>
        <time>2018-08-13T08:56:18Z</time>
      </trkpt>
      <trkpt lat="45.83299" lon="4.27446">
        <ele>637</ele>
        <time>2018-08-13T08:56:23Z</time>
      </trkpt>
      <trkpt lat="45.83302" lon="4.27442">
        <ele>637</ele>
        <time>2018-08-13T08:56:28Z</time>
      </trkpt>
      <trkpt lat="45.83307" lon="4.27436">
        <ele>637</ele>
        <time>2018-08-13T08:56:34Z</time>
      </trkpt>
      <trkpt lat="45.8331" lon="4.2743">
        <ele>637</ele>
        <time>2018-08-13T08:56:39Z</time>
      </trkpt>
      <trkpt lat="45.83315" lon="4.27425">
        <ele>637</ele>
        <time>2018-08-13T08:56:45Z</time>
      </trkpt>
      <trkpt lat="45.83319" lon="4.2742">
        <ele>637</ele>
        <time>2018-08-13T08:56:50Z</time>
      </trkpt>
      <trkpt lat="45.83324" lon="4.27417">
        <ele>637</ele>
        <time>2018-08-13T08:56:56Z</time>
      </trkpt>
      <trkpt lat="45.83327" lon="4.27414">
        <ele>636</ele>
        <time>2018-08-13T08:57:01Z</time>
      </trkpt>
      <trkpt lat="45.83334" lon="4.27412">
        <ele>636</ele>
        <time>2018-08-13T08:57:07Z</time>
      </trkpt>
      <trkpt lat="45.8334" lon="4.27409">
        <ele>634</ele>
        <time>2018-08-13T08:57:13Z</time>
      </trkpt>
      <trkpt lat="45.83345" lon="4.27407">
        <ele>633</ele>
        <time>2018-08-13T08:57:18Z</time>
      </trkpt>
      <trkpt lat="45.8335" lon="4.27404">
        <ele>632</ele>
        <time>2018-08-13T08:57:24Z</time>
      </trkpt>
      <trkpt lat="45.83352" lon="4.27402">
        <ele>632</ele>
        <time>2018-08-13T08:57:30Z</time>
      </trkpt>
      <trkpt lat="45.83357" lon="4.27399">
        <ele>631</ele>
        <time>2018-08-13T08:57:36Z</time>
      </trkpt>
      <trkpt lat="45.83359" lon="4.27397">
        <ele>631</ele>
        <time>2018-08-13T08:57:42Z</time>
      </trkpt>
      <trkpt lat="45.8336" lon="4.27398">
        <ele>631</ele>
        <time>2018-08-13T08:57:48Z</time>
      </trkpt>
      <trkpt lat="45.83361" lon="4.27399">
        <ele>631</ele>
        <time>2018-08-13T08:57:54Z</time>
      </trkpt>
      <trkpt lat="45.83362" lon="4.27398">
        <ele>631</ele>
        <time>2018-08-13T08:58:00Z</time>
      </trkpt>
      <trkpt lat="45.83363" lon="4.27397">
        <ele>631</ele>
        <time>2018-08-13T08:58:06Z</time>
      </trkpt>
      <trkpt lat="45.83362" lon="4.27396">
        <ele>631</ele>
        <time>2018-08-13T08:58:11Z</time>
      </trkpt>
      <trkpt lat="45.8336" lon="4.27396">
        <ele>631</ele>
        <time>2018-08-13T08:58:17Z</time>
      </trkpt>
      <trkpt lat="45.83359" lon="4.27399">
        <ele>631</ele>
        <time>2018-08-13T08:58:22Z</time>
      </trkpt>
      <trkpt lat="45.83359" lon="4.274">
        <ele>631</ele>
        <time>2018-08-13T08:58:27Z</time>
      </trkpt>
      <trkpt lat="45.83359" lon="4.274">
        <ele>631</ele>
        <time>2018-08-13T08:58:33Z</time>
      </trkpt>
      <trkpt lat="45.8336" lon="4.274">
        <ele>631</ele>
        <time>2018-08-13T08:58:39Z</time>
      </trkpt>
      <trkpt lat="45.83363" lon="4.27397">
        <ele>631</ele>
        <time>2018-08-13T08:58:44Z</time>
      </trkpt>
      <trkpt lat="45.83365" lon="4.27396">
        <ele>630</ele>
        <time>2018-08-13T08:58:50Z</time>
      </trkpt>
      <trkpt lat="45.83368" lon="4.27392">
        <ele>630</ele>
        <time>2018-08-13T08:58:56Z</time>
      </trkpt>
      <trkpt lat="45.83373" lon="4.27386">
        <ele>629</ele>
        <time>2018-08-13T08:59:02Z</time>
      </trkpt>
      <trkpt lat="45.83377" lon="4.27385">
        <ele>629</ele>
        <time>2018-08-13T08:59:08Z</time>
      </trkpt>
      <trkpt lat="45.83379" lon="4.27384">
        <ele>629</ele>
        <time>2018-08-13T08:59:13Z</time>
      </trkpt>
      <trkpt lat="45.83382" lon="4.27384">
        <ele>629</ele>
        <time>2018-08-13T08:59:18Z</time>
      </trkpt>
      <trkpt lat="45.83387" lon="4.27383">
        <ele>628</ele>
        <time>2018-08-13T08:59:24Z</time>
      </trkpt>
      <trkpt lat="45.83393" lon="4.27381">
        <ele>628</ele>
        <time>2018-08-13T08:59:29Z</time>
      </trkpt>
      <trkpt lat="45.83394" lon="4.2738">
        <ele>628</ele>
        <time>2018-08-13T08:59:34Z</time>
      </trkpt>
      <trkpt lat="45.83394" lon="4.27379">
        <ele>628</ele>
        <time>2018-08-13T08:59:40Z</time>
      </trkpt>
      <trkpt lat="45.83397" lon="4.27377">
        <ele>628</ele>
        <time>2018-08-13T08:59:45Z</time>
      </trkpt>
      <trkpt lat="45.83401" lon="4.27375">
        <ele>627</ele>
        <time>2018-08-13T08:59:50Z</time>
      </trkpt>
      <trkpt lat="45.83407" lon="4.27372">
        <ele>627</ele>
        <time>2018-08-13T08:59:56Z</time>
      </trkpt>
      <trkpt lat="45.8341" lon="4.2737">
        <ele>627</ele>
        <time>2018-08-13T09:00:01Z</time>
      </trkpt>
      <trkpt lat="45.83414" lon="4.27366">
        <ele>626</ele>
        <time>2018-08-13T09:00:07Z</time>
      </trkpt>
      <trkpt lat="45.83417" lon="4.27365">
        <ele>619</ele>
        <time>2018-08-13T09:00:13Z</time>
      </trkpt>
      <trkpt lat="45.83417" lon="4.27361">
        <ele>619</ele>
        <time>2018-08-13T09:00:20Z</time>
      </trkpt>
      <trkpt lat="45.83416" lon="4.2736">
        <ele>626</ele>
        <time>2018-08-13T09:00:26Z</time>
      </trkpt>
      <trkpt lat="45.83416" lon="4.27361">
        <ele>626</ele>
        <time>2018-08-13T09:00:32Z</time>
      </trkpt>
      <trkpt lat="45.83416" lon="4.27361">
        <ele>626</ele>
        <time>2018-08-13T09:00:37Z</time>
      </trkpt>
      <trkpt lat="45.83415" lon="4.27361">
        <ele>626</ele>
        <time>2018-08-13T09:00:43Z</time>
      </trkpt>
      <trkpt lat="45.83416" lon="4.27362">
        <ele>626</ele>
        <time>2018-08-13T09:00:48Z</time>
      </trkpt>
      <trkpt lat="45.83421" lon="4.2736">
        <ele>619</ele>
        <time>2018-08-13T09:00:54Z</time>
      </trkpt>
      <trkpt lat="45.83427" lon="4.27359">
        <ele>618</ele>
        <time>2018-08-13T09:01:00Z</time>
      </trkpt>
      <trkpt lat="45.83432" lon="4.27358">
        <ele>618</ele>
        <time>2018-08-13T09:01:06Z</time>
      </trkpt>
      <trkpt lat="45.83436" lon="4.27355">
        <ele>618</ele>
        <time>2018-08-13T09:01:12Z</time>
      </trkpt>
      <trkpt lat="45.8344" lon="4.27353">
        <ele>618</ele>
        <time>2018-08-13T09:01:17Z</time>
      </trkpt>
      <trkpt lat="45.83444" lon="4.27352">
        <ele>617</ele>
        <time>2018-08-13T09:01:22Z</time>
      </trkpt>
      <trkpt lat="45.83448" lon="4.27349">
        <ele>617</ele>
        <time>2018-08-13T09:01:28Z</time>
      </trkpt>
      <trkpt lat="45.83453" lon="4.27346">
        <ele>616</ele>
        <time>2018-08-13T09:01:33Z</time>
      </trkpt>
      <trkpt lat="45.83459" lon="4.2734">
        <ele>616</ele>
        <time>2018-08-13T09:01:39Z</time>
      </trkpt>
      <trkpt lat="45.83466" lon="4.27333">
        <ele>610</ele>
        <time>2018-08-13T09:01:45Z</time>
      </trkpt>
      <trkpt lat="45.83471" lon="4.2733">
        <ele>610</ele>
        <time>2018-08-13T09:01:50Z</time>
      </trkpt>
      <trkpt lat="45.83479" lon="4.27325">
        <ele>609</ele>
        <time>2018-08-13T09:01:56Z</time>
      </trkpt>
      <trkpt lat="45.83483" lon="4.27324">
        <ele>609</ele>
        <time>2018-08-13T09:02:01Z</time>
      </trkpt>
      <trkpt lat="45.83482" lon="4.27326">
        <ele>609</ele>
        <time>2018-08-13T09:02:07Z</time>
      </trkpt>
      <trkpt lat="45.83482" lon="4.27328">
        <ele>609</ele>
        <time>2018-08-13T09:02:12Z</time>
      </trkpt>
      <trkpt lat="45.83482" lon="4.27328">
        <ele>609</ele>
        <time>2018-08-13T09:02:17Z</time>
      </trkpt>
      <trkpt lat="45.83483" lon="4.27329">
        <ele>609</ele>
        <time>2018-08-13T09:02:23Z</time>
      </trkpt>
      <trkpt lat="45.83484" lon="4.27328">
        <ele>608</ele>
        <time>2018-08-13T09:02:28Z</time>
      </trkpt>
      <trkpt lat="45.83482" lon="4.2733">
        <ele>609</ele>
        <time>2018-08-13T09:02:34Z</time>
      </trkpt>
      <trkpt lat="45.83483" lon="4.27331">
        <ele>609</ele>
        <time>2018-08-13T09:02:40Z</time>
      </trkpt>
      <trkpt lat="45.83485" lon="4.27329">
        <ele>608</ele>
        <time>2018-08-13T09:02:45Z</time>
      </trkpt>
      <trkpt lat="45.83491" lon="4.27322">
        <ele>608</ele>
        <time>2018-08-13T09:02:51Z</time>
      </trkpt>
      <trkpt lat="45.83495" lon="4.27317">
        <ele>608</ele>
        <time>2018-08-13T09:02:57Z</time>
      </trkpt>
      <trkpt lat="45.83498" lon="4.27311">
        <ele>608</ele>
        <time>2018-08-13T09:03:03Z</time>
      </trkpt>
      <trkpt lat="45.83501" lon="4.27303">
        <ele>603</ele>
        <time>2018-08-13T09:03:08Z</time>
      </trkpt>
      <trkpt lat="45.83501" lon="4.27296">
        <ele>603</ele>
        <time>2018-08-13T09:03:14Z</time>
      </trkpt>
      <trkpt lat="45.835" lon="4.27288">
        <ele>602</ele>
        <time>2018-08-13T09:03:19Z</time>
      </trkpt>
      <trkpt lat="45.83499" lon="4.27279">
        <ele>606</ele>
        <time>2018-08-13T09:03:25Z</time>
      </trkpt>
      <trkpt lat="45.83496" lon="4.27275">
        <ele>606</ele>
        <time>2018-08-13T09:03:31Z</time>
      </trkpt>
      <trkpt lat="45.83494" lon="4.27272">
        <ele>605</ele>
        <time>2018-08-13T09:03:36Z</time>
      </trkpt>
      <trkpt lat="45.83496" lon="4.27271">
        <ele>605</ele>
        <time>2018-08-13T09:03:42Z</time>
      </trkpt>
      <trkpt lat="45.83496" lon="4.27271">
        <ele>605</ele>
        <time>2018-08-13T09:03:47Z</time>
      </trkpt>
      <trkpt lat="45.83493" lon="4.27263">
        <ele>604</ele>
        <time>2018-08-13T09:03:52Z</time>
      </trkpt>
      <trkpt lat="45.83491" lon="4.27257">
        <ele>603</ele>
        <time>2018-08-13T09:03:57Z</time>
      </trkpt>
      <trkpt lat="45.83489" lon="4.27252">
        <ele>603</ele>
        <time>2018-08-13T09:04:03Z</time>
      </trkpt>
      <trkpt lat="45.83488" lon="4.27247">
        <ele>600</ele>
        <time>2018-08-13T09:04:08Z</time>
      </trkpt>
      <trkpt lat="45.83486" lon="4.27244">
        <ele>600</ele>
        <time>2018-08-13T09:04:13Z</time>
      </trkpt>
      <trkpt lat="45.83485" lon="4.27238">
        <ele>600</ele>
        <time>2018-08-13T09:04:18Z</time>
      </trkpt>
      <trkpt lat="45.83478" lon="4.27228">
        <ele>600</ele>
        <time>2018-08-13T09:04:24Z</time>
      </trkpt>
      <trkpt lat="45.83477" lon="4.27223">
        <ele>599</ele>
        <time>2018-08-13T09:04:29Z</time>
      </trkpt>
      <trkpt lat="45.83482" lon="4.2722">
        <ele>599</ele>
        <time>2018-08-13T09:04:35Z</time>
      </trkpt>
      <trkpt lat="45.83488" lon="4.27218">
        <ele>599</ele>
        <time>2018-08-13T09:04:40Z</time>
      </trkpt>
      <trkpt lat="45.83492" lon="4.27214">
        <ele>598</ele>
        <time>2018-08-13T09:04:46Z</time>
      </trkpt>
      <trkpt lat="45.83497" lon="4.27212">
        <ele>598</ele>
        <time>2018-08-13T09:04:51Z</time>
      </trkpt>
      <trkpt lat="45.83504" lon="4.27208">
        <ele>595</ele>
        <time>2018-08-13T09:04:57Z</time>
      </trkpt>
      <trkpt lat="45.83506" lon="4.27205">
        <ele>595</ele>
        <time>2018-08-13T09:05:02Z</time>
      </trkpt>
      <trkpt lat="45.8351" lon="4.27202">
        <ele>595</ele>
        <time>2018-08-13T09:05:07Z</time>
      </trkpt>
      <trkpt lat="45.83515" lon="4.27198">
        <ele>595</ele>
        <time>2018-08-13T09:05:12Z</time>
      </trkpt>
      <trkpt lat="45.83519" lon="4.27197">
        <ele>595</ele>
        <time>2018-08-13T09:05:18Z</time>
      </trkpt>
      <trkpt lat="45.83524" lon="4.27193">
        <ele>595</ele>
        <time>2018-08-13T09:05:24Z</time>
      </trkpt>
      <trkpt lat="45.83528" lon="4.27187">
        <ele>594</ele>
        <time>2018-08-13T09:05:30Z</time>
      </trkpt>
      <trkpt lat="45.83532" lon="4.27181">
        <ele>594</ele>
        <time>2018-08-13T09:05:36Z</time>
      </trkpt>
      <trkpt lat="45.83536" lon="4.27173">
        <ele>594</ele>
        <time>2018-08-13T09:05:42Z</time>
      </trkpt>
      <trkpt lat="45.83541" lon="4.27166">
        <ele>593</ele>
        <time>2018-08-13T09:05:48Z</time>
      </trkpt>
      <trkpt lat="45.83543" lon="4.2716">
        <ele>593</ele>
        <time>2018-08-13T09:05:54Z</time>
      </trkpt>
      <trkpt lat="45.83547" lon="4.27155">
        <ele>593</ele>
        <time>2018-08-13T09:05:59Z</time>
      </trkpt>
      <trkpt lat="45.83551" lon="4.2715">
        <ele>593</ele>
        <time>2018-08-13T09:06:05Z</time>
      </trkpt>
      <trkpt lat="45.83556" lon="4.27148">
        <ele>594</ele>
        <time>2018-08-13T09:06:11Z</time>
      </trkpt>
      <trkpt lat="45.83558" lon="4.27147">
        <ele>594</ele>
        <time>2018-08-13T09:06:16Z</time>
      </trkpt>
      <trkpt lat="45.83565" lon="4.27145">
        <ele>594</ele>
        <time>2018-08-13T09:06:22Z</time>
      </trkpt>
      <trkpt lat="45.83569" lon="4.27144">
        <ele>594</ele>
        <time>2018-08-13T09:06:28Z</time>
      </trkpt>
      <trkpt lat="45.83573" lon="4.27143">
        <ele>594</ele>
        <time>2018-08-13T09:06:33Z</time>
      </trkpt>
      <trkpt lat="45.83578" lon="4.27141">
        <ele>594</ele>
        <time>2018-08-13T09:06:39Z</time>
      </trkpt>
      <trkpt lat="45.83586" lon="4.2714">
        <ele>600</ele>
        <time>2018-08-13T09:06:44Z</time>
      </trkpt>
      <trkpt lat="45.8359" lon="4.2714">
        <ele>600</ele>
        <time>2018-08-13T09:06:49Z</time>
      </trkpt>
      <trkpt lat="45.83597" lon="4.27143">
        <ele>600</ele>
        <time>2018-08-13T09:06:55Z</time>
      </trkpt>
      <trkpt lat="45.836" lon="4.27143">
        <ele>600</ele>
        <time>2018-08-13T09:07:01Z</time>
      </trkpt>
      <trkpt lat="45.83605" lon="4.27141">
        <ele>601</ele>
        <time>2018-08-13T09:07:06Z</time>
      </trkpt>
      <trkpt lat="45.83608" lon="4.27141">
        <ele>601</ele>
        <time>2018-08-13T09:07:11Z</time>
      </trkpt>
      <trkpt lat="45.83613" lon="4.2714">
        <ele>601</ele>
        <time>2018-08-13T09:07:17Z</time>
      </trkpt>
      <trkpt lat="45.83619" lon="4.2714">
        <ele>602</ele>
        <time>2018-08-13T09:07:22Z</time>
      </trkpt>
      <trkpt lat="45.83621" lon="4.2714">
        <ele>602</ele>
        <time>2018-08-13T09:07:28Z</time>
      </trkpt>
      <trkpt lat="45.83625" lon="4.27138">
        <ele>602</ele>
        <time>2018-08-13T09:07:33Z</time>
      </trkpt>
      <trkpt lat="45.83631" lon="4.27137">
        <ele>603</ele>
        <time>2018-08-13T09:07:38Z</time>
      </trkpt>
      <trkpt lat="45.83638" lon="4.27137">
        <ele>603</ele>
        <time>2018-08-13T09:07:44Z</time>
      </trkpt>
      <trkpt lat="45.83641" lon="4.27135">
        <ele>603</ele>
        <time>2018-08-13T09:07:49Z</time>
      </trkpt>
      <trkpt lat="45.83645" lon="4.27134">
        <ele>604</ele>
        <time>2018-08-13T09:07:54Z</time>
      </trkpt>
      <trkpt lat="45.83652" lon="4.27132">
        <ele>604</ele>
        <time>2018-08-13T09:07:59Z</time>
      </trkpt>
      <trkpt lat="45.83656" lon="4.2713">
        <ele>604</ele>
        <time>2018-08-13T09:08:04Z</time>
      </trkpt>
      <trkpt lat="45.83663" lon="4.27127">
        <ele>604</ele>
        <time>2018-08-13T09:08:10Z</time>
      </trkpt>
      <trkpt lat="45.83669" lon="4.27124">
        <ele>610</ele>
        <time>2018-08-13T09:08:16Z</time>
      </trkpt>
      <trkpt lat="45.83671" lon="4.27122">
        <ele>610</ele>
        <time>2018-08-13T09:08:22Z</time>
      </trkpt>
      <trkpt lat="45.83676" lon="4.27117">
        <ele>610</ele>
        <time>2018-08-13T09:08:27Z</time>
      </trkpt>
      <trkpt lat="45.83681" lon="4.27112">
        <ele>610</ele>
        <time>2018-08-13T09:08:33Z</time>
      </trkpt>
      <trkpt lat="45.83682" lon="4.27102">
        <ele>609</ele>
        <time>2018-08-13T09:08:39Z</time>
      </trkpt>
      <trkpt lat="45.83681" lon="4.27095">
        <ele>609</ele>
        <time>2018-08-13T09:08:44Z</time>
      </trkpt>
      <trkpt lat="45.83677" lon="4.27089">
        <ele>608</ele>
        <time>2018-08-13T09:08:50Z</time>
      </trkpt>
      <trkpt lat="45.83673" lon="4.27083">
        <ele>607</ele>
        <time>2018-08-13T09:08:56Z</time>
      </trkpt>
      <trkpt lat="45.8367" lon="4.27078">
        <ele>607</ele>
        <time>2018-08-13T09:09:01Z</time>
      </trkpt>
      <trkpt lat="45.83675" lon="4.2707">
        <ele>607</ele>
        <time>2018-08-13T09:09:07Z</time>
      </trkpt>
      <trkpt lat="45.83682" lon="4.27062">
        <ele>607</ele>
        <time>2018-08-13T09:09:13Z</time>
      </trkpt>
      <trkpt lat="45.83685" lon="4.27058">
        <ele>607</ele>
        <time>2018-08-13T09:09:18Z</time>
      </trkpt>
      <trkpt lat="45.83688" lon="4.27053">
        <ele>607</ele>
        <time>2018-08-13T09:09:23Z</time>
      </trkpt>
      <trkpt lat="45.83693" lon="4.27049">
        <ele>607</ele>
        <time>2018-08-13T09:09:29Z</time>
      </trkpt>
      <trkpt lat="45.83698" lon="4.27045">
        <ele>607</ele>
        <time>2018-08-13T09:09:35Z</time>
      </trkpt>
      <trkpt lat="45.83704" lon="4.27039">
        <ele>607</ele>
        <time>2018-08-13T09:09:41Z</time>
      </trkpt>
      <trkpt lat="45.83708" lon="4.27032">
        <ele>607</ele>
        <time>2018-08-13T09:09:47Z</time>
      </trkpt>
      <trkpt lat="45.83715" lon="4.27025">
        <ele>607</ele>
        <time>2018-08-13T09:09:53Z</time>
      </trkpt>
      <trkpt lat="45.8372" lon="4.27018">
        <ele>607</ele>
        <time>2018-08-13T09:09:59Z</time>
      </trkpt>
      <trkpt lat="45.83723" lon="4.27015">
        <ele>607</ele>
        <time>2018-08-13T09:10:04Z</time>
      </trkpt>
      <trkpt lat="45.83723" lon="4.27006">
        <ele>607</ele>
        <time>2018-08-13T09:10:10Z</time>
      </trkpt>
      <trkpt lat="45.8372" lon="4.26998">
        <ele>604</ele>
        <time>2018-08-13T09:10:16Z</time>
      </trkpt>
      <trkpt lat="45.83717" lon="4.26995">
        <ele>604</ele>
        <time>2018-08-13T09:10:21Z</time>
      </trkpt>
      <trkpt lat="45.83714" lon="4.26991">
        <ele>604</ele>
        <time>2018-08-13T09:10:26Z</time>
      </trkpt>
      <trkpt lat="45.83712" lon="4.26983">
        <ele>604</ele>
        <time>2018-08-13T09:10:32Z</time>
      </trkpt>
      <trkpt lat="45.83711" lon="4.26977">
        <ele>604</ele>
        <time>2018-08-13T09:10:38Z</time>
      </trkpt>
      <trkpt lat="45.83709" lon="4.26971">
        <ele>604</ele>
        <time>2018-08-13T09:10:43Z</time>
      </trkpt>
      <trkpt lat="45.83708" lon="4.26965">
        <ele>603</ele>
        <time>2018-08-13T09:10:49Z</time>
      </trkpt>
      <trkpt lat="45.83707" lon="4.26961">
        <ele>603</ele>
        <time>2018-08-13T09:10:54Z</time>
      </trkpt>
      <trkpt lat="45.83705" lon="4.26952">
        <ele>603</ele>
        <time>2018-08-13T09:11:00Z</time>
      </trkpt>
      <trkpt lat="45.83702" lon="4.26943">
        <ele>603</ele>
        <time>2018-08-13T09:11:06Z</time>
      </trkpt>
      <trkpt lat="45.837" lon="4.26937">
        <ele>603</ele>
        <time>2018-08-13T09:11:11Z</time>
      </trkpt>
      <trkpt lat="45.83698" lon="4.26932">
        <ele>602</ele>
        <time>2018-08-13T09:11:17Z</time>
      </trkpt>
      <trkpt lat="45.83697" lon="4.26924">
        <ele>602</ele>
        <time>2018-08-13T09:11:23Z</time>
      </trkpt>
      <trkpt lat="45.83695" lon="4.26917">
        <ele>602</ele>
        <time>2018-08-13T09:11:29Z</time>
      </trkpt>
      <trkpt lat="45.83691" lon="4.26912">
        <ele>599</ele>
        <time>2018-08-13T09:11:34Z</time>
      </trkpt>
      <trkpt lat="45.83695" lon="4.26906">
        <ele>599</ele>
        <time>2018-08-13T09:11:39Z</time>
      </trkpt>
      <trkpt lat="45.83698" lon="4.26902">
        <ele>599</ele>
        <time>2018-08-13T09:11:44Z</time>
      </trkpt>
      <trkpt lat="45.83701" lon="4.26891">
        <ele>599</ele>
        <time>2018-08-13T09:11:50Z</time>
      </trkpt>
      <trkpt lat="45.83701" lon="4.26886">
        <ele>599</ele>
        <time>2018-08-13T09:11:56Z</time>
      </trkpt>
      <trkpt lat="45.83701" lon="4.26876">
        <ele>598</ele>
        <time>2018-08-13T09:12:02Z</time>
      </trkpt>
      <trkpt lat="45.83699" lon="4.26865">
        <ele>598</ele>
        <time>2018-08-13T09:12:07Z</time>
      </trkpt>
      <trkpt lat="45.83697" lon="4.26858">
        <ele>598</ele>
        <time>2018-08-13T09:12:12Z</time>
      </trkpt>
      <trkpt lat="45.83694" lon="4.26849">
        <ele>597</ele>
        <time>2018-08-13T09:12:18Z</time>
      </trkpt>
      <trkpt lat="45.83693" lon="4.26842">
        <ele>597</ele>
        <time>2018-08-13T09:12:23Z</time>
      </trkpt>
      <trkpt lat="45.83692" lon="4.26832">
        <ele>595</ele>
        <time>2018-08-13T09:12:28Z</time>
      </trkpt>
      <trkpt lat="45.83691" lon="4.26825">
        <ele>595</ele>
        <time>2018-08-13T09:12:33Z</time>
      </trkpt>
      <trkpt lat="45.83692" lon="4.26818">
        <ele>595</ele>
        <time>2018-08-13T09:12:39Z</time>
      </trkpt>
      <trkpt lat="45.83693" lon="4.2681">
        <ele>595</ele>
        <time>2018-08-13T09:12:45Z</time>
      </trkpt>
      <trkpt lat="45.83693" lon="4.26803">
        <ele>595</ele>
        <time>2018-08-13T09:12:51Z</time>
      </trkpt>
      <trkpt lat="45.83691" lon="4.26792">
        <ele>594</ele>
        <time>2018-08-13T09:12:57Z</time>
      </trkpt>
      <trkpt lat="45.8369" lon="4.26785">
        <ele>594</ele>
        <time>2018-08-13T09:13:02Z</time>
      </trkpt>
      <trkpt lat="45.83691" lon="4.26774">
        <ele>594</ele>
        <time>2018-08-13T09:13:08Z</time>
      </trkpt>
      <trkpt lat="45.83693" lon="4.26765">
        <ele>594</ele>
        <time>2018-08-13T09:13:13Z</time>
      </trkpt>
      <trkpt lat="45.83694" lon="4.26757">
        <ele>594</ele>
        <time>2018-08-13T09:13:19Z</time>
      </trkpt>
      <trkpt lat="45.83697" lon="4.26754">
        <ele>594</ele>
        <time>2018-08-13T09:13:24Z</time>
      </trkpt>
      <trkpt lat="45.837" lon="4.26754">
        <ele>594</ele>
        <time>2018-08-13T09:13:30Z</time>
      </trkpt>
      <trkpt lat="45.83703" lon="4.26757">
        <ele>594</ele>
        <time>2018-08-13T09:13:35Z</time>
      </trkpt>
      <trkpt lat="45.83705" lon="4.26762">
        <ele>594</ele>
        <time>2018-08-13T09:13:40Z</time>
      </trkpt>
      <trkpt lat="45.83707" lon="4.26765">
        <ele>594</ele>
        <time>2018-08-13T09:13:46Z</time>
      </trkpt>
      <trkpt lat="45.83709" lon="4.26765">
        <ele>594</ele>
        <time>2018-08-13T09:13:51Z</time>
      </trkpt>
      <trkpt lat="45.83712" lon="4.26764">
        <ele>594</ele>
        <time>2018-08-13T09:13:57Z</time>
      </trkpt>
      <trkpt lat="45.83712" lon="4.26764">
        <ele>594</ele>
        <time>2018-08-13T09:14:03Z</time>
      </trkpt>
      <trkpt lat="45.83712" lon="4.26765">
        <ele>594</ele>
        <time>2018-08-13T09:14:08Z</time>
      </trkpt>
    </trkseg>
  </trk>
</gpx>